<?xml version="1.0" encoding="UTF-8" standalone="no" ?>
<gpx xmlns="http://www.topografix.com/GPX/1/1" xmlns:xsi="http://www.w3.org/2001/XMLSchema-instance" xsi:schemaLocation="http://www.topografix.com/GPX/1/1 http://www.topografix.com/GPX/1/1/gpx.xsd" version="1.1" creator="VisuGPX - https://www.visugpx.com">
  <metadata>
    <name>64 - PEDESTRE - Lescun - Circuit d\'Ansabère</name>
    <desc><![CDATA[Nuage et vent violent]]></desc>
  </metadata>
  <trk>
    <name><![CDATA[ACTIVE LOG 004]]></name>
    <trkseg>
      <trkpt lat="42.90633" lon="-0.68956">
        <ele>1176.791016</ele>
        <time>2012-09-03T07:47:36Z</time>
      </trkpt>
      <trkpt lat="42.90633" lon="-0.68956">
        <ele>1176.791016</ele>
        <time>2012-09-03T07:47:37Z</time>
      </trkpt>
      <trkpt lat="42.90633" lon="-0.68956">
        <ele>1177.752197</ele>
        <time>2012-09-03T07:47:39Z</time>
      </trkpt>
      <trkpt lat="42.90628" lon="-0.68963">
        <ele>1176.791016</ele>
        <time>2012-09-03T07:48:00Z</time>
      </trkpt>
      <trkpt lat="42.90626" lon="-0.68968">
        <ele>1176.791016</ele>
        <time>2012-09-03T07:48:05Z</time>
      </trkpt>
      <trkpt lat="42.90614" lon="-0.68981">
        <ele>1176.791016</ele>
        <time>2012-09-03T07:48:20Z</time>
      </trkpt>
      <trkpt lat="42.90598" lon="-0.69">
        <ele>1177.752197</ele>
        <time>2012-09-03T07:48:39Z</time>
      </trkpt>
      <trkpt lat="42.90598" lon="-0.69001">
        <ele>1177.752197</ele>
        <time>2012-09-03T07:48:40Z</time>
      </trkpt>
      <trkpt lat="42.90596" lon="-0.69005">
        <ele>1178.23291</ele>
        <time>2012-09-03T07:48:43Z</time>
      </trkpt>
      <trkpt lat="42.90589" lon="-0.69021">
        <ele>1180.636475</ele>
        <time>2012-09-03T07:48:58Z</time>
      </trkpt>
      <trkpt lat="42.90581" lon="-0.6905">
        <ele>1183.520264</ele>
        <time>2012-09-03T07:49:19Z</time>
      </trkpt>
      <trkpt lat="42.90565" lon="-0.69081">
        <ele>1183.039551</ele>
        <time>2012-09-03T07:49:45Z</time>
      </trkpt>
      <trkpt lat="42.90559" lon="-0.69106">
        <ele>1182.559082</ele>
        <time>2012-09-03T07:50:04Z</time>
      </trkpt>
      <trkpt lat="42.90563" lon="-0.6912">
        <ele>1180.636475</ele>
        <time>2012-09-03T07:50:16Z</time>
      </trkpt>
      <trkpt lat="42.9057" lon="-0.69129">
        <ele>1180.155762</ele>
        <time>2012-09-03T07:50:21Z</time>
      </trkpt>
      <trkpt lat="42.90569" lon="-0.69133">
        <ele>1180.155762</ele>
        <time>2012-09-03T07:50:24Z</time>
      </trkpt>
      <trkpt lat="42.90561" lon="-0.69136">
        <ele>1180.155762</ele>
        <time>2012-09-03T07:50:38Z</time>
      </trkpt>
      <trkpt lat="42.90549" lon="-0.69148">
        <ele>1182.559082</ele>
        <time>2012-09-03T07:50:51Z</time>
      </trkpt>
      <trkpt lat="42.90544" lon="-0.69153">
        <ele>1183.039551</ele>
        <time>2012-09-03T07:50:56Z</time>
      </trkpt>
      <trkpt lat="42.90534" lon="-0.69175">
        <ele>1184.962402</ele>
        <time>2012-09-03T07:51:15Z</time>
      </trkpt>
      <trkpt lat="42.90529" lon="-0.69191">
        <ele>1186.404297</ele>
        <time>2012-09-03T07:51:27Z</time>
      </trkpt>
      <trkpt lat="42.90511" lon="-0.69211">
        <ele>1188.326904</ele>
        <time>2012-09-03T07:51:45Z</time>
      </trkpt>
      <trkpt lat="42.90498" lon="-0.69228">
        <ele>1190.72998</ele>
        <time>2012-09-03T07:52:01Z</time>
      </trkpt>
      <trkpt lat="42.90492" lon="-0.6924">
        <ele>1192.652832</ele>
        <time>2012-09-03T07:52:16Z</time>
      </trkpt>
      <trkpt lat="42.90481" lon="-0.69258">
        <ele>1194.094727</ele>
        <time>2012-09-03T07:52:32Z</time>
      </trkpt>
      <trkpt lat="42.90477" lon="-0.69274">
        <ele>1196.017578</ele>
        <time>2012-09-03T07:52:46Z</time>
      </trkpt>
      <trkpt lat="42.90476" lon="-0.6929">
        <ele>1196.97876</ele>
        <time>2012-09-03T07:53:00Z</time>
      </trkpt>
      <trkpt lat="42.90463" lon="-0.69303">
        <ele>1198.901367</ele>
        <time>2012-09-03T07:53:15Z</time>
      </trkpt>
      <trkpt lat="42.90453" lon="-0.6932">
        <ele>1201.304688</ele>
        <time>2012-09-03T07:53:34Z</time>
      </trkpt>
      <trkpt lat="42.90447" lon="-0.69342">
        <ele>1204.669189</ele>
        <time>2012-09-03T07:53:53Z</time>
      </trkpt>
      <trkpt lat="42.9044" lon="-0.69364">
        <ele>1207.553223</ele>
        <time>2012-09-03T07:54:13Z</time>
      </trkpt>
      <trkpt lat="42.90434" lon="-0.69377">
        <ele>1209.956299</ele>
        <time>2012-09-03T07:54:29Z</time>
      </trkpt>
      <trkpt lat="42.90426" lon="-0.69391">
        <ele>1212.840576</ele>
        <time>2012-09-03T07:54:46Z</time>
      </trkpt>
      <trkpt lat="42.90416" lon="-0.69411">
        <ele>1213.321289</ele>
        <time>2012-09-03T07:55:05Z</time>
      </trkpt>
      <trkpt lat="42.90416" lon="-0.6944">
        <ele>1215.243896</ele>
        <time>2012-09-03T07:55:29Z</time>
      </trkpt>
      <trkpt lat="42.90419" lon="-0.69453">
        <ele>1218.608398</ele>
        <time>2012-09-03T07:55:41Z</time>
      </trkpt>
      <trkpt lat="42.9042" lon="-0.69473">
        <ele>1221.492188</ele>
        <time>2012-09-03T07:56:00Z</time>
      </trkpt>
      <trkpt lat="42.90419" lon="-0.69496">
        <ele>1223.895508</ele>
        <time>2012-09-03T07:56:20Z</time>
      </trkpt>
      <trkpt lat="42.90411" lon="-0.69524">
        <ele>1225.818115</ele>
        <time>2012-09-03T07:56:44Z</time>
      </trkpt>
      <trkpt lat="42.90416" lon="-0.69549">
        <ele>1228.702393</ele>
        <time>2012-09-03T07:57:06Z</time>
      </trkpt>
      <trkpt lat="42.90418" lon="-0.69566">
        <ele>1232.066895</ele>
        <time>2012-09-03T07:57:21Z</time>
      </trkpt>
      <trkpt lat="42.90415" lon="-0.69591">
        <ele>1233.989502</ele>
        <time>2012-09-03T07:57:44Z</time>
      </trkpt>
      <trkpt lat="42.90417" lon="-0.69604">
        <ele>1236.392822</ele>
        <time>2012-09-03T07:57:55Z</time>
      </trkpt>
      <trkpt lat="42.90417" lon="-0.69624">
        <ele>1238.31543</ele>
        <time>2012-09-03T07:58:13Z</time>
      </trkpt>
      <trkpt lat="42.90417" lon="-0.69626">
        <ele>1239.757324</ele>
        <time>2012-09-03T07:58:17Z</time>
      </trkpt>
      <trkpt lat="42.90425" lon="-0.69646">
        <ele>1241.199219</ele>
        <time>2012-09-03T07:58:34Z</time>
      </trkpt>
      <trkpt lat="42.9043" lon="-0.69653">
        <ele>1244.083496</ele>
        <time>2012-09-03T07:58:49Z</time>
      </trkpt>
      <trkpt lat="42.90434" lon="-0.69665">
        <ele>1245.044678</ele>
        <time>2012-09-03T07:59:05Z</time>
      </trkpt>
      <trkpt lat="42.9043" lon="-0.69679">
        <ele>1247.928711</ele>
        <time>2012-09-03T07:59:22Z</time>
      </trkpt>
      <trkpt lat="42.90433" lon="-0.6968">
        <ele>1245.044678</ele>
        <time>2012-09-03T08:00:05Z</time>
      </trkpt>
      <trkpt lat="42.90433" lon="-0.69679">
        <ele>1246.486816</ele>
        <time>2012-09-03T08:00:21Z</time>
      </trkpt>
      <trkpt lat="42.90433" lon="-0.69679">
        <ele>1248.889893</ele>
        <time>2012-09-03T08:00:25Z</time>
      </trkpt>
      <trkpt lat="42.90427" lon="-0.69688">
        <ele>1249.370605</ele>
        <time>2012-09-03T08:00:51Z</time>
      </trkpt>
      <trkpt lat="42.90425" lon="-0.69704">
        <ele>1252.254395</ele>
        <time>2012-09-03T08:01:06Z</time>
      </trkpt>
      <trkpt lat="42.90423" lon="-0.69718">
        <ele>1254.177246</ele>
        <time>2012-09-03T08:01:21Z</time>
      </trkpt>
      <trkpt lat="42.90418" lon="-0.69735">
        <ele>1256.099609</ele>
        <time>2012-09-03T08:01:38Z</time>
      </trkpt>
      <trkpt lat="42.90418" lon="-0.69749">
        <ele>1258.022461</ele>
        <time>2012-09-03T08:01:51Z</time>
      </trkpt>
      <trkpt lat="42.90427" lon="-0.69764">
        <ele>1260.906494</ele>
        <time>2012-09-03T08:02:08Z</time>
      </trkpt>
      <trkpt lat="42.90437" lon="-0.69778">
        <ele>1263.790283</ele>
        <time>2012-09-03T08:02:27Z</time>
      </trkpt>
      <trkpt lat="42.90446" lon="-0.6979">
        <ele>1265.713135</ele>
        <time>2012-09-03T08:02:45Z</time>
      </trkpt>
      <trkpt lat="42.90455" lon="-0.69802">
        <ele>1268.116211</ele>
        <time>2012-09-03T08:02:57Z</time>
      </trkpt>
      <trkpt lat="42.90461" lon="-0.69813">
        <ele>1269.077637</ele>
        <time>2012-09-03T08:03:07Z</time>
      </trkpt>
      <trkpt lat="42.90463" lon="-0.69816">
        <ele>1270.038818</ele>
        <time>2012-09-03T08:03:10Z</time>
      </trkpt>
      <trkpt lat="42.90472" lon="-0.69828">
        <ele>1272.442139</ele>
        <time>2012-09-03T08:03:23Z</time>
      </trkpt>
      <trkpt lat="42.90463" lon="-0.69837">
        <ele>1273.884033</ele>
        <time>2012-09-03T08:03:35Z</time>
      </trkpt>
      <trkpt lat="42.90454" lon="-0.69847">
        <ele>1277.249023</ele>
        <time>2012-09-03T08:03:50Z</time>
      </trkpt>
      <trkpt lat="42.90462" lon="-0.6986">
        <ele>1278.690918</ele>
        <time>2012-09-03T08:04:02Z</time>
      </trkpt>
      <trkpt lat="42.90466" lon="-0.69865">
        <ele>1278.690918</ele>
        <time>2012-09-03T08:04:06Z</time>
      </trkpt>
      <trkpt lat="42.90477" lon="-0.69875">
        <ele>1282.05542</ele>
        <time>2012-09-03T08:04:16Z</time>
      </trkpt>
      <trkpt lat="42.90477" lon="-0.69876">
        <ele>1282.05542</ele>
        <time>2012-09-03T08:04:17Z</time>
      </trkpt>
      <trkpt lat="42.90486" lon="-0.69885">
        <ele>1284.939453</ele>
        <time>2012-09-03T08:04:28Z</time>
      </trkpt>
      <trkpt lat="42.90492" lon="-0.69888">
        <ele>1284.939453</ele>
        <time>2012-09-03T08:04:30Z</time>
      </trkpt>
      <trkpt lat="42.90495" lon="-0.699">
        <ele>1286.381348</ele>
        <time>2012-09-03T08:04:45Z</time>
      </trkpt>
      <trkpt lat="42.90493" lon="-0.69909">
        <ele>1288.784668</ele>
        <time>2012-09-03T08:04:56Z</time>
      </trkpt>
      <trkpt lat="42.90513" lon="-0.69928">
        <ele>1290.707031</ele>
        <time>2012-09-03T08:05:15Z</time>
      </trkpt>
      <trkpt lat="42.90525" lon="-0.69939">
        <ele>1293.110596</ele>
        <time>2012-09-03T08:05:27Z</time>
      </trkpt>
      <trkpt lat="42.90528" lon="-0.6995">
        <ele>1295.033203</ele>
        <time>2012-09-03T08:05:43Z</time>
      </trkpt>
      <trkpt lat="42.90533" lon="-0.69964">
        <ele>1296.475342</ele>
        <time>2012-09-03T08:06:00Z</time>
      </trkpt>
      <trkpt lat="42.90533" lon="-0.69972">
        <ele>1295.513916</ele>
        <time>2012-09-03T08:06:08Z</time>
      </trkpt>
      <trkpt lat="42.90541" lon="-0.69988">
        <ele>1295.994629</ele>
        <time>2012-09-03T08:06:22Z</time>
      </trkpt>
      <trkpt lat="42.90543" lon="-0.6999">
        <ele>1296.475342</ele>
        <time>2012-09-03T08:06:23Z</time>
      </trkpt>
      <trkpt lat="42.90541" lon="-0.69994">
        <ele>1295.994629</ele>
        <time>2012-09-03T08:06:26Z</time>
      </trkpt>
      <trkpt lat="42.90539" lon="-0.70008">
        <ele>1295.513916</ele>
        <time>2012-09-03T08:06:36Z</time>
      </trkpt>
      <trkpt lat="42.90535" lon="-0.70011">
        <ele>1295.513916</ele>
        <time>2012-09-03T08:06:39Z</time>
      </trkpt>
      <trkpt lat="42.90516" lon="-0.7002">
        <ele>1297.917236</ele>
        <time>2012-09-03T08:06:49Z</time>
      </trkpt>
      <trkpt lat="42.905" lon="-0.70033">
        <ele>1298.397705</ele>
        <time>2012-09-03T08:07:01Z</time>
      </trkpt>
      <trkpt lat="42.90489" lon="-0.70048">
        <ele>1298.878418</ele>
        <time>2012-09-03T08:07:15Z</time>
      </trkpt>
      <trkpt lat="42.90484" lon="-0.70068">
        <ele>1300.801025</ele>
        <time>2012-09-03T08:07:31Z</time>
      </trkpt>
      <trkpt lat="42.90484" lon="-0.7007">
        <ele>1301.762451</ele>
        <time>2012-09-03T08:07:33Z</time>
      </trkpt>
      <trkpt lat="42.90488" lon="-0.70085">
        <ele>1302.723633</ele>
        <time>2012-09-03T08:07:46Z</time>
      </trkpt>
      <trkpt lat="42.90488" lon="-0.70098">
        <ele>1305.126953</ele>
        <time>2012-09-03T08:07:59Z</time>
      </trkpt>
      <trkpt lat="42.90485" lon="-0.70107">
        <ele>1307.049561</ele>
        <time>2012-09-03T08:08:13Z</time>
      </trkpt>
      <trkpt lat="42.90465" lon="-0.7012">
        <ele>1309.933594</ele>
        <time>2012-09-03T08:08:30Z</time>
      </trkpt>
      <trkpt lat="42.90446" lon="-0.7013">
        <ele>1312.336914</ele>
        <time>2012-09-03T08:08:44Z</time>
      </trkpt>
      <trkpt lat="42.90426" lon="-0.7014">
        <ele>1314.740234</ele>
        <time>2012-09-03T08:08:59Z</time>
      </trkpt>
      <trkpt lat="42.90409" lon="-0.70149">
        <ele>1315.70166</ele>
        <time>2012-09-03T08:09:12Z</time>
      </trkpt>
      <trkpt lat="42.90406" lon="-0.70151">
        <ele>1317.143555</ele>
        <time>2012-09-03T08:09:15Z</time>
      </trkpt>
      <trkpt lat="42.90411" lon="-0.70163">
        <ele>1320.027344</ele>
        <time>2012-09-03T08:09:29Z</time>
      </trkpt>
      <trkpt lat="42.90419" lon="-0.70169">
        <ele>1320.98877</ele>
        <time>2012-09-03T08:09:35Z</time>
      </trkpt>
      <trkpt lat="42.90426" lon="-0.70182">
        <ele>1323.872559</ele>
        <time>2012-09-03T08:09:50Z</time>
      </trkpt>
      <trkpt lat="42.90432" lon="-0.70193">
        <ele>1325.314697</ele>
        <time>2012-09-03T08:10:02Z</time>
      </trkpt>
      <trkpt lat="42.90438" lon="-0.70203">
        <ele>1328.679443</ele>
        <time>2012-09-03T08:10:13Z</time>
      </trkpt>
      <trkpt lat="42.9044" lon="-0.70218">
        <ele>1331.563232</ele>
        <time>2012-09-03T08:10:30Z</time>
      </trkpt>
      <trkpt lat="42.90438" lon="-0.70234">
        <ele>1334.447266</ele>
        <time>2012-09-03T08:10:50Z</time>
      </trkpt>
      <trkpt lat="42.90435" lon="-0.70247">
        <ele>1335.408447</ele>
        <time>2012-09-03T08:11:05Z</time>
      </trkpt>
      <trkpt lat="42.90432" lon="-0.70257">
        <ele>1338.773193</ele>
        <time>2012-09-03T08:11:16Z</time>
      </trkpt>
      <trkpt lat="42.90433" lon="-0.70274">
        <ele>1342.618652</ele>
        <time>2012-09-03T08:11:36Z</time>
      </trkpt>
      <trkpt lat="42.90434" lon="-0.70286">
        <ele>1342.618652</ele>
        <time>2012-09-03T08:11:51Z</time>
      </trkpt>
      <trkpt lat="42.90439" lon="-0.70295">
        <ele>1345.021729</ele>
        <time>2012-09-03T08:12:03Z</time>
      </trkpt>
      <trkpt lat="42.90442" lon="-0.70304">
        <ele>1347.905762</ele>
        <time>2012-09-03T08:12:16Z</time>
      </trkpt>
      <trkpt lat="42.90441" lon="-0.70316">
        <ele>1351.270264</ele>
        <time>2012-09-03T08:12:29Z</time>
      </trkpt>
      <trkpt lat="42.90443" lon="-0.70326">
        <ele>1352.231445</ele>
        <time>2012-09-03T08:12:38Z</time>
      </trkpt>
      <trkpt lat="42.90453" lon="-0.70333">
        <ele>1352.712158</ele>
        <time>2012-09-03T08:12:49Z</time>
      </trkpt>
      <trkpt lat="42.90452" lon="-0.70359">
        <ele>1354.634766</ele>
        <time>2012-09-03T08:13:12Z</time>
      </trkpt>
      <trkpt lat="42.90442" lon="-0.70372">
        <ele>1356.076904</ele>
        <time>2012-09-03T08:13:25Z</time>
      </trkpt>
      <trkpt lat="42.90439" lon="-0.70389">
        <ele>1358.960938</ele>
        <time>2012-09-03T08:13:45Z</time>
      </trkpt>
      <trkpt lat="42.90436" lon="-0.70404">
        <ele>1360.883545</ele>
        <time>2012-09-03T08:13:59Z</time>
      </trkpt>
      <trkpt lat="42.90433" lon="-0.70415">
        <ele>1363.286865</ele>
        <time>2012-09-03T08:14:11Z</time>
      </trkpt>
      <trkpt lat="42.90432" lon="-0.70428">
        <ele>1364.248047</ele>
        <time>2012-09-03T08:14:23Z</time>
      </trkpt>
      <trkpt lat="42.90431" lon="-0.70441">
        <ele>1365.690186</ele>
        <time>2012-09-03T08:14:36Z</time>
      </trkpt>
      <trkpt lat="42.90432" lon="-0.70444">
        <ele>1367.612549</ele>
        <time>2012-09-03T08:14:40Z</time>
      </trkpt>
      <trkpt lat="42.90434" lon="-0.70458">
        <ele>1368.573975</ele>
        <time>2012-09-03T08:14:51Z</time>
      </trkpt>
      <trkpt lat="42.90437" lon="-0.70473">
        <ele>1370.015869</ele>
        <time>2012-09-03T08:15:05Z</time>
      </trkpt>
      <trkpt lat="42.90435" lon="-0.70486">
        <ele>1370.496582</ele>
        <time>2012-09-03T08:15:15Z</time>
      </trkpt>
      <trkpt lat="42.90436" lon="-0.70504">
        <ele>1370.015869</ele>
        <time>2012-09-03T08:15:28Z</time>
      </trkpt>
      <trkpt lat="42.90432" lon="-0.70525">
        <ele>1371.938477</ele>
        <time>2012-09-03T08:15:45Z</time>
      </trkpt>
      <trkpt lat="42.9043" lon="-0.7054">
        <ele>1371.938477</ele>
        <time>2012-09-03T08:15:59Z</time>
      </trkpt>
      <trkpt lat="42.90425" lon="-0.70555">
        <ele>1372.419434</ele>
        <time>2012-09-03T08:16:13Z</time>
      </trkpt>
      <trkpt lat="42.9042" lon="-0.70568">
        <ele>1373.380859</ele>
        <time>2012-09-03T08:16:26Z</time>
      </trkpt>
      <trkpt lat="42.9042" lon="-0.70571">
        <ele>1373.861328</ele>
        <time>2012-09-03T08:16:47Z</time>
      </trkpt>
      <trkpt lat="42.90419" lon="-0.70574">
        <ele>1373.380859</ele>
        <time>2012-09-03T08:17:13Z</time>
      </trkpt>
      <trkpt lat="42.90418" lon="-0.70574">
        <ele>1373.861328</ele>
        <time>2012-09-03T08:17:24Z</time>
      </trkpt>
      <trkpt lat="42.90418" lon="-0.70574">
        <ele>1371.457764</ele>
        <time>2012-09-03T08:17:26Z</time>
      </trkpt>
      <trkpt lat="42.90418" lon="-0.70574">
        <ele>1373.861328</ele>
        <time>2012-09-03T08:17:31Z</time>
      </trkpt>
      <trkpt lat="42.90417" lon="-0.70574">
        <ele>1373.380859</ele>
        <time>2012-09-03T08:17:42Z</time>
      </trkpt>
      <trkpt lat="42.90418" lon="-0.70575">
        <ele>1371.457764</ele>
        <time>2012-09-03T08:17:56Z</time>
      </trkpt>
      <trkpt lat="42.90416" lon="-0.70587">
        <ele>1373.380859</ele>
        <time>2012-09-03T08:18:39Z</time>
      </trkpt>
      <trkpt lat="42.90416" lon="-0.70601">
        <ele>1373.861328</ele>
        <time>2012-09-03T08:18:54Z</time>
      </trkpt>
      <trkpt lat="42.90417" lon="-0.70617">
        <ele>1373.380859</ele>
        <time>2012-09-03T08:19:08Z</time>
      </trkpt>
      <trkpt lat="42.90419" lon="-0.70639">
        <ele>1373.380859</ele>
        <time>2012-09-03T08:19:25Z</time>
      </trkpt>
      <trkpt lat="42.9042" lon="-0.7067">
        <ele>1371.938477</ele>
        <time>2012-09-03T08:19:47Z</time>
      </trkpt>
      <trkpt lat="42.90422" lon="-0.70698">
        <ele>1370.977295</ele>
        <time>2012-09-03T08:20:09Z</time>
      </trkpt>
      <trkpt lat="42.90422" lon="-0.70702">
        <ele>1370.977295</ele>
        <time>2012-09-03T08:20:13Z</time>
      </trkpt>
      <trkpt lat="42.90425" lon="-0.70716">
        <ele>1370.015869</ele>
        <time>2012-09-03T08:20:28Z</time>
      </trkpt>
      <trkpt lat="42.90429" lon="-0.70741">
        <ele>1369.054688</ele>
        <time>2012-09-03T08:20:45Z</time>
      </trkpt>
      <trkpt lat="42.90433" lon="-0.70768">
        <ele>1369.054688</ele>
        <time>2012-09-03T08:21:05Z</time>
      </trkpt>
      <trkpt lat="42.90437" lon="-0.70796">
        <ele>1368.093262</ele>
        <time>2012-09-03T08:21:24Z</time>
      </trkpt>
      <trkpt lat="42.90437" lon="-0.70801">
        <ele>1368.573975</ele>
        <time>2012-09-03T08:21:27Z</time>
      </trkpt>
      <trkpt lat="42.90434" lon="-0.70804">
        <ele>1367.612549</ele>
        <time>2012-09-03T08:21:31Z</time>
      </trkpt>
      <trkpt lat="42.90408" lon="-0.70812">
        <ele>1368.093262</ele>
        <time>2012-09-03T08:21:56Z</time>
      </trkpt>
      <trkpt lat="42.90388" lon="-0.70824">
        <ele>1368.573975</ele>
        <time>2012-09-03T08:22:16Z</time>
      </trkpt>
      <trkpt lat="42.90368" lon="-0.70846">
        <ele>1368.093262</ele>
        <time>2012-09-03T08:22:40Z</time>
      </trkpt>
      <trkpt lat="42.90364" lon="-0.7085">
        <ele>1368.573975</ele>
        <time>2012-09-03T08:22:45Z</time>
      </trkpt>
      <trkpt lat="42.90348" lon="-0.70862">
        <ele>1368.093262</ele>
        <time>2012-09-03T08:23:03Z</time>
      </trkpt>
      <trkpt lat="42.90336" lon="-0.70874">
        <ele>1369.5354</ele>
        <time>2012-09-03T08:23:19Z</time>
      </trkpt>
      <trkpt lat="42.90326" lon="-0.70886">
        <ele>1370.015869</ele>
        <time>2012-09-03T08:23:33Z</time>
      </trkpt>
      <trkpt lat="42.90306" lon="-0.70901">
        <ele>1371.457764</ele>
        <time>2012-09-03T08:23:57Z</time>
      </trkpt>
      <trkpt lat="42.90297" lon="-0.70906">
        <ele>1374.822754</ele>
        <time>2012-09-03T08:24:11Z</time>
      </trkpt>
      <trkpt lat="42.90293" lon="-0.70918">
        <ele>1378.187256</ele>
        <time>2012-09-03T08:24:26Z</time>
      </trkpt>
      <trkpt lat="42.90293" lon="-0.70919">
        <ele>1378.187256</ele>
        <time>2012-09-03T08:24:27Z</time>
      </trkpt>
      <trkpt lat="42.90283" lon="-0.70919">
        <ele>1381.071289</ele>
        <time>2012-09-03T08:24:44Z</time>
      </trkpt>
      <trkpt lat="42.90277" lon="-0.7092">
        <ele>1382.032471</ele>
        <time>2012-09-03T08:24:57Z</time>
      </trkpt>
      <trkpt lat="42.90279" lon="-0.70929">
        <ele>1382.993652</ele>
        <time>2012-09-03T08:25:09Z</time>
      </trkpt>
      <trkpt lat="42.90281" lon="-0.70929">
        <ele>1382.993652</ele>
        <time>2012-09-03T08:25:10Z</time>
      </trkpt>
      <trkpt lat="42.90282" lon="-0.70938">
        <ele>1385.396973</ele>
        <time>2012-09-03T08:25:22Z</time>
      </trkpt>
      <trkpt lat="42.90278" lon="-0.70945">
        <ele>1388.761963</ele>
        <time>2012-09-03T08:25:33Z</time>
      </trkpt>
      <trkpt lat="42.9028" lon="-0.70948">
        <ele>1389.723145</ele>
        <time>2012-09-03T08:25:39Z</time>
      </trkpt>
      <trkpt lat="42.90283" lon="-0.70958">
        <ele>1391.165039</ele>
        <time>2012-09-03T08:25:50Z</time>
      </trkpt>
      <trkpt lat="42.90276" lon="-0.70954">
        <ele>1394.049072</ele>
        <time>2012-09-03T08:26:03Z</time>
      </trkpt>
      <trkpt lat="42.90269" lon="-0.7095">
        <ele>1395.010254</ele>
        <time>2012-09-03T08:26:14Z</time>
      </trkpt>
      <trkpt lat="42.90265" lon="-0.7095">
        <ele>1397.413574</ele>
        <time>2012-09-03T08:26:21Z</time>
      </trkpt>
      <trkpt lat="42.90261" lon="-0.70948">
        <ele>1398.855469</ele>
        <time>2012-09-03T08:26:32Z</time>
      </trkpt>
      <trkpt lat="42.90257" lon="-0.70948">
        <ele>1400.297607</ele>
        <time>2012-09-03T08:26:49Z</time>
      </trkpt>
      <trkpt lat="42.90252" lon="-0.70943">
        <ele>1401.258789</ele>
        <time>2012-09-03T08:26:56Z</time>
      </trkpt>
      <trkpt lat="42.9024" lon="-0.70938">
        <ele>1402.700684</ele>
        <time>2012-09-03T08:27:10Z</time>
      </trkpt>
      <trkpt lat="42.90233" lon="-0.70933">
        <ele>1405.104248</ele>
        <time>2012-09-03T08:27:22Z</time>
      </trkpt>
      <trkpt lat="42.9022" lon="-0.70929">
        <ele>1408.46875</ele>
        <time>2012-09-03T08:27:37Z</time>
      </trkpt>
      <trkpt lat="42.90213" lon="-0.70923">
        <ele>1411.833496</ele>
        <time>2012-09-03T08:27:53Z</time>
      </trkpt>
      <trkpt lat="42.902" lon="-0.7092">
        <ele>1412.794678</ele>
        <time>2012-09-03T08:28:03Z</time>
      </trkpt>
      <trkpt lat="42.90197" lon="-0.70912">
        <ele>1413.755859</ele>
        <time>2012-09-03T08:28:13Z</time>
      </trkpt>
      <trkpt lat="42.90191" lon="-0.70907">
        <ele>1416.639893</ele>
        <time>2012-09-03T08:28:31Z</time>
      </trkpt>
      <trkpt lat="42.90175" lon="-0.70916">
        <ele>1420.485352</ele>
        <time>2012-09-03T08:28:48Z</time>
      </trkpt>
      <trkpt lat="42.90168" lon="-0.70931">
        <ele>1423.849854</ele>
        <time>2012-09-03T08:29:04Z</time>
      </trkpt>
      <trkpt lat="42.90164" lon="-0.70947">
        <ele>1426.253174</ele>
        <time>2012-09-03T08:29:24Z</time>
      </trkpt>
      <trkpt lat="42.90161" lon="-0.70949">
        <ele>1426.733887</ele>
        <time>2012-09-03T08:29:28Z</time>
      </trkpt>
      <trkpt lat="42.90161" lon="-0.70952">
        <ele>1426.733887</ele>
        <time>2012-09-03T08:29:30Z</time>
      </trkpt>
      <trkpt lat="42.90153" lon="-0.70963">
        <ele>1428.656494</ele>
        <time>2012-09-03T08:29:50Z</time>
      </trkpt>
      <trkpt lat="42.90148" lon="-0.70976">
        <ele>1431.540283</ele>
        <time>2012-09-03T08:30:04Z</time>
      </trkpt>
      <trkpt lat="42.90147" lon="-0.70978">
        <ele>1432.020996</ele>
        <time>2012-09-03T08:30:06Z</time>
      </trkpt>
      <trkpt lat="42.90148" lon="-0.70989">
        <ele>1433.943604</ele>
        <time>2012-09-03T08:30:20Z</time>
      </trkpt>
      <trkpt lat="42.90132" lon="-0.70994">
        <ele>1436.827637</ele>
        <time>2012-09-03T08:30:39Z</time>
      </trkpt>
      <trkpt lat="42.90118" lon="-0.70999">
        <ele>1439.230957</ele>
        <time>2012-09-03T08:30:52Z</time>
      </trkpt>
      <trkpt lat="42.90113" lon="-0.71009">
        <ele>1441.634277</ele>
        <time>2012-09-03T08:31:13Z</time>
      </trkpt>
      <trkpt lat="42.90108" lon="-0.71016">
        <ele>1444.037598</ele>
        <time>2012-09-03T08:31:23Z</time>
      </trkpt>
      <trkpt lat="42.90096" lon="-0.71035">
        <ele>1446.921387</ele>
        <time>2012-09-03T08:31:50Z</time>
      </trkpt>
      <trkpt lat="42.90076" lon="-0.71043">
        <ele>1447.882812</ele>
        <time>2012-09-03T08:32:11Z</time>
      </trkpt>
      <trkpt lat="42.90061" lon="-0.71056">
        <ele>1449.80542</ele>
        <time>2012-09-03T08:32:27Z</time>
      </trkpt>
      <trkpt lat="42.90048" lon="-0.71074">
        <ele>1449.324707</ele>
        <time>2012-09-03T08:32:48Z</time>
      </trkpt>
      <trkpt lat="42.90041" lon="-0.71078">
        <ele>1450.766602</ele>
        <time>2012-09-03T08:32:59Z</time>
      </trkpt>
      <trkpt lat="42.90038" lon="-0.71082">
        <ele>1451.728027</ele>
        <time>2012-09-03T08:33:12Z</time>
      </trkpt>
      <trkpt lat="42.90019" lon="-0.71098">
        <ele>1454.131592</ele>
        <time>2012-09-03T08:33:28Z</time>
      </trkpt>
      <trkpt lat="42.90001" lon="-0.71104">
        <ele>1455.573486</ele>
        <time>2012-09-03T08:33:46Z</time>
      </trkpt>
      <trkpt lat="42.89994" lon="-0.71107">
        <ele>1455.573486</ele>
        <time>2012-09-03T08:33:49Z</time>
      </trkpt>
      <trkpt lat="42.89972" lon="-0.71113">
        <ele>1458.937988</ele>
        <time>2012-09-03T08:34:02Z</time>
      </trkpt>
      <trkpt lat="42.89951" lon="-0.71115">
        <ele>1460.379883</ele>
        <time>2012-09-03T08:34:17Z</time>
      </trkpt>
      <trkpt lat="42.89953" lon="-0.71122">
        <ele>1462.783203</ele>
        <time>2012-09-03T08:34:32Z</time>
      </trkpt>
      <trkpt lat="42.89956" lon="-0.7113">
        <ele>1465.667236</ele>
        <time>2012-09-03T08:34:41Z</time>
      </trkpt>
      <trkpt lat="42.89962" lon="-0.71149">
        <ele>1469.031982</ele>
        <time>2012-09-03T08:35:06Z</time>
      </trkpt>
      <trkpt lat="42.89947" lon="-0.7116">
        <ele>1470.95459</ele>
        <time>2012-09-03T08:35:25Z</time>
      </trkpt>
      <trkpt lat="42.8993" lon="-0.71164">
        <ele>1472.877197</ele>
        <time>2012-09-03T08:35:40Z</time>
      </trkpt>
      <trkpt lat="42.89928" lon="-0.71174">
        <ele>1474.319092</ele>
        <time>2012-09-03T08:35:50Z</time>
      </trkpt>
      <trkpt lat="42.89924" lon="-0.71189">
        <ele>1476.722412</ele>
        <time>2012-09-03T08:36:05Z</time>
      </trkpt>
      <trkpt lat="42.89915" lon="-0.71193">
        <ele>1478.164307</ele>
        <time>2012-09-03T08:36:13Z</time>
      </trkpt>
      <trkpt lat="42.8991" lon="-0.71196">
        <ele>1478.164307</ele>
        <time>2012-09-03T08:36:17Z</time>
      </trkpt>
      <trkpt lat="42.89905" lon="-0.71198">
        <ele>1478.64502</ele>
        <time>2012-09-03T08:36:20Z</time>
      </trkpt>
      <trkpt lat="42.89905" lon="-0.71205">
        <ele>1480.567627</ele>
        <time>2012-09-03T08:36:30Z</time>
      </trkpt>
      <trkpt lat="42.89899" lon="-0.71213">
        <ele>1483.932129</ele>
        <time>2012-09-03T08:36:44Z</time>
      </trkpt>
      <trkpt lat="42.8989" lon="-0.71221">
        <ele>1485.85498</ele>
        <time>2012-09-03T08:36:56Z</time>
      </trkpt>
      <trkpt lat="42.89888" lon="-0.7123">
        <ele>1489.700195</ele>
        <time>2012-09-03T08:37:12Z</time>
      </trkpt>
      <trkpt lat="42.89862" lon="-0.7124">
        <ele>1491.14209</ele>
        <time>2012-09-03T08:37:23Z</time>
      </trkpt>
      <trkpt lat="42.89862" lon="-0.71249">
        <ele>1492.584229</ele>
        <time>2012-09-03T08:37:34Z</time>
      </trkpt>
      <trkpt lat="42.89871" lon="-0.71257">
        <ele>1494.987305</ele>
        <time>2012-09-03T08:37:51Z</time>
      </trkpt>
      <trkpt lat="42.89879" lon="-0.71253">
        <ele>1495.94873</ele>
        <time>2012-09-03T08:38:00Z</time>
      </trkpt>
      <trkpt lat="42.89882" lon="-0.71255">
        <ele>1496.909912</ele>
        <time>2012-09-03T08:38:12Z</time>
      </trkpt>
      <trkpt lat="42.89888" lon="-0.71258">
        <ele>1498.351807</ele>
        <time>2012-09-03T08:38:24Z</time>
      </trkpt>
      <trkpt lat="42.8989" lon="-0.71261">
        <ele>1499.313232</ele>
        <time>2012-09-03T08:38:30Z</time>
      </trkpt>
      <trkpt lat="42.89907" lon="-0.71262">
        <ele>1502.677979</ele>
        <time>2012-09-03T08:38:41Z</time>
      </trkpt>
      <trkpt lat="42.8992" lon="-0.71261">
        <ele>1503.158691</ele>
        <time>2012-09-03T08:38:53Z</time>
      </trkpt>
      <trkpt lat="42.89926" lon="-0.71258">
        <ele>1503.639404</ele>
        <time>2012-09-03T08:39:03Z</time>
      </trkpt>
      <trkpt lat="42.89934" lon="-0.71249">
        <ele>1507.003906</ele>
        <time>2012-09-03T08:39:15Z</time>
      </trkpt>
      <trkpt lat="42.89935" lon="-0.71249">
        <ele>1506.523193</ele>
        <time>2012-09-03T08:39:16Z</time>
      </trkpt>
      <trkpt lat="42.89937" lon="-0.7125">
        <ele>1508.445801</ele>
        <time>2012-09-03T08:39:21Z</time>
      </trkpt>
      <trkpt lat="42.89925" lon="-0.71267">
        <ele>1508.926514</ele>
        <time>2012-09-03T08:39:40Z</time>
      </trkpt>
      <trkpt lat="42.89925" lon="-0.71268">
        <ele>1508.445801</ele>
        <time>2012-09-03T08:39:41Z</time>
      </trkpt>
      <trkpt lat="42.89923" lon="-0.71279">
        <ele>1512.771729</ele>
        <time>2012-09-03T08:39:53Z</time>
      </trkpt>
      <trkpt lat="42.89922" lon="-0.7128">
        <ele>1512.771729</ele>
        <time>2012-09-03T08:39:54Z</time>
      </trkpt>
      <trkpt lat="42.89913" lon="-0.71293">
        <ele>1515.175049</ele>
        <time>2012-09-03T08:40:15Z</time>
      </trkpt>
      <trkpt lat="42.89903" lon="-0.71302">
        <ele>1517.0979</ele>
        <time>2012-09-03T08:40:29Z</time>
      </trkpt>
      <trkpt lat="42.89897" lon="-0.7131">
        <ele>1519.501221</ele>
        <time>2012-09-03T08:40:41Z</time>
      </trkpt>
      <trkpt lat="42.89888" lon="-0.71319">
        <ele>1521.904297</ele>
        <time>2012-09-03T08:40:55Z</time>
      </trkpt>
      <trkpt lat="42.89884" lon="-0.71333">
        <ele>1522.38501</ele>
        <time>2012-09-03T08:41:12Z</time>
      </trkpt>
      <trkpt lat="42.89883" lon="-0.71336">
        <ele>1524.78833</ele>
        <time>2012-09-03T08:41:16Z</time>
      </trkpt>
      <trkpt lat="42.89872" lon="-0.71345">
        <ele>1525.268799</ele>
        <time>2012-09-03T08:41:30Z</time>
      </trkpt>
      <trkpt lat="42.89871" lon="-0.71352">
        <ele>1526.230225</ele>
        <time>2012-09-03T08:41:41Z</time>
      </trkpt>
      <trkpt lat="42.89877" lon="-0.7135">
        <ele>1529.594727</ele>
        <time>2012-09-03T08:41:54Z</time>
      </trkpt>
      <trkpt lat="42.89884" lon="-0.71346">
        <ele>1531.998047</ele>
        <time>2012-09-03T08:42:05Z</time>
      </trkpt>
      <trkpt lat="42.89894" lon="-0.7134">
        <ele>1532.959473</ele>
        <time>2012-09-03T08:42:18Z</time>
      </trkpt>
      <trkpt lat="42.89905" lon="-0.71331">
        <ele>1533.920898</ele>
        <time>2012-09-03T08:42:31Z</time>
      </trkpt>
      <trkpt lat="42.89906" lon="-0.7133">
        <ele>1533.920898</ele>
        <time>2012-09-03T08:42:32Z</time>
      </trkpt>
      <trkpt lat="42.89921" lon="-0.71329">
        <ele>1535.843506</ele>
        <time>2012-09-03T08:42:51Z</time>
      </trkpt>
      <trkpt lat="42.89925" lon="-0.71338">
        <ele>1537.2854</ele>
        <time>2012-09-03T08:43:05Z</time>
      </trkpt>
      <trkpt lat="42.8992" lon="-0.71344">
        <ele>1539.208008</ele>
        <time>2012-09-03T08:43:16Z</time>
      </trkpt>
      <trkpt lat="42.89917" lon="-0.71356">
        <ele>1539.208008</ele>
        <time>2012-09-03T08:43:30Z</time>
      </trkpt>
      <trkpt lat="42.89912" lon="-0.71363">
        <ele>1542.092041</ele>
        <time>2012-09-03T08:43:42Z</time>
      </trkpt>
      <trkpt lat="42.89908" lon="-0.7137">
        <ele>1542.092041</ele>
        <time>2012-09-03T08:43:59Z</time>
      </trkpt>
      <trkpt lat="42.89903" lon="-0.7138">
        <ele>1544.495117</ele>
        <time>2012-09-03T08:44:17Z</time>
      </trkpt>
      <trkpt lat="42.89898" lon="-0.71387">
        <ele>1544.014648</ele>
        <time>2012-09-03T08:44:37Z</time>
      </trkpt>
      <trkpt lat="42.89891" lon="-0.71402">
        <ele>1544.97583</ele>
        <time>2012-09-03T08:44:55Z</time>
      </trkpt>
      <trkpt lat="42.89888" lon="-0.71409">
        <ele>1545.937256</ele>
        <time>2012-09-03T08:45:10Z</time>
      </trkpt>
      <trkpt lat="42.89887" lon="-0.7141">
        <ele>1546.417969</ele>
        <time>2012-09-03T08:45:33Z</time>
      </trkpt>
      <trkpt lat="42.89886" lon="-0.71412">
        <ele>1545.937256</ele>
        <time>2012-09-03T08:46:26Z</time>
      </trkpt>
      <trkpt lat="42.89883" lon="-0.71421">
        <ele>1547.37915</ele>
        <time>2012-09-03T08:46:43Z</time>
      </trkpt>
      <trkpt lat="42.89879" lon="-0.71439">
        <ele>1548.821289</ele>
        <time>2012-09-03T08:47:04Z</time>
      </trkpt>
      <trkpt lat="42.89877" lon="-0.71448">
        <ele>1550.743896</ele>
        <time>2012-09-03T08:47:16Z</time>
      </trkpt>
      <trkpt lat="42.89872" lon="-0.71467">
        <ele>1553.147217</ele>
        <time>2012-09-03T08:47:37Z</time>
      </trkpt>
      <trkpt lat="42.89866" lon="-0.71487">
        <ele>1554.108643</ele>
        <time>2012-09-03T08:47:57Z</time>
      </trkpt>
      <trkpt lat="42.89864" lon="-0.71497">
        <ele>1556.511719</ele>
        <time>2012-09-03T08:48:14Z</time>
      </trkpt>
      <trkpt lat="42.89857" lon="-0.71517">
        <ele>1559.395752</ele>
        <time>2012-09-03T08:48:34Z</time>
      </trkpt>
      <trkpt lat="42.89851" lon="-0.71537">
        <ele>1561.318359</ele>
        <time>2012-09-03T08:48:54Z</time>
      </trkpt>
      <trkpt lat="42.89846" lon="-0.71556">
        <ele>1564.202393</ele>
        <time>2012-09-03T08:49:13Z</time>
      </trkpt>
      <trkpt lat="42.89843" lon="-0.7157">
        <ele>1567.566895</ele>
        <time>2012-09-03T08:49:29Z</time>
      </trkpt>
      <trkpt lat="42.89832" lon="-0.71584">
        <ele>1569.489746</ele>
        <time>2012-09-03T08:49:47Z</time>
      </trkpt>
      <trkpt lat="42.89822" lon="-0.71588">
        <ele>1572.373535</ele>
        <time>2012-09-03T08:49:59Z</time>
      </trkpt>
      <trkpt lat="42.89819" lon="-0.71588">
        <ele>1573.81543</ele>
        <time>2012-09-03T08:50:03Z</time>
      </trkpt>
      <trkpt lat="42.89804" lon="-0.71591">
        <ele>1574.296143</ele>
        <time>2012-09-03T08:50:21Z</time>
      </trkpt>
      <trkpt lat="42.89803" lon="-0.71592">
        <ele>1572.854248</ele>
        <time>2012-09-03T08:50:22Z</time>
      </trkpt>
      <trkpt lat="42.89791" lon="-0.71602">
        <ele>1574.296143</ele>
        <time>2012-09-03T08:50:40Z</time>
      </trkpt>
      <trkpt lat="42.89783" lon="-0.71605">
        <ele>1574.296143</ele>
        <time>2012-09-03T08:50:59Z</time>
      </trkpt>
      <trkpt lat="42.8977" lon="-0.71605">
        <ele>1575.257324</ele>
        <time>2012-09-03T08:51:15Z</time>
      </trkpt>
      <trkpt lat="42.89756" lon="-0.71612">
        <ele>1576.699463</ele>
        <time>2012-09-03T08:51:34Z</time>
      </trkpt>
      <trkpt lat="42.89747" lon="-0.71624">
        <ele>1578.141357</ele>
        <time>2012-09-03T08:51:51Z</time>
      </trkpt>
      <trkpt lat="42.89738" lon="-0.71632">
        <ele>1580.064209</ele>
        <time>2012-09-03T08:52:07Z</time>
      </trkpt>
      <trkpt lat="42.89724" lon="-0.71648">
        <ele>1578.62207</ele>
        <time>2012-09-03T08:52:27Z</time>
      </trkpt>
      <trkpt lat="42.8972" lon="-0.71652">
        <ele>1578.141357</ele>
        <time>2012-09-03T08:52:47Z</time>
      </trkpt>
      <trkpt lat="42.89714" lon="-0.71659">
        <ele>1578.141357</ele>
        <time>2012-09-03T08:53:12Z</time>
      </trkpt>
      <trkpt lat="42.89711" lon="-0.71658">
        <ele>1577.660645</ele>
        <time>2012-09-03T08:53:26Z</time>
      </trkpt>
      <trkpt lat="42.89713" lon="-0.71658">
        <ele>1577.660645</ele>
        <time>2012-09-03T08:53:52Z</time>
      </trkpt>
      <trkpt lat="42.89714" lon="-0.71658">
        <ele>1578.141357</ele>
        <time>2012-09-03T08:54:16Z</time>
      </trkpt>
      <trkpt lat="42.89713" lon="-0.71658">
        <ele>1577.660645</ele>
        <time>2012-09-03T08:54:35Z</time>
      </trkpt>
      <trkpt lat="42.89712" lon="-0.71657">
        <ele>1577.660645</ele>
        <time>2012-09-03T08:55:12Z</time>
      </trkpt>
      <trkpt lat="42.89713" lon="-0.71656">
        <ele>1577.660645</ele>
        <time>2012-09-03T08:55:45Z</time>
      </trkpt>
      <trkpt lat="42.89713" lon="-0.71656">
        <ele>1577.180176</ele>
        <time>2012-09-03T08:57:29Z</time>
      </trkpt>
      <trkpt lat="42.89714" lon="-0.71655">
        <ele>1577.180176</ele>
        <time>2012-09-03T08:58:59Z</time>
      </trkpt>
      <trkpt lat="42.89712" lon="-0.71657">
        <ele>1577.180176</ele>
        <time>2012-09-03T08:59:21Z</time>
      </trkpt>
      <trkpt lat="42.89711" lon="-0.71663">
        <ele>1577.180176</ele>
        <time>2012-09-03T08:59:37Z</time>
      </trkpt>
      <trkpt lat="42.89699" lon="-0.71672">
        <ele>1578.62207</ele>
        <time>2012-09-03T08:59:55Z</time>
      </trkpt>
      <trkpt lat="42.89687" lon="-0.7168">
        <ele>1580.064209</ele>
        <time>2012-09-03T09:00:13Z</time>
      </trkpt>
      <trkpt lat="42.89674" lon="-0.71684">
        <ele>1582.467529</ele>
        <time>2012-09-03T09:00:31Z</time>
      </trkpt>
      <trkpt lat="42.89659" lon="-0.7168">
        <ele>1582.947998</ele>
        <time>2012-09-03T09:00:49Z</time>
      </trkpt>
      <trkpt lat="42.89645" lon="-0.71683">
        <ele>1583.909424</ele>
        <time>2012-09-03T09:01:06Z</time>
      </trkpt>
      <trkpt lat="42.89631" lon="-0.71692">
        <ele>1585.351318</ele>
        <time>2012-09-03T09:01:23Z</time>
      </trkpt>
      <trkpt lat="42.89614" lon="-0.71709">
        <ele>1588.235352</ele>
        <time>2012-09-03T09:01:46Z</time>
      </trkpt>
      <trkpt lat="42.896" lon="-0.71724">
        <ele>1590.638428</ele>
        <time>2012-09-03T09:02:06Z</time>
      </trkpt>
      <trkpt lat="42.89593" lon="-0.71733">
        <ele>1590.157959</ele>
        <time>2012-09-03T09:02:26Z</time>
      </trkpt>
      <trkpt lat="42.89583" lon="-0.71751">
        <ele>1590.638428</ele>
        <time>2012-09-03T09:02:43Z</time>
      </trkpt>
      <trkpt lat="42.89571" lon="-0.71774">
        <ele>1593.041748</ele>
        <time>2012-09-03T09:03:04Z</time>
      </trkpt>
      <trkpt lat="42.89566" lon="-0.71792">
        <ele>1596.406738</ele>
        <time>2012-09-03T09:03:22Z</time>
      </trkpt>
      <trkpt lat="42.89557" lon="-0.71798">
        <ele>1596.887207</ele>
        <time>2012-09-03T09:03:38Z</time>
      </trkpt>
      <trkpt lat="42.89546" lon="-0.71806">
        <ele>1598.329102</ele>
        <time>2012-09-03T09:03:55Z</time>
      </trkpt>
      <trkpt lat="42.89543" lon="-0.71809">
        <ele>1598.329102</ele>
        <time>2012-09-03T09:04:09Z</time>
      </trkpt>
      <trkpt lat="42.89533" lon="-0.7181">
        <ele>1600.251953</ele>
        <time>2012-09-03T09:04:25Z</time>
      </trkpt>
      <trkpt lat="42.89518" lon="-0.71809">
        <ele>1602.655029</ele>
        <time>2012-09-03T09:04:46Z</time>
      </trkpt>
      <trkpt lat="42.89511" lon="-0.71808">
        <ele>1603.616455</ele>
        <time>2012-09-03T09:04:58Z</time>
      </trkpt>
      <trkpt lat="42.89504" lon="-0.71807">
        <ele>1606.500244</ele>
        <time>2012-09-03T09:05:10Z</time>
      </trkpt>
      <trkpt lat="42.89491" lon="-0.71799">
        <ele>1608.422852</ele>
        <time>2012-09-03T09:05:31Z</time>
      </trkpt>
      <trkpt lat="42.89485" lon="-0.71794">
        <ele>1610.826172</ele>
        <time>2012-09-03T09:05:42Z</time>
      </trkpt>
      <trkpt lat="42.89478" lon="-0.71786">
        <ele>1614.671631</ele>
        <time>2012-09-03T09:05:55Z</time>
      </trkpt>
      <trkpt lat="42.89472" lon="-0.71782">
        <ele>1617.55542</ele>
        <time>2012-09-03T09:06:06Z</time>
      </trkpt>
      <trkpt lat="42.89463" lon="-0.71772">
        <ele>1620.920166</ele>
        <time>2012-09-03T09:06:23Z</time>
      </trkpt>
      <trkpt lat="42.89455" lon="-0.71766">
        <ele>1624.284668</ele>
        <time>2012-09-03T09:06:37Z</time>
      </trkpt>
      <trkpt lat="42.89444" lon="-0.71759">
        <ele>1626.687988</ele>
        <time>2012-09-03T09:06:54Z</time>
      </trkpt>
      <trkpt lat="42.89437" lon="-0.7175">
        <ele>1628.61084</ele>
        <time>2012-09-03T09:07:07Z</time>
      </trkpt>
      <trkpt lat="42.89432" lon="-0.71743">
        <ele>1629.091309</ele>
        <time>2012-09-03T09:07:16Z</time>
      </trkpt>
      <trkpt lat="42.89421" lon="-0.71721">
        <ele>1630.533447</ele>
        <time>2012-09-03T09:07:37Z</time>
      </trkpt>
      <trkpt lat="42.8942" lon="-0.7172">
        <ele>1630.052734</ele>
        <time>2012-09-03T09:07:38Z</time>
      </trkpt>
      <trkpt lat="42.89412" lon="-0.71702">
        <ele>1632.456055</ele>
        <time>2012-09-03T09:07:59Z</time>
      </trkpt>
      <trkpt lat="42.89411" lon="-0.71701">
        <ele>1632.456055</ele>
        <time>2012-09-03T09:08:25Z</time>
      </trkpt>
      <trkpt lat="42.89399" lon="-0.7169">
        <ele>1634.859375</ele>
        <time>2012-09-03T09:08:45Z</time>
      </trkpt>
      <trkpt lat="42.89393" lon="-0.71686">
        <ele>1637.262451</ele>
        <time>2012-09-03T09:09:01Z</time>
      </trkpt>
      <trkpt lat="42.89381" lon="-0.71675">
        <ele>1638.70459</ele>
        <time>2012-09-03T09:09:20Z</time>
      </trkpt>
      <trkpt lat="42.89368" lon="-0.71665">
        <ele>1642.069092</ele>
        <time>2012-09-03T09:09:39Z</time>
      </trkpt>
      <trkpt lat="42.89354" lon="-0.71658">
        <ele>1644.953125</ele>
        <time>2012-09-03T09:09:59Z</time>
      </trkpt>
      <trkpt lat="42.89337" lon="-0.71649">
        <ele>1647.356445</ele>
        <time>2012-09-03T09:10:22Z</time>
      </trkpt>
      <trkpt lat="42.89326" lon="-0.71636">
        <ele>1648.79834</ele>
        <time>2012-09-03T09:10:41Z</time>
      </trkpt>
      <trkpt lat="42.89316" lon="-0.7163">
        <ele>1651.682373</ele>
        <time>2012-09-03T09:10:58Z</time>
      </trkpt>
      <trkpt lat="42.89304" lon="-0.71621">
        <ele>1652.643555</ele>
        <time>2012-09-03T09:11:16Z</time>
      </trkpt>
      <trkpt lat="42.89297" lon="-0.71613">
        <ele>1654.566162</ele>
        <time>2012-09-03T09:11:34Z</time>
      </trkpt>
      <trkpt lat="42.89287" lon="-0.71608">
        <ele>1656.48877</ele>
        <time>2012-09-03T09:11:51Z</time>
      </trkpt>
      <trkpt lat="42.89277" lon="-0.716">
        <ele>1658.411377</ele>
        <time>2012-09-03T09:12:07Z</time>
      </trkpt>
      <trkpt lat="42.89271" lon="-0.71596">
        <ele>1660.334229</ele>
        <time>2012-09-03T09:12:22Z</time>
      </trkpt>
      <trkpt lat="42.89266" lon="-0.71593">
        <ele>1663.218262</ele>
        <time>2012-09-03T09:12:35Z</time>
      </trkpt>
      <trkpt lat="42.89257" lon="-0.71582">
        <ele>1663.69873</ele>
        <time>2012-09-03T09:12:53Z</time>
      </trkpt>
      <trkpt lat="42.89246" lon="-0.71569">
        <ele>1664.660156</ele>
        <time>2012-09-03T09:13:11Z</time>
      </trkpt>
      <trkpt lat="42.89237" lon="-0.71556">
        <ele>1668.024658</ele>
        <time>2012-09-03T09:13:29Z</time>
      </trkpt>
      <trkpt lat="42.89231" lon="-0.7155">
        <ele>1669.947266</ele>
        <time>2012-09-03T09:13:45Z</time>
      </trkpt>
      <trkpt lat="42.89225" lon="-0.71538">
        <ele>1671.869873</ele>
        <time>2012-09-03T09:14:01Z</time>
      </trkpt>
      <trkpt lat="42.89217" lon="-0.71529">
        <ele>1674.273193</ele>
        <time>2012-09-03T09:14:18Z</time>
      </trkpt>
      <trkpt lat="42.89219" lon="-0.71532">
        <ele>1674.273193</ele>
        <time>2012-09-03T09:15:20Z</time>
      </trkpt>
      <trkpt lat="42.89221" lon="-0.7154">
        <ele>1672.350586</ele>
        <time>2012-09-03T09:15:27Z</time>
      </trkpt>
      <trkpt lat="42.89226" lon="-0.71556">
        <ele>1673.312012</ele>
        <time>2012-09-03T09:15:42Z</time>
      </trkpt>
      <trkpt lat="42.89223" lon="-0.7156">
        <ele>1674.753906</ele>
        <time>2012-09-03T09:16:01Z</time>
      </trkpt>
      <trkpt lat="42.89217" lon="-0.71552">
        <ele>1676.676758</ele>
        <time>2012-09-03T09:16:15Z</time>
      </trkpt>
      <trkpt lat="42.89213" lon="-0.71543">
        <ele>1676.196045</ele>
        <time>2012-09-03T09:16:29Z</time>
      </trkpt>
      <trkpt lat="42.8921" lon="-0.71542">
        <ele>1677.157471</ele>
        <time>2012-09-03T09:16:44Z</time>
      </trkpt>
      <trkpt lat="42.89203" lon="-0.71533">
        <ele>1677.637939</ele>
        <time>2012-09-03T09:16:59Z</time>
      </trkpt>
      <trkpt lat="42.89192" lon="-0.71522">
        <ele>1680.04126</ele>
        <time>2012-09-03T09:17:16Z</time>
      </trkpt>
      <trkpt lat="42.89181" lon="-0.71509">
        <ele>1682.925049</ele>
        <time>2012-09-03T09:17:34Z</time>
      </trkpt>
      <trkpt lat="42.89172" lon="-0.71497">
        <ele>1685.809082</ele>
        <time>2012-09-03T09:17:50Z</time>
      </trkpt>
      <trkpt lat="42.89162" lon="-0.71483">
        <ele>1685.328369</ele>
        <time>2012-09-03T09:18:09Z</time>
      </trkpt>
      <trkpt lat="42.89154" lon="-0.71467">
        <ele>1688.212402</ele>
        <time>2012-09-03T09:18:26Z</time>
      </trkpt>
      <trkpt lat="42.89149" lon="-0.71448">
        <ele>1691.096191</ele>
        <time>2012-09-03T09:18:46Z</time>
      </trkpt>
      <trkpt lat="42.89143" lon="-0.71437">
        <ele>1692.057861</ele>
        <time>2012-09-03T09:19:01Z</time>
      </trkpt>
      <trkpt lat="42.89135" lon="-0.71416">
        <ele>1692.057861</ele>
        <time>2012-09-03T09:19:20Z</time>
      </trkpt>
      <trkpt lat="42.89134" lon="-0.71412">
        <ele>1692.538574</ele>
        <time>2012-09-03T09:19:24Z</time>
      </trkpt>
      <trkpt lat="42.89133" lon="-0.71392">
        <ele>1694.94165</ele>
        <time>2012-09-03T09:19:43Z</time>
      </trkpt>
      <trkpt lat="42.8913" lon="-0.71372">
        <ele>1697.825684</ele>
        <time>2012-09-03T09:20:01Z</time>
      </trkpt>
      <trkpt lat="42.89132" lon="-0.71356">
        <ele>1699.267578</ele>
        <time>2012-09-03T09:20:16Z</time>
      </trkpt>
      <trkpt lat="42.89133" lon="-0.71346">
        <ele>1700.709473</ele>
        <time>2012-09-03T09:20:30Z</time>
      </trkpt>
      <trkpt lat="42.89136" lon="-0.71338">
        <ele>1704.074219</ele>
        <time>2012-09-03T09:20:41Z</time>
      </trkpt>
      <trkpt lat="42.89142" lon="-0.71323">
        <ele>1707.438721</ele>
        <time>2012-09-03T09:20:59Z</time>
      </trkpt>
      <trkpt lat="42.89143" lon="-0.71319">
        <ele>1707.919434</ele>
        <time>2012-09-03T09:21:04Z</time>
      </trkpt>
      <trkpt lat="42.89146" lon="-0.71308">
        <ele>1712.245361</ele>
        <time>2012-09-03T09:21:19Z</time>
      </trkpt>
      <trkpt lat="42.89146" lon="-0.71308">
        <ele>1712.245361</ele>
        <time>2012-09-03T09:21:20Z</time>
      </trkpt>
      <trkpt lat="42.89146" lon="-0.71302">
        <ele>1714.167969</ele>
        <time>2012-09-03T09:21:27Z</time>
      </trkpt>
      <trkpt lat="42.89146" lon="-0.71295">
        <ele>1716.090576</ele>
        <time>2012-09-03T09:21:36Z</time>
      </trkpt>
      <trkpt lat="42.89146" lon="-0.71278">
        <ele>1718.013184</ele>
        <time>2012-09-03T09:21:56Z</time>
      </trkpt>
      <trkpt lat="42.89144" lon="-0.71272">
        <ele>1719.935791</ele>
        <time>2012-09-03T09:22:03Z</time>
      </trkpt>
      <trkpt lat="42.89143" lon="-0.71261">
        <ele>1722.339111</ele>
        <time>2012-09-03T09:22:20Z</time>
      </trkpt>
      <trkpt lat="42.89139" lon="-0.71252">
        <ele>1724.742676</ele>
        <time>2012-09-03T09:22:32Z</time>
      </trkpt>
      <trkpt lat="42.89132" lon="-0.71246">
        <ele>1728.587891</ele>
        <time>2012-09-03T09:22:46Z</time>
      </trkpt>
      <trkpt lat="42.89132" lon="-0.71245">
        <ele>1728.587891</ele>
        <time>2012-09-03T09:22:47Z</time>
      </trkpt>
      <trkpt lat="42.89131" lon="-0.71236">
        <ele>1731.952393</ele>
        <time>2012-09-03T09:22:56Z</time>
      </trkpt>
      <trkpt lat="42.89131" lon="-0.71236">
        <ele>1731.952393</ele>
        <time>2012-09-03T09:22:57Z</time>
      </trkpt>
      <trkpt lat="42.89126" lon="-0.71219">
        <ele>1733.394287</ele>
        <time>2012-09-03T09:23:16Z</time>
      </trkpt>
      <trkpt lat="42.89123" lon="-0.71206">
        <ele>1733.875</ele>
        <time>2012-09-03T09:23:33Z</time>
      </trkpt>
      <trkpt lat="42.8912" lon="-0.71202">
        <ele>1733.394287</ele>
        <time>2012-09-03T09:23:52Z</time>
      </trkpt>
      <trkpt lat="42.89116" lon="-0.71192">
        <ele>1734.355713</ele>
        <time>2012-09-03T09:24:06Z</time>
      </trkpt>
      <trkpt lat="42.89112" lon="-0.71188">
        <ele>1734.836426</ele>
        <time>2012-09-03T09:24:46Z</time>
      </trkpt>
      <trkpt lat="42.89102" lon="-0.71169">
        <ele>1736.758789</ele>
        <time>2012-09-03T09:25:07Z</time>
      </trkpt>
      <trkpt lat="42.89093" lon="-0.71155">
        <ele>1740.604248</ele>
        <time>2012-09-03T09:25:25Z</time>
      </trkpt>
      <trkpt lat="42.89091" lon="-0.71153">
        <ele>1741.565674</ele>
        <time>2012-09-03T09:25:30Z</time>
      </trkpt>
      <trkpt lat="42.89087" lon="-0.7115">
        <ele>1744.930176</ele>
        <time>2012-09-03T09:25:35Z</time>
      </trkpt>
      <trkpt lat="42.89085" lon="-0.71149">
        <ele>1748.775391</ele>
        <time>2012-09-03T09:25:39Z</time>
      </trkpt>
      <trkpt lat="42.89082" lon="-0.71146">
        <ele>1744.930176</ele>
        <time>2012-09-03T09:25:43Z</time>
      </trkpt>
      <trkpt lat="42.89076" lon="-0.71143">
        <ele>1744.930176</ele>
        <time>2012-09-03T09:25:51Z</time>
      </trkpt>
      <trkpt lat="42.89073" lon="-0.7114">
        <ele>1743.488281</ele>
        <time>2012-09-03T09:25:54Z</time>
      </trkpt>
      <trkpt lat="42.89059" lon="-0.71134">
        <ele>1743.968994</ele>
        <time>2012-09-03T09:26:11Z</time>
      </trkpt>
      <trkpt lat="42.89049" lon="-0.71128">
        <ele>1743.488281</ele>
        <time>2012-09-03T09:26:26Z</time>
      </trkpt>
      <trkpt lat="42.89049" lon="-0.71128">
        <ele>1746.852783</ele>
        <time>2012-09-03T09:27:54Z</time>
      </trkpt>
      <trkpt lat="42.89048" lon="-0.71128">
        <ele>1748.775391</ele>
        <time>2012-09-03T09:28:59Z</time>
      </trkpt>
      <trkpt lat="42.89036" lon="-0.71118">
        <ele>1748.775391</ele>
        <time>2012-09-03T09:29:17Z</time>
      </trkpt>
      <trkpt lat="42.89021" lon="-0.71109">
        <ele>1750.217529</ele>
        <time>2012-09-03T09:29:37Z</time>
      </trkpt>
      <trkpt lat="42.89012" lon="-0.71105">
        <ele>1752.139893</ele>
        <time>2012-09-03T09:29:51Z</time>
      </trkpt>
      <trkpt lat="42.89003" lon="-0.71101">
        <ele>1755.023926</ele>
        <time>2012-09-03T09:30:05Z</time>
      </trkpt>
      <trkpt lat="42.88997" lon="-0.71097">
        <ele>1758.388672</ele>
        <time>2012-09-03T09:30:15Z</time>
      </trkpt>
      <trkpt lat="42.8899" lon="-0.71088">
        <ele>1761.753418</ele>
        <time>2012-09-03T09:30:31Z</time>
      </trkpt>
      <trkpt lat="42.88987" lon="-0.71078">
        <ele>1765.11792</ele>
        <time>2012-09-03T09:30:44Z</time>
      </trkpt>
      <trkpt lat="42.88986" lon="-0.71078">
        <ele>1766.079102</ele>
        <time>2012-09-03T09:30:46Z</time>
      </trkpt>
      <trkpt lat="42.88977" lon="-0.71079">
        <ele>1769.443848</ele>
        <time>2012-09-03T09:31:03Z</time>
      </trkpt>
      <trkpt lat="42.88969" lon="-0.7107">
        <ele>1772.808594</ele>
        <time>2012-09-03T09:31:21Z</time>
      </trkpt>
      <trkpt lat="42.88965" lon="-0.71064">
        <ele>1775.692383</ele>
        <time>2012-09-03T09:31:31Z</time>
      </trkpt>
      <trkpt lat="42.88959" lon="-0.71057">
        <ele>1779.537598</ele>
        <time>2012-09-03T09:31:44Z</time>
      </trkpt>
      <trkpt lat="42.88953" lon="-0.71053">
        <ele>1782.9021</ele>
        <time>2012-09-03T09:31:57Z</time>
      </trkpt>
      <trkpt lat="42.88951" lon="-0.7105">
        <ele>1784.824951</ele>
        <time>2012-09-03T09:32:02Z</time>
      </trkpt>
      <trkpt lat="42.8895" lon="-0.7105">
        <ele>1780.979736</ele>
        <time>2012-09-03T09:32:04Z</time>
      </trkpt>
      <trkpt lat="42.88949" lon="-0.71051">
        <ele>1781.940918</ele>
        <time>2012-09-03T09:32:05Z</time>
      </trkpt>
      <trkpt lat="42.88948" lon="-0.71051">
        <ele>1785.30542</ele>
        <time>2012-09-03T09:32:07Z</time>
      </trkpt>
      <trkpt lat="42.88947" lon="-0.71051">
        <ele>1785.30542</ele>
        <time>2012-09-03T09:32:08Z</time>
      </trkpt>
      <trkpt lat="42.8894" lon="-0.71042">
        <ele>1789.150879</ele>
        <time>2012-09-03T09:32:26Z</time>
      </trkpt>
      <trkpt lat="42.88939" lon="-0.71041">
        <ele>1790.112305</ele>
        <time>2012-09-03T09:32:28Z</time>
      </trkpt>
      <trkpt lat="42.88937" lon="-0.71035">
        <ele>1792.996094</ele>
        <time>2012-09-03T09:32:38Z</time>
      </trkpt>
      <trkpt lat="42.88932" lon="-0.71027">
        <ele>1795.399414</ele>
        <time>2012-09-03T09:32:54Z</time>
      </trkpt>
      <trkpt lat="42.88931" lon="-0.71025">
        <ele>1798.763916</ele>
        <time>2012-09-03T09:32:58Z</time>
      </trkpt>
      <trkpt lat="42.8893" lon="-0.71018">
        <ele>1802.128418</ele>
        <time>2012-09-03T09:33:09Z</time>
      </trkpt>
      <trkpt lat="42.88928" lon="-0.71015">
        <ele>1805.973877</ele>
        <time>2012-09-03T09:33:14Z</time>
      </trkpt>
      <trkpt lat="42.88927" lon="-0.71013">
        <ele>1806.935303</ele>
        <time>2012-09-03T09:33:18Z</time>
      </trkpt>
      <trkpt lat="42.88925" lon="-0.71008">
        <ele>1806.45459</ele>
        <time>2012-09-03T09:33:25Z</time>
      </trkpt>
      <trkpt lat="42.88923" lon="-0.71005">
        <ele>1809.338623</ele>
        <time>2012-09-03T09:33:30Z</time>
      </trkpt>
      <trkpt lat="42.88915" lon="-0.70988">
        <ele>1808.85791</ele>
        <time>2012-09-03T09:33:49Z</time>
      </trkpt>
      <trkpt lat="42.88914" lon="-0.70986">
        <ele>1809.819092</ele>
        <time>2012-09-03T09:33:51Z</time>
      </trkpt>
      <trkpt lat="42.8891" lon="-0.70974">
        <ele>1812.222412</ele>
        <time>2012-09-03T09:34:10Z</time>
      </trkpt>
      <trkpt lat="42.88902" lon="-0.7097">
        <ele>1816.067627</ele>
        <time>2012-09-03T09:34:21Z</time>
      </trkpt>
      <trkpt lat="42.88894" lon="-0.70966">
        <ele>1816.067627</ele>
        <time>2012-09-03T09:34:33Z</time>
      </trkpt>
      <trkpt lat="42.88888" lon="-0.70963">
        <ele>1819.912842</ele>
        <time>2012-09-03T09:34:42Z</time>
      </trkpt>
      <trkpt lat="42.88881" lon="-0.7096">
        <ele>1816.54834</ele>
        <time>2012-09-03T09:34:53Z</time>
      </trkpt>
      <trkpt lat="42.88877" lon="-0.70956">
        <ele>1819.912842</ele>
        <time>2012-09-03T09:35:00Z</time>
      </trkpt>
      <trkpt lat="42.88868" lon="-0.70946">
        <ele>1821.835693</ele>
        <time>2012-09-03T09:35:18Z</time>
      </trkpt>
      <trkpt lat="42.88865" lon="-0.70942">
        <ele>1825.200195</ele>
        <time>2012-09-03T09:35:25Z</time>
      </trkpt>
      <trkpt lat="42.88861" lon="-0.70938">
        <ele>1828.564941</ele>
        <time>2012-09-03T09:35:35Z</time>
      </trkpt>
      <trkpt lat="42.8886" lon="-0.70936">
        <ele>1829.526123</ele>
        <time>2012-09-03T09:35:37Z</time>
      </trkpt>
      <trkpt lat="42.88859" lon="-0.70932">
        <ele>1830.006836</ele>
        <time>2012-09-03T09:35:41Z</time>
      </trkpt>
      <trkpt lat="42.88859" lon="-0.70929">
        <ele>1832.410156</ele>
        <time>2012-09-03T09:35:45Z</time>
      </trkpt>
      <trkpt lat="42.88858" lon="-0.70925">
        <ele>1837.216797</ele>
        <time>2012-09-03T09:35:49Z</time>
      </trkpt>
      <trkpt lat="42.88857" lon="-0.70924">
        <ele>1833.371338</ele>
        <time>2012-09-03T09:35:51Z</time>
      </trkpt>
      <trkpt lat="42.88856" lon="-0.70923">
        <ele>1827.123047</ele>
        <time>2012-09-03T09:35:52Z</time>
      </trkpt>
      <trkpt lat="42.88856" lon="-0.70923">
        <ele>1828.564941</ele>
        <time>2012-09-03T09:35:53Z</time>
      </trkpt>
      <trkpt lat="42.88853" lon="-0.70926">
        <ele>1832.410156</ele>
        <time>2012-09-03T09:35:58Z</time>
      </trkpt>
      <trkpt lat="42.88852" lon="-0.70927">
        <ele>1828.084229</ele>
        <time>2012-09-03T09:36:00Z</time>
      </trkpt>
      <trkpt lat="42.8885" lon="-0.70931">
        <ele>1828.564941</ele>
        <time>2012-09-03T09:36:05Z</time>
      </trkpt>
      <trkpt lat="42.88848" lon="-0.70933">
        <ele>1833.371338</ele>
        <time>2012-09-03T09:36:09Z</time>
      </trkpt>
      <trkpt lat="42.88847" lon="-0.70933">
        <ele>1835.293945</ele>
        <time>2012-09-03T09:36:11Z</time>
      </trkpt>
      <trkpt lat="42.88845" lon="-0.70928">
        <ele>1836.736084</ele>
        <time>2012-09-03T09:36:27Z</time>
      </trkpt>
      <trkpt lat="42.88845" lon="-0.7092">
        <ele>1840.10083</ele>
        <time>2012-09-03T09:36:38Z</time>
      </trkpt>
      <trkpt lat="42.88841" lon="-0.7091">
        <ele>1840.581299</ele>
        <time>2012-09-03T09:36:56Z</time>
      </trkpt>
      <trkpt lat="42.8884" lon="-0.7091">
        <ele>1840.581299</ele>
        <time>2012-09-03T09:36:57Z</time>
      </trkpt>
      <trkpt lat="42.88839" lon="-0.70912">
        <ele>1835.774658</ele>
        <time>2012-09-03T09:37:01Z</time>
      </trkpt>
      <trkpt lat="42.88838" lon="-0.70913">
        <ele>1837.69751</ele>
        <time>2012-09-03T09:37:02Z</time>
      </trkpt>
      <trkpt lat="42.88838" lon="-0.70914">
        <ele>1840.581299</ele>
        <time>2012-09-03T09:37:03Z</time>
      </trkpt>
      <trkpt lat="42.88834" lon="-0.70918">
        <ele>1844.426514</ele>
        <time>2012-09-03T09:37:12Z</time>
      </trkpt>
      <trkpt lat="42.88831" lon="-0.70921">
        <ele>1841.062012</ele>
        <time>2012-09-03T09:37:19Z</time>
      </trkpt>
      <trkpt lat="42.88831" lon="-0.70921">
        <ele>1841.542725</ele>
        <time>2012-09-03T09:37:20Z</time>
      </trkpt>
      <trkpt lat="42.88829" lon="-0.70925">
        <ele>1846.829834</ele>
        <time>2012-09-03T09:37:24Z</time>
      </trkpt>
      <trkpt lat="42.88829" lon="-0.70925">
        <ele>1846.829834</ele>
        <time>2012-09-03T09:37:25Z</time>
      </trkpt>
      <trkpt lat="42.88824" lon="-0.70931">
        <ele>1850.19458</ele>
        <time>2012-09-03T09:37:36Z</time>
      </trkpt>
      <trkpt lat="42.88823" lon="-0.70931">
        <ele>1854.040039</ele>
        <time>2012-09-03T09:37:38Z</time>
      </trkpt>
      <trkpt lat="42.88823" lon="-0.70932">
        <ele>1854.040039</ele>
        <time>2012-09-03T09:37:39Z</time>
      </trkpt>
      <trkpt lat="42.88823" lon="-0.70933">
        <ele>1850.19458</ele>
        <time>2012-09-03T09:37:41Z</time>
      </trkpt>
      <trkpt lat="42.8882" lon="-0.70937">
        <ele>1846.829834</ele>
        <time>2012-09-03T09:37:47Z</time>
      </trkpt>
      <trkpt lat="42.8882" lon="-0.70938">
        <ele>1849.713867</ele>
        <time>2012-09-03T09:37:48Z</time>
      </trkpt>
      <trkpt lat="42.88819" lon="-0.7094">
        <ele>1856.443115</ele>
        <time>2012-09-03T09:37:51Z</time>
      </trkpt>
      <trkpt lat="42.88818" lon="-0.7094">
        <ele>1855.001221</ele>
        <time>2012-09-03T09:37:52Z</time>
      </trkpt>
      <trkpt lat="42.88816" lon="-0.70929">
        <ele>1856.923828</ele>
        <time>2012-09-03T09:38:08Z</time>
      </trkpt>
      <trkpt lat="42.88817" lon="-0.70924">
        <ele>1859.807617</ele>
        <time>2012-09-03T09:38:14Z</time>
      </trkpt>
      <trkpt lat="42.88821" lon="-0.7091">
        <ele>1862.69165</ele>
        <time>2012-09-03T09:38:28Z</time>
      </trkpt>
      <trkpt lat="42.88821" lon="-0.70899">
        <ele>1865.575684</ele>
        <time>2012-09-03T09:38:39Z</time>
      </trkpt>
      <trkpt lat="42.88821" lon="-0.70895">
        <ele>1866.536865</ele>
        <time>2012-09-03T09:38:42Z</time>
      </trkpt>
      <trkpt lat="42.88821" lon="-0.70887">
        <ele>1871.343506</ele>
        <time>2012-09-03T09:38:49Z</time>
      </trkpt>
      <trkpt lat="42.88821" lon="-0.70886">
        <ele>1870.863037</ele>
        <time>2012-09-03T09:38:50Z</time>
      </trkpt>
      <trkpt lat="42.8882" lon="-0.70881">
        <ele>1867.498047</ele>
        <time>2012-09-03T09:38:55Z</time>
      </trkpt>
      <trkpt lat="42.8882" lon="-0.7088">
        <ele>1867.017578</ele>
        <time>2012-09-03T09:38:56Z</time>
      </trkpt>
      <trkpt lat="42.88819" lon="-0.70872">
        <ele>1868.94043</ele>
        <time>2012-09-03T09:39:05Z</time>
      </trkpt>
      <trkpt lat="42.88815" lon="-0.70864">
        <ele>1872.304932</ele>
        <time>2012-09-03T09:39:16Z</time>
      </trkpt>
      <trkpt lat="42.88812" lon="-0.70863">
        <ele>1868.459717</ele>
        <time>2012-09-03T09:39:20Z</time>
      </trkpt>
      <trkpt lat="42.88807" lon="-0.70859">
        <ele>1870.382324</ele>
        <time>2012-09-03T09:39:36Z</time>
      </trkpt>
      <trkpt lat="42.88807" lon="-0.70859">
        <ele>1872.304932</ele>
        <time>2012-09-03T09:39:45Z</time>
      </trkpt>
      <trkpt lat="42.88807" lon="-0.70859">
        <ele>1869.901611</ele>
        <time>2012-09-03T09:39:48Z</time>
      </trkpt>
      <trkpt lat="42.88807" lon="-0.70859">
        <ele>1873.266357</ele>
        <time>2012-09-03T09:39:50Z</time>
      </trkpt>
      <trkpt lat="42.88807" lon="-0.70859">
        <ele>1873.746826</ele>
        <time>2012-09-03T09:39:51Z</time>
      </trkpt>
      <trkpt lat="42.88807" lon="-0.70859">
        <ele>1877.111572</ele>
        <time>2012-09-03T09:39:57Z</time>
      </trkpt>
      <trkpt lat="42.88807" lon="-0.70859">
        <ele>1873.266357</ele>
        <time>2012-09-03T09:39:58Z</time>
      </trkpt>
      <trkpt lat="42.88809" lon="-0.70862">
        <ele>1879.514648</ele>
        <time>2012-09-03T09:40:07Z</time>
      </trkpt>
      <trkpt lat="42.8881" lon="-0.70862">
        <ele>1878.553467</ele>
        <time>2012-09-03T09:40:08Z</time>
      </trkpt>
      <trkpt lat="42.8881" lon="-0.70863">
        <ele>1880.956787</ele>
        <time>2012-09-03T09:40:10Z</time>
      </trkpt>
      <trkpt lat="42.8881" lon="-0.70862">
        <ele>1884.321533</ele>
        <time>2012-09-03T09:40:11Z</time>
      </trkpt>
      <trkpt lat="42.8881" lon="-0.70862">
        <ele>1879.033936</ele>
        <time>2012-09-03T09:40:14Z</time>
      </trkpt>
      <trkpt lat="42.8881" lon="-0.70862">
        <ele>1864.614258</ele>
        <time>2012-09-03T09:40:15Z</time>
      </trkpt>
      <trkpt lat="42.8881" lon="-0.70862">
        <ele>1867.97876</ele>
        <time>2012-09-03T09:40:17Z</time>
      </trkpt>
      <trkpt lat="42.8881" lon="-0.70862">
        <ele>1870.863037</ele>
        <time>2012-09-03T09:40:19Z</time>
      </trkpt>
      <trkpt lat="42.8881" lon="-0.70861">
        <ele>1872.785645</ele>
        <time>2012-09-03T09:40:21Z</time>
      </trkpt>
      <trkpt lat="42.8881" lon="-0.70861">
        <ele>1875.188721</ele>
        <time>2012-09-03T09:40:24Z</time>
      </trkpt>
      <trkpt lat="42.88809" lon="-0.70861">
        <ele>1878.553467</ele>
        <time>2012-09-03T09:40:26Z</time>
      </trkpt>
      <trkpt lat="42.88809" lon="-0.70861">
        <ele>1874.708252</ele>
        <time>2012-09-03T09:40:27Z</time>
      </trkpt>
      <trkpt lat="42.88809" lon="-0.70861">
        <ele>1870.863037</ele>
        <time>2012-09-03T09:40:28Z</time>
      </trkpt>
      <trkpt lat="42.8881" lon="-0.70862">
        <ele>1880.956787</ele>
        <time>2012-09-03T09:40:30Z</time>
      </trkpt>
      <trkpt lat="42.88811" lon="-0.70862">
        <ele>1883.840576</ele>
        <time>2012-09-03T09:40:31Z</time>
      </trkpt>
      <trkpt lat="42.88814" lon="-0.70864">
        <ele>1879.514648</ele>
        <time>2012-09-03T09:40:37Z</time>
      </trkpt>
      <trkpt lat="42.88814" lon="-0.70864">
        <ele>1861.730469</ele>
        <time>2012-09-03T09:40:38Z</time>
      </trkpt>
      <trkpt lat="42.88814" lon="-0.70864">
        <ele>1867.498047</ele>
        <time>2012-09-03T09:40:39Z</time>
      </trkpt>
      <trkpt lat="42.88814" lon="-0.70866">
        <ele>1859.327148</ele>
        <time>2012-09-03T09:40:41Z</time>
      </trkpt>
      <trkpt lat="42.88815" lon="-0.70867">
        <ele>1862.210938</ele>
        <time>2012-09-03T09:40:42Z</time>
      </trkpt>
      <trkpt lat="42.88815" lon="-0.70868">
        <ele>1866.056152</ele>
        <time>2012-09-03T09:40:44Z</time>
      </trkpt>
      <trkpt lat="42.88816" lon="-0.7087">
        <ele>1867.498047</ele>
        <time>2012-09-03T09:40:47Z</time>
      </trkpt>
      <trkpt lat="42.88816" lon="-0.7087">
        <ele>1862.69165</ele>
        <time>2012-09-03T09:40:49Z</time>
      </trkpt>
      <trkpt lat="42.88816" lon="-0.7087">
        <ele>1866.056152</ele>
        <time>2012-09-03T09:40:55Z</time>
      </trkpt>
      <trkpt lat="42.88816" lon="-0.7087">
        <ele>1860.28833</ele>
        <time>2012-09-03T09:40:58Z</time>
      </trkpt>
      <trkpt lat="42.88816" lon="-0.7087">
        <ele>1862.210938</ele>
        <time>2012-09-03T09:41:01Z</time>
      </trkpt>
      <trkpt lat="42.88816" lon="-0.7087">
        <ele>1865.094971</ele>
        <time>2012-09-03T09:41:03Z</time>
      </trkpt>
      <trkpt lat="42.88816" lon="-0.7087">
        <ele>1868.459717</ele>
        <time>2012-09-03T09:41:04Z</time>
      </trkpt>
      <trkpt lat="42.88816" lon="-0.7087">
        <ele>1872.304932</ele>
        <time>2012-09-03T09:41:06Z</time>
      </trkpt>
      <trkpt lat="42.88816" lon="-0.7087">
        <ele>1872.304932</ele>
        <time>2012-09-03T09:41:07Z</time>
      </trkpt>
      <trkpt lat="42.88812" lon="-0.70864">
        <ele>1873.266357</ele>
        <time>2012-09-03T09:41:19Z</time>
      </trkpt>
      <trkpt lat="42.88805" lon="-0.70863">
        <ele>1870.382324</ele>
        <time>2012-09-03T09:41:26Z</time>
      </trkpt>
      <trkpt lat="42.88796" lon="-0.70872">
        <ele>1870.382324</ele>
        <time>2012-09-03T09:41:44Z</time>
      </trkpt>
      <trkpt lat="42.88798" lon="-0.70873">
        <ele>1871.343506</ele>
        <time>2012-09-03T09:42:11Z</time>
      </trkpt>
      <trkpt lat="42.888" lon="-0.70873">
        <ele>1867.97876</ele>
        <time>2012-09-03T09:42:17Z</time>
      </trkpt>
      <trkpt lat="42.888" lon="-0.70873">
        <ele>1871.824219</ele>
        <time>2012-09-03T09:42:20Z</time>
      </trkpt>
      <trkpt lat="42.88801" lon="-0.70873">
        <ele>1867.97876</ele>
        <time>2012-09-03T09:42:26Z</time>
      </trkpt>
      <trkpt lat="42.88801" lon="-0.70872">
        <ele>1867.498047</ele>
        <time>2012-09-03T09:42:27Z</time>
      </trkpt>
      <trkpt lat="42.88806" lon="-0.70873">
        <ele>1871.343506</ele>
        <time>2012-09-03T09:42:45Z</time>
      </trkpt>
      <trkpt lat="42.88805" lon="-0.70873">
        <ele>1867.97876</ele>
        <time>2012-09-03T09:42:50Z</time>
      </trkpt>
      <trkpt lat="42.88805" lon="-0.70873">
        <ele>1867.017578</ele>
        <time>2012-09-03T09:42:52Z</time>
      </trkpt>
      <trkpt lat="42.88805" lon="-0.70873">
        <ele>1867.017578</ele>
        <time>2012-09-03T09:42:58Z</time>
      </trkpt>
      <trkpt lat="42.888" lon="-0.70873">
        <ele>1869.901611</ele>
        <time>2012-09-03T09:43:15Z</time>
      </trkpt>
      <trkpt lat="42.888" lon="-0.70873">
        <ele>1870.382324</ele>
        <time>2012-09-03T09:43:16Z</time>
      </trkpt>
      <trkpt lat="42.88801" lon="-0.70874">
        <ele>1868.459717</ele>
        <time>2012-09-03T09:43:21Z</time>
      </trkpt>
      <trkpt lat="42.88801" lon="-0.70874">
        <ele>1866.056152</ele>
        <time>2012-09-03T09:43:26Z</time>
      </trkpt>
      <trkpt lat="42.88805" lon="-0.70873">
        <ele>1868.94043</ele>
        <time>2012-09-03T09:43:45Z</time>
      </trkpt>
      <trkpt lat="42.88805" lon="-0.70873">
        <ele>1868.459717</ele>
        <time>2012-09-03T09:43:53Z</time>
      </trkpt>
      <trkpt lat="42.88806" lon="-0.70872">
        <ele>1870.382324</ele>
        <time>2012-09-03T09:44:29Z</time>
      </trkpt>
      <trkpt lat="42.88806" lon="-0.70873">
        <ele>1875.669434</ele>
        <time>2012-09-03T09:44:45Z</time>
      </trkpt>
      <trkpt lat="42.88805" lon="-0.70873">
        <ele>1875.669434</ele>
        <time>2012-09-03T09:44:46Z</time>
      </trkpt>
      <trkpt lat="42.88805" lon="-0.70873">
        <ele>1871.824219</ele>
        <time>2012-09-03T09:44:50Z</time>
      </trkpt>
      <trkpt lat="42.88804" lon="-0.70873">
        <ele>1875.188721</ele>
        <time>2012-09-03T09:44:52Z</time>
      </trkpt>
      <trkpt lat="42.88804" lon="-0.70873">
        <ele>1874.708252</ele>
        <time>2012-09-03T09:44:53Z</time>
      </trkpt>
      <trkpt lat="42.88804" lon="-0.70873">
        <ele>1877.111572</ele>
        <time>2012-09-03T09:44:56Z</time>
      </trkpt>
      <trkpt lat="42.88804" lon="-0.70873">
        <ele>1879.995361</ele>
        <time>2012-09-03T09:44:58Z</time>
      </trkpt>
      <trkpt lat="42.88804" lon="-0.70873">
        <ele>1877.111572</ele>
        <time>2012-09-03T09:45:01Z</time>
      </trkpt>
      <trkpt lat="42.88802" lon="-0.70877">
        <ele>1872.785645</ele>
        <time>2012-09-03T09:45:07Z</time>
      </trkpt>
      <trkpt lat="42.88801" lon="-0.70878">
        <ele>1873.266357</ele>
        <time>2012-09-03T09:45:08Z</time>
      </trkpt>
      <trkpt lat="42.888" lon="-0.7088">
        <ele>1875.188721</ele>
        <time>2012-09-03T09:45:10Z</time>
      </trkpt>
      <trkpt lat="42.88798" lon="-0.7089">
        <ele>1872.304932</ele>
        <time>2012-09-03T09:45:18Z</time>
      </trkpt>
      <trkpt lat="42.88797" lon="-0.70891">
        <ele>1873.266357</ele>
        <time>2012-09-03T09:45:19Z</time>
      </trkpt>
      <trkpt lat="42.88796" lon="-0.70897">
        <ele>1875.669434</ele>
        <time>2012-09-03T09:45:24Z</time>
      </trkpt>
      <trkpt lat="42.88796" lon="-0.70901">
        <ele>1873.746826</ele>
        <time>2012-09-03T09:45:27Z</time>
      </trkpt>
      <trkpt lat="42.88795" lon="-0.70904">
        <ele>1869.901611</ele>
        <time>2012-09-03T09:45:29Z</time>
      </trkpt>
      <trkpt lat="42.88794" lon="-0.70907">
        <ele>1862.69165</ele>
        <time>2012-09-03T09:45:31Z</time>
      </trkpt>
      <trkpt lat="42.88794" lon="-0.70908">
        <ele>1859.327148</ele>
        <time>2012-09-03T09:45:32Z</time>
      </trkpt>
      <trkpt lat="42.88794" lon="-0.70911">
        <ele>1868.94043</ele>
        <time>2012-09-03T09:45:34Z</time>
      </trkpt>
      <trkpt lat="42.88794" lon="-0.70912">
        <ele>1866.056152</ele>
        <time>2012-09-03T09:45:35Z</time>
      </trkpt>
      <trkpt lat="42.88794" lon="-0.70914">
        <ele>1870.863037</ele>
        <time>2012-09-03T09:45:36Z</time>
      </trkpt>
      <trkpt lat="42.88795" lon="-0.70917">
        <ele>1865.094971</ele>
        <time>2012-09-03T09:45:38Z</time>
      </trkpt>
      <trkpt lat="42.88795" lon="-0.70918">
        <ele>1860.28833</ele>
        <time>2012-09-03T09:45:39Z</time>
      </trkpt>
      <trkpt lat="42.88795" lon="-0.70921">
        <ele>1853.559326</ele>
        <time>2012-09-03T09:45:41Z</time>
      </trkpt>
      <trkpt lat="42.88795" lon="-0.70923">
        <ele>1859.327148</ele>
        <time>2012-09-03T09:45:42Z</time>
      </trkpt>
      <trkpt lat="42.88795" lon="-0.70925">
        <ele>1862.69165</ele>
        <time>2012-09-03T09:45:44Z</time>
      </trkpt>
      <trkpt lat="42.88796" lon="-0.70927">
        <ele>1866.536865</ele>
        <time>2012-09-03T09:45:46Z</time>
      </trkpt>
      <trkpt lat="42.88797" lon="-0.70932">
        <ele>1869.901611</ele>
        <time>2012-09-03T09:45:51Z</time>
      </trkpt>
      <trkpt lat="42.88795" lon="-0.70934">
        <ele>1876.150146</ele>
        <time>2012-09-03T09:45:54Z</time>
      </trkpt>
      <trkpt lat="42.88795" lon="-0.70934">
        <ele>1875.669434</ele>
        <time>2012-09-03T09:45:55Z</time>
      </trkpt>
      <trkpt lat="42.88787" lon="-0.70934">
        <ele>1874.708252</ele>
        <time>2012-09-03T09:46:05Z</time>
      </trkpt>
      <trkpt lat="42.88784" lon="-0.70935">
        <ele>1876.630859</ele>
        <time>2012-09-03T09:46:09Z</time>
      </trkpt>
      <trkpt lat="42.8878" lon="-0.70937">
        <ele>1879.995361</ele>
        <time>2012-09-03T09:46:15Z</time>
      </trkpt>
      <trkpt lat="42.88776" lon="-0.7094">
        <ele>1879.514648</ele>
        <time>2012-09-03T09:46:22Z</time>
      </trkpt>
      <trkpt lat="42.88771" lon="-0.70941">
        <ele>1880.956787</ele>
        <time>2012-09-03T09:46:31Z</time>
      </trkpt>
      <trkpt lat="42.88766" lon="-0.70943">
        <ele>1884.802246</ele>
        <time>2012-09-03T09:46:39Z</time>
      </trkpt>
      <trkpt lat="42.88763" lon="-0.70944">
        <ele>1885.282715</ele>
        <time>2012-09-03T09:46:44Z</time>
      </trkpt>
      <trkpt lat="42.88752" lon="-0.70947">
        <ele>1884.802246</ele>
        <time>2012-09-03T09:47:00Z</time>
      </trkpt>
      <trkpt lat="42.88751" lon="-0.70947">
        <ele>1888.166748</ele>
        <time>2012-09-03T09:47:02Z</time>
      </trkpt>
      <trkpt lat="42.8875" lon="-0.70948">
        <ele>1889.12793</ele>
        <time>2012-09-03T09:47:04Z</time>
      </trkpt>
      <trkpt lat="42.8874" lon="-0.70949">
        <ele>1887.205322</ele>
        <time>2012-09-03T09:47:20Z</time>
      </trkpt>
      <trkpt lat="42.88738" lon="-0.7095">
        <ele>1891.050537</ele>
        <time>2012-09-03T09:47:23Z</time>
      </trkpt>
      <trkpt lat="42.88737" lon="-0.7095">
        <ele>1890.569824</ele>
        <time>2012-09-03T09:47:24Z</time>
      </trkpt>
      <trkpt lat="42.88736" lon="-0.7095">
        <ele>1889.608643</ele>
        <time>2012-09-03T09:47:27Z</time>
      </trkpt>
      <trkpt lat="42.88731" lon="-0.70952">
        <ele>1891.53125</ele>
        <time>2012-09-03T09:47:35Z</time>
      </trkpt>
      <trkpt lat="42.88725" lon="-0.70951">
        <ele>1894.895752</ele>
        <time>2012-09-03T09:47:52Z</time>
      </trkpt>
      <trkpt lat="42.88723" lon="-0.7095">
        <ele>1892.492676</ele>
        <time>2012-09-03T09:47:55Z</time>
      </trkpt>
      <trkpt lat="42.88722" lon="-0.7095">
        <ele>1893.93457</ele>
        <time>2012-09-03T09:47:57Z</time>
      </trkpt>
      <trkpt lat="42.88717" lon="-0.70948">
        <ele>1893.453857</ele>
        <time>2012-09-03T09:48:06Z</time>
      </trkpt>
      <trkpt lat="42.88716" lon="-0.7095">
        <ele>1896.818359</ele>
        <time>2012-09-03T09:48:11Z</time>
      </trkpt>
      <trkpt lat="42.88713" lon="-0.7095">
        <ele>1899.702393</ele>
        <time>2012-09-03T09:48:16Z</time>
      </trkpt>
      <trkpt lat="42.88712" lon="-0.7095">
        <ele>1904.028564</ele>
        <time>2012-09-03T09:48:18Z</time>
      </trkpt>
      <trkpt lat="42.88711" lon="-0.7095">
        <ele>1901.144531</ele>
        <time>2012-09-03T09:48:19Z</time>
      </trkpt>
      <trkpt lat="42.8871" lon="-0.7095">
        <ele>1896.818359</ele>
        <time>2012-09-03T09:48:21Z</time>
      </trkpt>
      <trkpt lat="42.88708" lon="-0.70951">
        <ele>1900.18335</ele>
        <time>2012-09-03T09:48:25Z</time>
      </trkpt>
      <trkpt lat="42.88707" lon="-0.70952">
        <ele>1903.067139</ele>
        <time>2012-09-03T09:48:29Z</time>
      </trkpt>
      <trkpt lat="42.88707" lon="-0.70953">
        <ele>1904.028564</ele>
        <time>2012-09-03T09:48:31Z</time>
      </trkpt>
      <trkpt lat="42.88706" lon="-0.70953">
        <ele>1900.18335</ele>
        <time>2012-09-03T09:48:32Z</time>
      </trkpt>
      <trkpt lat="42.88706" lon="-0.70954">
        <ele>1901.144531</ele>
        <time>2012-09-03T09:48:33Z</time>
      </trkpt>
      <trkpt lat="42.88704" lon="-0.70953">
        <ele>1899.702393</ele>
        <time>2012-09-03T09:48:40Z</time>
      </trkpt>
      <trkpt lat="42.88703" lon="-0.7095">
        <ele>1903.547852</ele>
        <time>2012-09-03T09:48:43Z</time>
      </trkpt>
      <trkpt lat="42.88701" lon="-0.70949">
        <ele>1900.18335</ele>
        <time>2012-09-03T09:48:46Z</time>
      </trkpt>
      <trkpt lat="42.88701" lon="-0.70949">
        <ele>1900.18335</ele>
        <time>2012-09-03T09:48:47Z</time>
      </trkpt>
      <trkpt lat="42.88699" lon="-0.70948">
        <ele>1899.22168</ele>
        <time>2012-09-03T09:48:52Z</time>
      </trkpt>
      <trkpt lat="42.88697" lon="-0.70948">
        <ele>1901.144531</ele>
        <time>2012-09-03T09:48:56Z</time>
      </trkpt>
      <trkpt lat="42.88695" lon="-0.70948">
        <ele>1897.779785</ele>
        <time>2012-09-03T09:49:01Z</time>
      </trkpt>
      <trkpt lat="42.88694" lon="-0.70948">
        <ele>1900.18335</ele>
        <time>2012-09-03T09:49:03Z</time>
      </trkpt>
      <trkpt lat="42.88692" lon="-0.7095">
        <ele>1903.547852</ele>
        <time>2012-09-03T09:49:08Z</time>
      </trkpt>
      <trkpt lat="42.88691" lon="-0.7095">
        <ele>1906.431641</ele>
        <time>2012-09-03T09:49:11Z</time>
      </trkpt>
      <trkpt lat="42.8869" lon="-0.7095">
        <ele>1907.873779</ele>
        <time>2012-09-03T09:49:18Z</time>
      </trkpt>
      <trkpt lat="42.8869" lon="-0.7095">
        <ele>1904.028564</ele>
        <time>2012-09-03T09:49:20Z</time>
      </trkpt>
      <trkpt lat="42.88688" lon="-0.7095">
        <ele>1906.431641</ele>
        <time>2012-09-03T09:49:24Z</time>
      </trkpt>
      <trkpt lat="42.88685" lon="-0.70949">
        <ele>1909.315674</ele>
        <time>2012-09-03T09:49:30Z</time>
      </trkpt>
      <trkpt lat="42.88683" lon="-0.70948">
        <ele>1908.354248</ele>
        <time>2012-09-03T09:49:37Z</time>
      </trkpt>
      <trkpt lat="42.88683" lon="-0.7095">
        <ele>1905.470459</ele>
        <time>2012-09-03T09:49:40Z</time>
      </trkpt>
      <trkpt lat="42.88683" lon="-0.70953">
        <ele>1909.796143</ele>
        <time>2012-09-03T09:49:44Z</time>
      </trkpt>
      <trkpt lat="42.88683" lon="-0.70954">
        <ele>1909.796143</ele>
        <time>2012-09-03T09:49:45Z</time>
      </trkpt>
      <trkpt lat="42.88682" lon="-0.70957">
        <ele>1912.680176</ele>
        <time>2012-09-03T09:49:49Z</time>
      </trkpt>
      <trkpt lat="42.88679" lon="-0.7096">
        <ele>1915.083496</ele>
        <time>2012-09-03T09:49:58Z</time>
      </trkpt>
      <trkpt lat="42.88671" lon="-0.70962">
        <ele>1915.083496</ele>
        <time>2012-09-03T09:50:15Z</time>
      </trkpt>
      <trkpt lat="42.88666" lon="-0.70965">
        <ele>1918.928955</ele>
        <time>2012-09-03T09:50:27Z</time>
      </trkpt>
      <trkpt lat="42.88666" lon="-0.70964">
        <ele>1918.928955</ele>
        <time>2012-09-03T09:50:28Z</time>
      </trkpt>
      <trkpt lat="42.8866" lon="-0.70964">
        <ele>1915.564209</ele>
        <time>2012-09-03T09:50:39Z</time>
      </trkpt>
      <trkpt lat="42.88659" lon="-0.70965">
        <ele>1914.602783</ele>
        <time>2012-09-03T09:50:41Z</time>
      </trkpt>
      <trkpt lat="42.88658" lon="-0.70965">
        <ele>1917.967529</ele>
        <time>2012-09-03T09:50:44Z</time>
      </trkpt>
      <trkpt lat="42.88657" lon="-0.70967">
        <ele>1919.409668</ele>
        <time>2012-09-03T09:50:48Z</time>
      </trkpt>
      <trkpt lat="42.88656" lon="-0.70968">
        <ele>1923.254883</ele>
        <time>2012-09-03T09:50:50Z</time>
      </trkpt>
      <trkpt lat="42.88653" lon="-0.7097">
        <ele>1919.409668</ele>
        <time>2012-09-03T09:50:55Z</time>
      </trkpt>
      <trkpt lat="42.88653" lon="-0.7097">
        <ele>1919.890137</ele>
        <time>2012-09-03T09:50:56Z</time>
      </trkpt>
      <trkpt lat="42.88643" lon="-0.70973">
        <ele>1921.332031</ele>
        <time>2012-09-03T09:51:14Z</time>
      </trkpt>
      <trkpt lat="42.88642" lon="-0.70974">
        <ele>1920.851562</ele>
        <time>2012-09-03T09:51:15Z</time>
      </trkpt>
      <trkpt lat="42.8864" lon="-0.70975">
        <ele>1923.254883</ele>
        <time>2012-09-03T09:51:19Z</time>
      </trkpt>
      <trkpt lat="42.88637" lon="-0.70978">
        <ele>1924.696777</ele>
        <time>2012-09-03T09:51:28Z</time>
      </trkpt>
      <trkpt lat="42.88633" lon="-0.70978">
        <ele>1924.696777</ele>
        <time>2012-09-03T09:51:36Z</time>
      </trkpt>
      <trkpt lat="42.8863" lon="-0.70979">
        <ele>1926.138672</ele>
        <time>2012-09-03T09:51:42Z</time>
      </trkpt>
      <trkpt lat="42.88627" lon="-0.70982">
        <ele>1926.138672</ele>
        <time>2012-09-03T09:51:52Z</time>
      </trkpt>
      <trkpt lat="42.88626" lon="-0.70983">
        <ele>1921.812744</ele>
        <time>2012-09-03T09:51:53Z</time>
      </trkpt>
      <trkpt lat="42.88626" lon="-0.70983">
        <ele>1922.77417</ele>
        <time>2012-09-03T09:51:54Z</time>
      </trkpt>
      <trkpt lat="42.88625" lon="-0.70985">
        <ele>1926.619385</ele>
        <time>2012-09-03T09:51:57Z</time>
      </trkpt>
      <trkpt lat="42.88623" lon="-0.70985">
        <ele>1929.983887</ele>
        <time>2012-09-03T09:52:00Z</time>
      </trkpt>
      <trkpt lat="42.88623" lon="-0.70984">
        <ele>1934.310059</ele>
        <time>2012-09-03T09:52:02Z</time>
      </trkpt>
      <trkpt lat="42.88622" lon="-0.70984">
        <ele>1933.348633</ele>
        <time>2012-09-03T09:52:03Z</time>
      </trkpt>
      <trkpt lat="42.88616" lon="-0.70986">
        <ele>1933.829346</ele>
        <time>2012-09-03T09:52:16Z</time>
      </trkpt>
      <trkpt lat="42.8861" lon="-0.70989">
        <ele>1937.674561</ele>
        <time>2012-09-03T09:52:28Z</time>
      </trkpt>
      <trkpt lat="42.88607" lon="-0.70999">
        <ele>1938.635986</ele>
        <time>2012-09-03T09:52:42Z</time>
      </trkpt>
      <trkpt lat="42.88606" lon="-0.71001">
        <ele>1941.519775</ele>
        <time>2012-09-03T09:52:45Z</time>
      </trkpt>
      <trkpt lat="42.88606" lon="-0.71001">
        <ele>1938.635986</ele>
        <time>2012-09-03T09:52:46Z</time>
      </trkpt>
      <trkpt lat="42.88606" lon="-0.71001">
        <ele>1935.751953</ele>
        <time>2012-09-03T09:52:48Z</time>
      </trkpt>
      <trkpt lat="42.88606" lon="-0.71001">
        <ele>1941.039062</ele>
        <time>2012-09-03T09:52:51Z</time>
      </trkpt>
      <trkpt lat="42.88606" lon="-0.71001">
        <ele>1941.039062</ele>
        <time>2012-09-03T09:52:52Z</time>
      </trkpt>
      <trkpt lat="42.88606" lon="-0.71001">
        <ele>1937.193848</ele>
        <time>2012-09-03T09:52:56Z</time>
      </trkpt>
      <trkpt lat="42.88606" lon="-0.71001">
        <ele>1940.55835</ele>
        <time>2012-09-03T09:52:57Z</time>
      </trkpt>
      <trkpt lat="42.88605" lon="-0.71002">
        <ele>1941.519775</ele>
        <time>2012-09-03T09:52:59Z</time>
      </trkpt>
      <trkpt lat="42.88604" lon="-0.71006">
        <ele>1940.077881</ele>
        <time>2012-09-03T09:53:08Z</time>
      </trkpt>
      <trkpt lat="42.88604" lon="-0.71007">
        <ele>1943.442383</ele>
        <time>2012-09-03T09:53:22Z</time>
      </trkpt>
      <trkpt lat="42.88604" lon="-0.71007">
        <ele>1939.597168</ele>
        <time>2012-09-03T09:53:28Z</time>
      </trkpt>
      <trkpt lat="42.88604" lon="-0.71007">
        <ele>1942.96167</ele>
        <time>2012-09-03T09:53:32Z</time>
      </trkpt>
      <trkpt lat="42.88604" lon="-0.71007">
        <ele>1943.923096</ele>
        <time>2012-09-03T09:53:34Z</time>
      </trkpt>
      <trkpt lat="42.88605" lon="-0.71007">
        <ele>1947.287598</ele>
        <time>2012-09-03T09:53:58Z</time>
      </trkpt>
      <trkpt lat="42.88605" lon="-0.71007">
        <ele>1946.326416</ele>
        <time>2012-09-03T09:53:59Z</time>
      </trkpt>
      <trkpt lat="42.88605" lon="-0.71007">
        <ele>1942.000488</ele>
        <time>2012-09-03T09:54:01Z</time>
      </trkpt>
      <trkpt lat="42.88605" lon="-0.71007">
        <ele>1942.481201</ele>
        <time>2012-09-03T09:54:02Z</time>
      </trkpt>
      <trkpt lat="42.88605" lon="-0.71007">
        <ele>1943.442383</ele>
        <time>2012-09-03T09:54:04Z</time>
      </trkpt>
      <trkpt lat="42.88605" lon="-0.71007">
        <ele>1947.287598</ele>
        <time>2012-09-03T09:54:06Z</time>
      </trkpt>
      <trkpt lat="42.88605" lon="-0.71007">
        <ele>1946.806885</ele>
        <time>2012-09-03T09:54:07Z</time>
      </trkpt>
      <trkpt lat="42.88607" lon="-0.7102">
        <ele>1948.249023</ele>
        <time>2012-09-03T09:54:25Z</time>
      </trkpt>
      <trkpt lat="42.88608" lon="-0.71021">
        <ele>1949.210449</ele>
        <time>2012-09-03T09:54:27Z</time>
      </trkpt>
      <trkpt lat="42.88609" lon="-0.71022">
        <ele>1948.729736</ele>
        <time>2012-09-03T09:54:29Z</time>
      </trkpt>
      <trkpt lat="42.88609" lon="-0.71023">
        <ele>1951.61377</ele>
        <time>2012-09-03T09:54:31Z</time>
      </trkpt>
      <trkpt lat="42.88609" lon="-0.71023">
        <ele>1951.133057</ele>
        <time>2012-09-03T09:54:32Z</time>
      </trkpt>
      <trkpt lat="42.88611" lon="-0.71027">
        <ele>1954.978271</ele>
        <time>2012-09-03T09:54:40Z</time>
      </trkpt>
      <trkpt lat="42.88613" lon="-0.7103">
        <ele>1951.133057</ele>
        <time>2012-09-03T09:54:45Z</time>
      </trkpt>
      <trkpt lat="42.88613" lon="-0.71032">
        <ele>1948.729736</ele>
        <time>2012-09-03T09:54:48Z</time>
      </trkpt>
      <trkpt lat="42.88614" lon="-0.71033">
        <ele>1952.574951</ele>
        <time>2012-09-03T09:54:52Z</time>
      </trkpt>
      <trkpt lat="42.8862" lon="-0.71042">
        <ele>1955.458984</ele>
        <time>2012-09-03T09:55:10Z</time>
      </trkpt>
      <trkpt lat="42.88623" lon="-0.71042">
        <ele>1958.823486</ele>
        <time>2012-09-03T09:55:16Z</time>
      </trkpt>
      <trkpt lat="42.88623" lon="-0.71043">
        <ele>1958.823486</ele>
        <time>2012-09-03T09:55:17Z</time>
      </trkpt>
      <trkpt lat="42.88625" lon="-0.71047">
        <ele>1962.187988</ele>
        <time>2012-09-03T09:55:31Z</time>
      </trkpt>
      <trkpt lat="42.88627" lon="-0.71047">
        <ele>1959.304199</ele>
        <time>2012-09-03T09:55:42Z</time>
      </trkpt>
      <trkpt lat="42.88627" lon="-0.71048">
        <ele>1960.265381</ele>
        <time>2012-09-03T09:55:43Z</time>
      </trkpt>
      <trkpt lat="42.88627" lon="-0.71051">
        <ele>1963.629883</ele>
        <time>2012-09-03T09:55:52Z</time>
      </trkpt>
      <trkpt lat="42.88628" lon="-0.71053">
        <ele>1960.746094</ele>
        <time>2012-09-03T09:55:55Z</time>
      </trkpt>
      <trkpt lat="42.88629" lon="-0.71053">
        <ele>1965.552979</ele>
        <time>2012-09-03T09:55:59Z</time>
      </trkpt>
      <trkpt lat="42.88629" lon="-0.71053">
        <ele>1966.994873</ele>
        <time>2012-09-03T09:56:00Z</time>
      </trkpt>
      <trkpt lat="42.88631" lon="-0.71053">
        <ele>1962.187988</ele>
        <time>2012-09-03T09:56:03Z</time>
      </trkpt>
      <trkpt lat="42.88631" lon="-0.71053">
        <ele>1963.629883</ele>
        <time>2012-09-03T09:56:04Z</time>
      </trkpt>
      <trkpt lat="42.88631" lon="-0.71053">
        <ele>1966.51416</ele>
        <time>2012-09-03T09:56:07Z</time>
      </trkpt>
      <trkpt lat="42.88631" lon="-0.71053">
        <ele>1965.552979</ele>
        <time>2012-09-03T09:56:20Z</time>
      </trkpt>
      <trkpt lat="42.88632" lon="-0.71059">
        <ele>1967.956055</ele>
        <time>2012-09-03T09:56:37Z</time>
      </trkpt>
      <trkpt lat="42.88633" lon="-0.7106">
        <ele>1969.398193</ele>
        <time>2012-09-03T09:56:40Z</time>
      </trkpt>
      <trkpt lat="42.88635" lon="-0.71062">
        <ele>1972.281982</ele>
        <time>2012-09-03T09:56:49Z</time>
      </trkpt>
      <trkpt lat="42.88635" lon="-0.71062">
        <ele>1969.878662</ele>
        <time>2012-09-03T09:56:52Z</time>
      </trkpt>
      <trkpt lat="42.88636" lon="-0.71062">
        <ele>1973.243408</ele>
        <time>2012-09-03T09:56:58Z</time>
      </trkpt>
      <trkpt lat="42.88637" lon="-0.71065">
        <ele>1976.60791</ele>
        <time>2012-09-03T09:57:09Z</time>
      </trkpt>
      <trkpt lat="42.88637" lon="-0.71065">
        <ele>1979.010986</ele>
        <time>2012-09-03T09:57:16Z</time>
      </trkpt>
      <trkpt lat="42.88637" lon="-0.71065">
        <ele>1978.049805</ele>
        <time>2012-09-03T09:57:18Z</time>
      </trkpt>
      <trkpt lat="42.88637" lon="-0.71065">
        <ele>1979.491699</ele>
        <time>2012-09-03T09:57:21Z</time>
      </trkpt>
      <trkpt lat="42.88638" lon="-0.71065">
        <ele>1976.60791</ele>
        <time>2012-09-03T09:57:27Z</time>
      </trkpt>
      <trkpt lat="42.88638" lon="-0.71065">
        <ele>1976.60791</ele>
        <time>2012-09-03T09:57:28Z</time>
      </trkpt>
      <trkpt lat="42.88638" lon="-0.71065">
        <ele>1973.723877</ele>
        <time>2012-09-03T09:57:34Z</time>
      </trkpt>
      <trkpt lat="42.88637" lon="-0.71065">
        <ele>1973.243408</ele>
        <time>2012-09-03T09:57:35Z</time>
      </trkpt>
      <trkpt lat="42.88639" lon="-0.71067">
        <ele>1972.281982</ele>
        <time>2012-09-03T09:57:46Z</time>
      </trkpt>
      <trkpt lat="42.88639" lon="-0.71067">
        <ele>1980.934082</ele>
        <time>2012-09-03T09:57:50Z</time>
      </trkpt>
      <trkpt lat="42.88639" lon="-0.71067">
        <ele>1979.010986</ele>
        <time>2012-09-03T09:57:51Z</time>
      </trkpt>
      <trkpt lat="42.88639" lon="-0.71068">
        <ele>1980.934082</ele>
        <time>2012-09-03T09:57:55Z</time>
      </trkpt>
      <trkpt lat="42.88639" lon="-0.71067">
        <ele>1969.878662</ele>
        <time>2012-09-03T09:57:57Z</time>
      </trkpt>
      <trkpt lat="42.88639" lon="-0.71068">
        <ele>1973.243408</ele>
        <time>2012-09-03T09:57:58Z</time>
      </trkpt>
      <trkpt lat="42.88639" lon="-0.71069">
        <ele>1966.033447</ele>
        <time>2012-09-03T09:58:00Z</time>
      </trkpt>
      <trkpt lat="42.88639" lon="-0.7107">
        <ele>1967.475342</ele>
        <time>2012-09-03T09:58:01Z</time>
      </trkpt>
      <trkpt lat="42.8864" lon="-0.71071">
        <ele>1971.80127</ele>
        <time>2012-09-03T09:58:04Z</time>
      </trkpt>
      <trkpt lat="42.88641" lon="-0.71074">
        <ele>1974.685303</ele>
        <time>2012-09-03T09:58:08Z</time>
      </trkpt>
      <trkpt lat="42.88642" lon="-0.71078">
        <ele>1978.049805</ele>
        <time>2012-09-03T09:58:12Z</time>
      </trkpt>
      <trkpt lat="42.88642" lon="-0.71078">
        <ele>1976.60791</ele>
        <time>2012-09-03T09:58:13Z</time>
      </trkpt>
      <trkpt lat="42.88644" lon="-0.71083">
        <ele>1981.414551</ele>
        <time>2012-09-03T09:58:19Z</time>
      </trkpt>
      <trkpt lat="42.88646" lon="-0.71091">
        <ele>1982.856445</ele>
        <time>2012-09-03T09:58:29Z</time>
      </trkpt>
      <trkpt lat="42.88647" lon="-0.71093">
        <ele>1981.414551</ele>
        <time>2012-09-03T09:58:34Z</time>
      </trkpt>
      <trkpt lat="42.88649" lon="-0.71096">
        <ele>1980.934082</ele>
        <time>2012-09-03T09:58:42Z</time>
      </trkpt>
      <trkpt lat="42.88649" lon="-0.71097">
        <ele>1974.20459</ele>
        <time>2012-09-03T09:58:43Z</time>
      </trkpt>
      <trkpt lat="42.88649" lon="-0.71098">
        <ele>1977.569092</ele>
        <time>2012-09-03T09:58:45Z</time>
      </trkpt>
      <trkpt lat="42.8865" lon="-0.71098">
        <ele>1976.127197</ele>
        <time>2012-09-03T09:58:46Z</time>
      </trkpt>
      <trkpt lat="42.88651" lon="-0.71101">
        <ele>1981.895264</ele>
        <time>2012-09-03T09:58:50Z</time>
      </trkpt>
      <trkpt lat="42.88651" lon="-0.71102">
        <ele>1981.895264</ele>
        <time>2012-09-03T09:58:51Z</time>
      </trkpt>
      <trkpt lat="42.88652" lon="-0.71103">
        <ele>1977.088623</ele>
        <time>2012-09-03T09:58:53Z</time>
      </trkpt>
      <trkpt lat="42.88652" lon="-0.71104">
        <ele>1978.530518</ele>
        <time>2012-09-03T09:58:54Z</time>
      </trkpt>
      <trkpt lat="42.88652" lon="-0.71104">
        <ele>1988.624512</ele>
        <time>2012-09-03T09:58:56Z</time>
      </trkpt>
      <trkpt lat="42.88652" lon="-0.71104">
        <ele>1988.624512</ele>
        <time>2012-09-03T09:58:57Z</time>
      </trkpt>
      <trkpt lat="42.88652" lon="-0.71104">
        <ele>1979.972412</ele>
        <time>2012-09-03T09:58:59Z</time>
      </trkpt>
      <trkpt lat="42.88652" lon="-0.71105">
        <ele>1980.453369</ele>
        <time>2012-09-03T09:59:00Z</time>
      </trkpt>
      <trkpt lat="42.88653" lon="-0.7111">
        <ele>1983.817871</ele>
        <time>2012-09-03T09:59:08Z</time>
      </trkpt>
      <trkpt lat="42.88653" lon="-0.71115">
        <ele>1998.718262</ele>
        <time>2012-09-03T09:59:15Z</time>
      </trkpt>
      <trkpt lat="42.88653" lon="-0.71115">
        <ele>1996.795654</ele>
        <time>2012-09-03T09:59:16Z</time>
      </trkpt>
      <trkpt lat="42.88653" lon="-0.71114">
        <ele>2004.486084</ele>
        <time>2012-09-03T09:59:19Z</time>
      </trkpt>
      <trkpt lat="42.88653" lon="-0.71115">
        <ele>2002.082764</ele>
        <time>2012-09-03T09:59:20Z</time>
      </trkpt>
      <trkpt lat="42.88653" lon="-0.71115">
        <ele>1998.718262</ele>
        <time>2012-09-03T09:59:22Z</time>
      </trkpt>
      <trkpt lat="42.88653" lon="-0.71114">
        <ele>2002.082764</ele>
        <time>2012-09-03T09:59:23Z</time>
      </trkpt>
      <trkpt lat="42.88653" lon="-0.71113">
        <ele>1998.237549</ele>
        <time>2012-09-03T09:59:27Z</time>
      </trkpt>
      <trkpt lat="42.88653" lon="-0.71112">
        <ele>2004.005615</ele>
        <time>2012-09-03T09:59:29Z</time>
      </trkpt>
      <trkpt lat="42.88653" lon="-0.71112">
        <ele>1998.718262</ele>
        <time>2012-09-03T09:59:30Z</time>
      </trkpt>
      <trkpt lat="42.88653" lon="-0.71112">
        <ele>1986.70166</ele>
        <time>2012-09-03T09:59:32Z</time>
      </trkpt>
      <trkpt lat="42.88653" lon="-0.71112">
        <ele>1979.010986</ele>
        <time>2012-09-03T09:59:33Z</time>
      </trkpt>
      <trkpt lat="42.88653" lon="-0.71112">
        <ele>1979.491699</ele>
        <time>2012-09-03T09:59:34Z</time>
      </trkpt>
      <trkpt lat="42.88653" lon="-0.71113">
        <ele>1983.337158</ele>
        <time>2012-09-03T09:59:35Z</time>
      </trkpt>
      <trkpt lat="42.88653" lon="-0.71113">
        <ele>1980.453369</ele>
        <time>2012-09-03T09:59:36Z</time>
      </trkpt>
      <trkpt lat="42.88653" lon="-0.71115">
        <ele>1976.60791</ele>
        <time>2012-09-03T09:59:38Z</time>
      </trkpt>
      <trkpt lat="42.88653" lon="-0.71116">
        <ele>1977.088623</ele>
        <time>2012-09-03T09:59:39Z</time>
      </trkpt>
      <trkpt lat="42.88653" lon="-0.71117">
        <ele>1982.856445</ele>
        <time>2012-09-03T09:59:40Z</time>
      </trkpt>
      <trkpt lat="42.88653" lon="-0.71122">
        <ele>1977.088623</ele>
        <time>2012-09-03T09:59:47Z</time>
      </trkpt>
      <trkpt lat="42.88654" lon="-0.71124">
        <ele>1987.663086</ele>
        <time>2012-09-03T09:59:49Z</time>
      </trkpt>
      <trkpt lat="42.88654" lon="-0.71124">
        <ele>1980.453369</ele>
        <time>2012-09-03T09:59:50Z</time>
      </trkpt>
      <trkpt lat="42.88654" lon="-0.71125">
        <ele>1985.740479</ele>
        <time>2012-09-03T09:59:51Z</time>
      </trkpt>
      <trkpt lat="42.88654" lon="-0.71126">
        <ele>1990.546875</ele>
        <time>2012-09-03T09:59:52Z</time>
      </trkpt>
      <trkpt lat="42.88654" lon="-0.71127">
        <ele>1990.546875</ele>
        <time>2012-09-03T09:59:53Z</time>
      </trkpt>
      <trkpt lat="42.88654" lon="-0.71127">
        <ele>1983.817871</ele>
        <time>2012-09-03T09:59:54Z</time>
      </trkpt>
      <trkpt lat="42.88654" lon="-0.71128">
        <ele>1989.585693</ele>
        <time>2012-09-03T09:59:55Z</time>
      </trkpt>
      <trkpt lat="42.88654" lon="-0.71128">
        <ele>1993.430908</ele>
        <time>2012-09-03T09:59:56Z</time>
      </trkpt>
      <trkpt lat="42.88654" lon="-0.71129">
        <ele>1985.259766</ele>
        <time>2012-09-03T09:59:57Z</time>
      </trkpt>
      <trkpt lat="42.88654" lon="-0.71129">
        <ele>1991.027588</ele>
        <time>2012-09-03T09:59:58Z</time>
      </trkpt>
      <trkpt lat="42.88654" lon="-0.71131">
        <ele>1996.315186</ele>
        <time>2012-09-03T10:00:01Z</time>
      </trkpt>
      <trkpt lat="42.88654" lon="-0.71133">
        <ele>2001.602295</ele>
        <time>2012-09-03T10:00:03Z</time>
      </trkpt>
      <trkpt lat="42.88654" lon="-0.71136">
        <ele>1994.39209</ele>
        <time>2012-09-03T10:00:06Z</time>
      </trkpt>
      <trkpt lat="42.88654" lon="-0.71137">
        <ele>1988.143799</ele>
        <time>2012-09-03T10:00:07Z</time>
      </trkpt>
      <trkpt lat="42.88654" lon="-0.71138">
        <ele>1989.10498</ele>
        <time>2012-09-03T10:00:08Z</time>
      </trkpt>
      <trkpt lat="42.88655" lon="-0.71141">
        <ele>1985.740479</ele>
        <time>2012-09-03T10:00:11Z</time>
      </trkpt>
      <trkpt lat="42.88655" lon="-0.71142">
        <ele>1990.066406</ele>
        <time>2012-09-03T10:00:12Z</time>
      </trkpt>
      <trkpt lat="42.88655" lon="-0.71144">
        <ele>1994.39209</ele>
        <time>2012-09-03T10:00:14Z</time>
      </trkpt>
      <trkpt lat="42.88655" lon="-0.71145">
        <ele>1994.39209</ele>
        <time>2012-09-03T10:00:15Z</time>
      </trkpt>
      <trkpt lat="42.88656" lon="-0.71148">
        <ele>1997.75708</ele>
        <time>2012-09-03T10:00:18Z</time>
      </trkpt>
      <trkpt lat="42.88656" lon="-0.71151">
        <ele>1992.950195</ele>
        <time>2012-09-03T10:00:22Z</time>
      </trkpt>
      <trkpt lat="42.88656" lon="-0.71152">
        <ele>1992.469727</ele>
        <time>2012-09-03T10:00:23Z</time>
      </trkpt>
      <trkpt lat="42.88656" lon="-0.71155">
        <ele>1988.624512</ele>
        <time>2012-09-03T10:00:26Z</time>
      </trkpt>
      <trkpt lat="42.88657" lon="-0.71158">
        <ele>1991.989014</ele>
        <time>2012-09-03T10:00:29Z</time>
      </trkpt>
      <trkpt lat="42.88657" lon="-0.71159">
        <ele>1999.679688</ele>
        <time>2012-09-03T10:00:30Z</time>
      </trkpt>
      <trkpt lat="42.88657" lon="-0.7116">
        <ele>1988.624512</ele>
        <time>2012-09-03T10:00:32Z</time>
      </trkpt>
      <trkpt lat="42.88657" lon="-0.71161">
        <ele>1985.259766</ele>
        <time>2012-09-03T10:00:33Z</time>
      </trkpt>
      <trkpt lat="42.88657" lon="-0.71161">
        <ele>1988.624512</ele>
        <time>2012-09-03T10:00:34Z</time>
      </trkpt>
      <trkpt lat="42.88658" lon="-0.71162">
        <ele>1984.779297</ele>
        <time>2012-09-03T10:00:36Z</time>
      </trkpt>
      <trkpt lat="42.88658" lon="-0.71163">
        <ele>1987.182373</ele>
        <time>2012-09-03T10:00:37Z</time>
      </trkpt>
      <trkpt lat="42.88658" lon="-0.71164">
        <ele>1991.027588</ele>
        <time>2012-09-03T10:00:38Z</time>
      </trkpt>
      <trkpt lat="42.88658" lon="-0.71165">
        <ele>1990.066406</ele>
        <time>2012-09-03T10:00:39Z</time>
      </trkpt>
      <trkpt lat="42.88658" lon="-0.71167">
        <ele>1984.779297</ele>
        <time>2012-09-03T10:00:41Z</time>
      </trkpt>
      <trkpt lat="42.88659" lon="-0.71168">
        <ele>1985.259766</ele>
        <time>2012-09-03T10:00:42Z</time>
      </trkpt>
      <trkpt lat="42.88659" lon="-0.71169">
        <ele>1991.027588</ele>
        <time>2012-09-03T10:00:44Z</time>
      </trkpt>
      <trkpt lat="42.88659" lon="-0.7117">
        <ele>1991.989014</ele>
        <time>2012-09-03T10:00:46Z</time>
      </trkpt>
      <trkpt lat="42.88662" lon="-0.71172">
        <ele>1986.70166</ele>
        <time>2012-09-03T10:00:52Z</time>
      </trkpt>
      <trkpt lat="42.88662" lon="-0.71173">
        <ele>1986.221191</ele>
        <time>2012-09-03T10:00:53Z</time>
      </trkpt>
      <trkpt lat="42.88662" lon="-0.71173">
        <ele>1991.027588</ele>
        <time>2012-09-03T10:00:54Z</time>
      </trkpt>
      <trkpt lat="42.88663" lon="-0.71173">
        <ele>1987.663086</ele>
        <time>2012-09-03T10:00:55Z</time>
      </trkpt>
      <trkpt lat="42.88663" lon="-0.71174">
        <ele>1991.989014</ele>
        <time>2012-09-03T10:00:57Z</time>
      </trkpt>
      <trkpt lat="42.88663" lon="-0.71176">
        <ele>1987.663086</ele>
        <time>2012-09-03T10:01:04Z</time>
      </trkpt>
      <trkpt lat="42.88663" lon="-0.71177">
        <ele>1989.10498</ele>
        <time>2012-09-03T10:01:05Z</time>
      </trkpt>
      <trkpt lat="42.88664" lon="-0.71179">
        <ele>1992.469727</ele>
        <time>2012-09-03T10:01:08Z</time>
      </trkpt>
      <trkpt lat="42.88665" lon="-0.71181">
        <ele>1994.39209</ele>
        <time>2012-09-03T10:01:10Z</time>
      </trkpt>
      <trkpt lat="42.88666" lon="-0.71182">
        <ele>1990.066406</ele>
        <time>2012-09-03T10:01:11Z</time>
      </trkpt>
      <trkpt lat="42.88666" lon="-0.71183">
        <ele>1991.508301</ele>
        <time>2012-09-03T10:01:12Z</time>
      </trkpt>
      <trkpt lat="42.88667" lon="-0.71184">
        <ele>1993.430908</ele>
        <time>2012-09-03T10:01:14Z</time>
      </trkpt>
      <trkpt lat="42.88667" lon="-0.71186">
        <ele>1992.950195</ele>
        <time>2012-09-03T10:01:16Z</time>
      </trkpt>
      <trkpt lat="42.88668" lon="-0.71191">
        <ele>1991.027588</ele>
        <time>2012-09-03T10:01:22Z</time>
      </trkpt>
      <trkpt lat="42.88668" lon="-0.71195">
        <ele>1992.950195</ele>
        <time>2012-09-03T10:01:25Z</time>
      </trkpt>
      <trkpt lat="42.88668" lon="-0.71198">
        <ele>1989.10498</ele>
        <time>2012-09-03T10:01:28Z</time>
      </trkpt>
      <trkpt lat="42.88668" lon="-0.71199">
        <ele>1989.10498</ele>
        <time>2012-09-03T10:01:29Z</time>
      </trkpt>
      <trkpt lat="42.88668" lon="-0.71203">
        <ele>1992.950195</ele>
        <time>2012-09-03T10:01:32Z</time>
      </trkpt>
      <trkpt lat="42.88668" lon="-0.71204">
        <ele>1992.469727</ele>
        <time>2012-09-03T10:01:33Z</time>
      </trkpt>
      <trkpt lat="42.88666" lon="-0.71213">
        <ele>1997.276367</ele>
        <time>2012-09-03T10:01:42Z</time>
      </trkpt>
      <trkpt lat="42.88665" lon="-0.71214">
        <ele>1996.795654</ele>
        <time>2012-09-03T10:01:43Z</time>
      </trkpt>
      <trkpt lat="42.88665" lon="-0.71215">
        <ele>1993.430908</ele>
        <time>2012-09-03T10:01:45Z</time>
      </trkpt>
      <trkpt lat="42.88665" lon="-0.71215">
        <ele>1991.989014</ele>
        <time>2012-09-03T10:01:47Z</time>
      </trkpt>
      <trkpt lat="42.88664" lon="-0.71219">
        <ele>1995.353516</ele>
        <time>2012-09-03T10:01:57Z</time>
      </trkpt>
      <trkpt lat="42.88664" lon="-0.71219">
        <ele>1999.198975</ele>
        <time>2012-09-03T10:02:00Z</time>
      </trkpt>
      <trkpt lat="42.88664" lon="-0.7122">
        <ele>2002.563477</ele>
        <time>2012-09-03T10:02:01Z</time>
      </trkpt>
      <trkpt lat="42.88664" lon="-0.7122">
        <ele>2000.1604</ele>
        <time>2012-09-03T10:02:02Z</time>
      </trkpt>
      <trkpt lat="42.88664" lon="-0.7122">
        <ele>2003.524902</ele>
        <time>2012-09-03T10:02:04Z</time>
      </trkpt>
      <trkpt lat="42.88664" lon="-0.71221">
        <ele>2004.486084</ele>
        <time>2012-09-03T10:02:06Z</time>
      </trkpt>
      <trkpt lat="42.88664" lon="-0.71224">
        <ele>2000.640869</ele>
        <time>2012-09-03T10:02:09Z</time>
      </trkpt>
      <trkpt lat="42.88664" lon="-0.71226">
        <ele>1996.795654</ele>
        <time>2012-09-03T10:02:11Z</time>
      </trkpt>
      <trkpt lat="42.88664" lon="-0.71227">
        <ele>1996.795654</ele>
        <time>2012-09-03T10:02:12Z</time>
      </trkpt>
      <trkpt lat="42.88662" lon="-0.71239">
        <ele>1991.989014</ele>
        <time>2012-09-03T10:02:21Z</time>
      </trkpt>
      <trkpt lat="42.88662" lon="-0.7124">
        <ele>1992.469727</ele>
        <time>2012-09-03T10:02:22Z</time>
      </trkpt>
      <trkpt lat="42.88661" lon="-0.71247">
        <ele>1995.834229</ele>
        <time>2012-09-03T10:02:27Z</time>
      </trkpt>
      <trkpt lat="42.8866" lon="-0.71254">
        <ele>1999.679688</ele>
        <time>2012-09-03T10:02:32Z</time>
      </trkpt>
      <trkpt lat="42.8866" lon="-0.71255">
        <ele>1996.315186</ele>
        <time>2012-09-03T10:02:33Z</time>
      </trkpt>
      <trkpt lat="42.88659" lon="-0.71257">
        <ele>1991.508301</ele>
        <time>2012-09-03T10:02:35Z</time>
      </trkpt>
      <trkpt lat="42.88659" lon="-0.71259">
        <ele>1990.546875</ele>
        <time>2012-09-03T10:02:37Z</time>
      </trkpt>
      <trkpt lat="42.88658" lon="-0.7126">
        <ele>2005.927979</ele>
        <time>2012-09-03T10:02:38Z</time>
      </trkpt>
      <trkpt lat="42.88658" lon="-0.7126">
        <ele>1997.276367</ele>
        <time>2012-09-03T10:02:39Z</time>
      </trkpt>
      <trkpt lat="42.88658" lon="-0.71261">
        <ele>1994.39209</ele>
        <time>2012-09-03T10:02:40Z</time>
      </trkpt>
      <trkpt lat="42.88657" lon="-0.71264">
        <ele>2001.602295</ele>
        <time>2012-09-03T10:02:43Z</time>
      </trkpt>
      <trkpt lat="42.88657" lon="-0.71265">
        <ele>1993.430908</ele>
        <time>2012-09-03T10:02:45Z</time>
      </trkpt>
      <trkpt lat="42.88657" lon="-0.71267">
        <ele>1985.740479</ele>
        <time>2012-09-03T10:02:47Z</time>
      </trkpt>
      <trkpt lat="42.88657" lon="-0.7127">
        <ele>1990.066406</ele>
        <time>2012-09-03T10:02:50Z</time>
      </trkpt>
      <trkpt lat="42.88657" lon="-0.71272">
        <ele>1990.546875</ele>
        <time>2012-09-03T10:02:51Z</time>
      </trkpt>
      <trkpt lat="42.88657" lon="-0.71274">
        <ele>1995.353516</ele>
        <time>2012-09-03T10:02:53Z</time>
      </trkpt>
      <trkpt lat="42.88655" lon="-0.71278">
        <ele>1997.75708</ele>
        <time>2012-09-03T10:02:56Z</time>
      </trkpt>
      <trkpt lat="42.88655" lon="-0.71281">
        <ele>1997.276367</ele>
        <time>2012-09-03T10:02:58Z</time>
      </trkpt>
      <trkpt lat="42.88654" lon="-0.71283">
        <ele>2003.044189</ele>
        <time>2012-09-03T10:03:00Z</time>
      </trkpt>
      <trkpt lat="42.88653" lon="-0.71286">
        <ele>2005.927979</ele>
        <time>2012-09-03T10:03:02Z</time>
      </trkpt>
      <trkpt lat="42.88653" lon="-0.71288">
        <ele>2005.44751</ele>
        <time>2012-09-03T10:03:03Z</time>
      </trkpt>
      <trkpt lat="42.88653" lon="-0.71291">
        <ele>2008.812012</ele>
        <time>2012-09-03T10:03:05Z</time>
      </trkpt>
      <trkpt lat="42.88651" lon="-0.71298">
        <ele>2016.021973</ele>
        <time>2012-09-03T10:03:10Z</time>
      </trkpt>
      <trkpt lat="42.88651" lon="-0.71301">
        <ele>2017.463867</ele>
        <time>2012-09-03T10:03:12Z</time>
      </trkpt>
      <trkpt lat="42.88649" lon="-0.71303">
        <ele>2014.099365</ele>
        <time>2012-09-03T10:03:14Z</time>
      </trkpt>
      <trkpt lat="42.88646" lon="-0.71309">
        <ele>2013.138184</ele>
        <time>2012-09-03T10:03:20Z</time>
      </trkpt>
      <trkpt lat="42.88646" lon="-0.7131">
        <ele>2009.773193</ele>
        <time>2012-09-03T10:03:21Z</time>
      </trkpt>
      <trkpt lat="42.88646" lon="-0.71311">
        <ele>2013.138184</ele>
        <time>2012-09-03T10:03:25Z</time>
      </trkpt>
      <trkpt lat="42.88646" lon="-0.71312">
        <ele>2011.696045</ele>
        <time>2012-09-03T10:03:26Z</time>
      </trkpt>
      <trkpt lat="42.88646" lon="-0.71313">
        <ele>2005.927979</ele>
        <time>2012-09-03T10:03:27Z</time>
      </trkpt>
      <trkpt lat="42.88646" lon="-0.71318">
        <ele>2009.292725</ele>
        <time>2012-09-03T10:03:30Z</time>
      </trkpt>
      <trkpt lat="42.88646" lon="-0.71319">
        <ele>2012.657471</ele>
        <time>2012-09-03T10:03:31Z</time>
      </trkpt>
      <trkpt lat="42.88646" lon="-0.7132">
        <ele>2010.734619</ele>
        <time>2012-09-03T10:03:32Z</time>
      </trkpt>
      <trkpt lat="42.88645" lon="-0.71323">
        <ele>2009.773193</ele>
        <time>2012-09-03T10:03:34Z</time>
      </trkpt>
      <trkpt lat="42.88645" lon="-0.71326">
        <ele>2006.408691</ele>
        <time>2012-09-03T10:03:36Z</time>
      </trkpt>
      <trkpt lat="42.88644" lon="-0.71332">
        <ele>2006.408691</ele>
        <time>2012-09-03T10:03:40Z</time>
      </trkpt>
      <trkpt lat="42.88642" lon="-0.71343">
        <ele>2009.292725</ele>
        <time>2012-09-03T10:03:48Z</time>
      </trkpt>
      <trkpt lat="42.88642" lon="-0.71345">
        <ele>2015.060791</ele>
        <time>2012-09-03T10:03:49Z</time>
      </trkpt>
      <trkpt lat="42.88641" lon="-0.71346">
        <ele>2013.618652</ele>
        <time>2012-09-03T10:03:50Z</time>
      </trkpt>
      <trkpt lat="42.88641" lon="-0.71347">
        <ele>2013.138184</ele>
        <time>2012-09-03T10:03:51Z</time>
      </trkpt>
      <trkpt lat="42.88641" lon="-0.7135">
        <ele>2011.696045</ele>
        <time>2012-09-03T10:03:53Z</time>
      </trkpt>
      <trkpt lat="42.8864" lon="-0.71353">
        <ele>2015.541504</ele>
        <time>2012-09-03T10:03:55Z</time>
      </trkpt>
      <trkpt lat="42.88638" lon="-0.71364">
        <ele>2012.176758</ele>
        <time>2012-09-03T10:04:02Z</time>
      </trkpt>
      <trkpt lat="42.88638" lon="-0.71367">
        <ele>2008.812012</ele>
        <time>2012-09-03T10:04:04Z</time>
      </trkpt>
      <trkpt lat="42.88638" lon="-0.71369">
        <ele>2008.331299</ele>
        <time>2012-09-03T10:04:05Z</time>
      </trkpt>
      <trkpt lat="42.88637" lon="-0.71372">
        <ele>2006.408691</ele>
        <time>2012-09-03T10:04:07Z</time>
      </trkpt>
      <trkpt lat="42.88637" lon="-0.71374">
        <ele>2007.85083</ele>
        <time>2012-09-03T10:04:08Z</time>
      </trkpt>
      <trkpt lat="42.88636" lon="-0.71376">
        <ele>2010.734619</ele>
        <time>2012-09-03T10:04:10Z</time>
      </trkpt>
      <trkpt lat="42.88636" lon="-0.71379">
        <ele>2015.541504</ele>
        <time>2012-09-03T10:04:12Z</time>
      </trkpt>
      <trkpt lat="42.88636" lon="-0.7138">
        <ele>2014.099365</ele>
        <time>2012-09-03T10:04:13Z</time>
      </trkpt>
      <trkpt lat="42.88635" lon="-0.71383">
        <ele>2019.867188</ele>
        <time>2012-09-03T10:04:15Z</time>
      </trkpt>
      <trkpt lat="42.88635" lon="-0.71386">
        <ele>2022.270508</ele>
        <time>2012-09-03T10:04:17Z</time>
      </trkpt>
      <trkpt lat="42.88635" lon="-0.71388">
        <ele>2025.63501</ele>
        <time>2012-09-03T10:04:18Z</time>
      </trkpt>
      <trkpt lat="42.88634" lon="-0.71391">
        <ele>2028.038574</ele>
        <time>2012-09-03T10:04:20Z</time>
      </trkpt>
      <trkpt lat="42.88634" lon="-0.71392">
        <ele>2024.193115</ele>
        <time>2012-09-03T10:04:21Z</time>
      </trkpt>
      <trkpt lat="42.88633" lon="-0.71395">
        <ele>2031.403076</ele>
        <time>2012-09-03T10:04:23Z</time>
      </trkpt>
      <trkpt lat="42.88633" lon="-0.71397">
        <ele>2034.767822</ele>
        <time>2012-09-03T10:04:24Z</time>
      </trkpt>
      <trkpt lat="42.88633" lon="-0.71398">
        <ele>2041.977539</ele>
        <time>2012-09-03T10:04:25Z</time>
      </trkpt>
      <trkpt lat="42.88632" lon="-0.71399">
        <ele>2040.054932</ele>
        <time>2012-09-03T10:04:26Z</time>
      </trkpt>
      <trkpt lat="42.8863" lon="-0.71402">
        <ele>2035.729004</ele>
        <time>2012-09-03T10:04:29Z</time>
      </trkpt>
      <trkpt lat="42.88629" lon="-0.71403">
        <ele>2032.844971</ele>
        <time>2012-09-03T10:04:30Z</time>
      </trkpt>
      <trkpt lat="42.88628" lon="-0.71404">
        <ele>2025.63501</ele>
        <time>2012-09-03T10:04:31Z</time>
      </trkpt>
      <trkpt lat="42.88626" lon="-0.71405">
        <ele>2023.231934</ele>
        <time>2012-09-03T10:04:33Z</time>
      </trkpt>
      <trkpt lat="42.88626" lon="-0.71406">
        <ele>2018.906006</ele>
        <time>2012-09-03T10:04:34Z</time>
      </trkpt>
      <trkpt lat="42.88625" lon="-0.71407">
        <ele>2023.712402</ele>
        <time>2012-09-03T10:04:35Z</time>
      </trkpt>
      <trkpt lat="42.88623" lon="-0.71408">
        <ele>2016.021973</ele>
        <time>2012-09-03T10:04:37Z</time>
      </trkpt>
      <trkpt lat="42.88623" lon="-0.71408">
        <ele>2016.502686</ele>
        <time>2012-09-03T10:04:38Z</time>
      </trkpt>
      <trkpt lat="42.88622" lon="-0.7141">
        <ele>2017.94458</ele>
        <time>2012-09-03T10:04:40Z</time>
      </trkpt>
      <trkpt lat="42.88621" lon="-0.71413">
        <ele>2015.060791</ele>
        <time>2012-09-03T10:04:42Z</time>
      </trkpt>
      <trkpt lat="42.8862" lon="-0.71414">
        <ele>2011.215332</ele>
        <time>2012-09-03T10:04:44Z</time>
      </trkpt>
      <trkpt lat="42.88619" lon="-0.71415">
        <ele>2006.889404</ele>
        <time>2012-09-03T10:04:45Z</time>
      </trkpt>
      <trkpt lat="42.88619" lon="-0.71415">
        <ele>2007.85083</ele>
        <time>2012-09-03T10:04:46Z</time>
      </trkpt>
      <trkpt lat="42.88617" lon="-0.71418">
        <ele>2003.044189</ele>
        <time>2012-09-03T10:04:52Z</time>
      </trkpt>
      <trkpt lat="42.88616" lon="-0.71423">
        <ele>2004.005615</ele>
        <time>2012-09-03T10:05:05Z</time>
      </trkpt>
      <trkpt lat="42.88617" lon="-0.71423">
        <ele>2006.889404</ele>
        <time>2012-09-03T10:05:24Z</time>
      </trkpt>
      <trkpt lat="42.88617" lon="-0.71423">
        <ele>2001.121582</ele>
        <time>2012-09-03T10:05:26Z</time>
      </trkpt>
      <trkpt lat="42.88617" lon="-0.71423">
        <ele>2001.602295</ele>
        <time>2012-09-03T10:05:27Z</time>
      </trkpt>
      <trkpt lat="42.88618" lon="-0.71423">
        <ele>2005.927979</ele>
        <time>2012-09-03T10:05:29Z</time>
      </trkpt>
      <trkpt lat="42.88627" lon="-0.71423">
        <ele>2008.812012</ele>
        <time>2012-09-03T10:05:42Z</time>
      </trkpt>
      <trkpt lat="42.88628" lon="-0.71423">
        <ele>2014.099365</ele>
        <time>2012-09-03T10:05:43Z</time>
      </trkpt>
      <trkpt lat="42.88628" lon="-0.71423">
        <ele>2013.138184</ele>
        <time>2012-09-03T10:05:44Z</time>
      </trkpt>
      <trkpt lat="42.88629" lon="-0.71423">
        <ele>2017.463867</ele>
        <time>2012-09-03T10:05:45Z</time>
      </trkpt>
      <trkpt lat="42.88629" lon="-0.71423">
        <ele>2026.596436</ele>
        <time>2012-09-03T10:05:46Z</time>
      </trkpt>
      <trkpt lat="42.88629" lon="-0.71423">
        <ele>2029.961182</ele>
        <time>2012-09-03T10:05:47Z</time>
      </trkpt>
      <trkpt lat="42.88629" lon="-0.71423">
        <ele>2028.038574</ele>
        <time>2012-09-03T10:05:48Z</time>
      </trkpt>
      <trkpt lat="42.8863" lon="-0.71422">
        <ele>2030.922607</ele>
        <time>2012-09-03T10:05:54Z</time>
      </trkpt>
      <trkpt lat="42.8863" lon="-0.71422">
        <ele>2029.961182</ele>
        <time>2012-09-03T10:05:55Z</time>
      </trkpt>
      <trkpt lat="42.8863" lon="-0.71423">
        <ele>2034.767822</ele>
        <time>2012-09-03T10:06:06Z</time>
      </trkpt>
      <trkpt lat="42.8863" lon="-0.71423">
        <ele>2036.209717</ele>
        <time>2012-09-03T10:06:08Z</time>
      </trkpt>
      <trkpt lat="42.8863" lon="-0.71422">
        <ele>2041.977539</ele>
        <time>2012-09-03T10:06:11Z</time>
      </trkpt>
      <trkpt lat="42.88631" lon="-0.71422">
        <ele>2046.303711</ele>
        <time>2012-09-03T10:06:12Z</time>
      </trkpt>
      <trkpt lat="42.88631" lon="-0.71421">
        <ele>2042.938721</ele>
        <time>2012-09-03T10:06:13Z</time>
      </trkpt>
      <trkpt lat="42.88631" lon="-0.71421">
        <ele>2038.613037</ele>
        <time>2012-09-03T10:06:14Z</time>
      </trkpt>
      <trkpt lat="42.88631" lon="-0.71421">
        <ele>2034.287109</ele>
        <time>2012-09-03T10:06:16Z</time>
      </trkpt>
      <trkpt lat="42.88631" lon="-0.71421">
        <ele>2030.922607</ele>
        <time>2012-09-03T10:06:20Z</time>
      </trkpt>
      <trkpt lat="42.88631" lon="-0.71421">
        <ele>2036.209717</ele>
        <time>2012-09-03T10:06:21Z</time>
      </trkpt>
      <trkpt lat="42.88631" lon="-0.71421">
        <ele>2036.690186</ele>
        <time>2012-09-03T10:06:22Z</time>
      </trkpt>
      <trkpt lat="42.88631" lon="-0.71421">
        <ele>2032.364502</ele>
        <time>2012-09-03T10:06:26Z</time>
      </trkpt>
      <trkpt lat="42.88631" lon="-0.71421">
        <ele>2032.364502</ele>
        <time>2012-09-03T10:06:27Z</time>
      </trkpt>
      <trkpt lat="42.88631" lon="-0.71421">
        <ele>2036.690186</ele>
        <time>2012-09-03T10:06:30Z</time>
      </trkpt>
      <trkpt lat="42.88631" lon="-0.71421">
        <ele>2038.132324</ele>
        <time>2012-09-03T10:06:32Z</time>
      </trkpt>
      <trkpt lat="42.88631" lon="-0.71421">
        <ele>2034.287109</ele>
        <time>2012-09-03T10:06:34Z</time>
      </trkpt>
      <trkpt lat="42.88631" lon="-0.71421">
        <ele>2020.828613</ele>
        <time>2012-09-03T10:06:35Z</time>
      </trkpt>
      <trkpt lat="42.88631" lon="-0.71421">
        <ele>2012.657471</ele>
        <time>2012-09-03T10:06:36Z</time>
      </trkpt>
      <trkpt lat="42.88631" lon="-0.71421">
        <ele>2020.3479</ele>
        <time>2012-09-03T10:06:37Z</time>
      </trkpt>
      <trkpt lat="42.88631" lon="-0.71421">
        <ele>2016.021973</ele>
        <time>2012-09-03T10:06:39Z</time>
      </trkpt>
      <trkpt lat="42.88631" lon="-0.71421">
        <ele>2020.828613</ele>
        <time>2012-09-03T10:06:42Z</time>
      </trkpt>
      <trkpt lat="42.88631" lon="-0.71421">
        <ele>2022.270508</ele>
        <time>2012-09-03T10:06:44Z</time>
      </trkpt>
      <trkpt lat="42.88631" lon="-0.71421">
        <ele>2026.115723</ele>
        <time>2012-09-03T10:06:46Z</time>
      </trkpt>
      <trkpt lat="42.88631" lon="-0.71421">
        <ele>2026.596436</ele>
        <time>2012-09-03T10:06:48Z</time>
      </trkpt>
      <trkpt lat="42.88631" lon="-0.71421">
        <ele>2023.712402</ele>
        <time>2012-09-03T10:06:50Z</time>
      </trkpt>
      <trkpt lat="42.88631" lon="-0.71421">
        <ele>2022.751221</ele>
        <time>2012-09-03T10:06:52Z</time>
      </trkpt>
      <trkpt lat="42.88631" lon="-0.71421">
        <ele>2025.63501</ele>
        <time>2012-09-03T10:06:54Z</time>
      </trkpt>
      <trkpt lat="42.88631" lon="-0.71421">
        <ele>2025.154297</ele>
        <time>2012-09-03T10:06:55Z</time>
      </trkpt>
      <trkpt lat="42.88631" lon="-0.71421">
        <ele>2028.519287</ele>
        <time>2012-09-03T10:06:59Z</time>
      </trkpt>
      <trkpt lat="42.88631" lon="-0.71421">
        <ele>2035.729004</ele>
        <time>2012-09-03T10:07:02Z</time>
      </trkpt>
      <trkpt lat="42.88631" lon="-0.7142">
        <ele>2031.883789</ele>
        <time>2012-09-03T10:07:03Z</time>
      </trkpt>
      <trkpt lat="42.88631" lon="-0.7142">
        <ele>2028.519287</ele>
        <time>2012-09-03T10:07:04Z</time>
      </trkpt>
      <trkpt lat="42.88631" lon="-0.7142">
        <ele>2029.480469</ele>
        <time>2012-09-03T10:07:05Z</time>
      </trkpt>
      <trkpt lat="42.88631" lon="-0.7142">
        <ele>2031.403076</ele>
        <time>2012-09-03T10:07:07Z</time>
      </trkpt>
      <trkpt lat="42.88631" lon="-0.71421">
        <ele>2030.441895</ele>
        <time>2012-09-03T10:07:10Z</time>
      </trkpt>
      <trkpt lat="42.88627" lon="-0.71421">
        <ele>2027.077148</ele>
        <time>2012-09-03T10:07:13Z</time>
      </trkpt>
      <trkpt lat="42.88624" lon="-0.71422">
        <ele>2022.270508</ele>
        <time>2012-09-03T10:07:15Z</time>
      </trkpt>
      <trkpt lat="42.88623" lon="-0.71422">
        <ele>2017.94458</ele>
        <time>2012-09-03T10:07:16Z</time>
      </trkpt>
      <trkpt lat="42.88623" lon="-0.71422">
        <ele>2013.618652</ele>
        <time>2012-09-03T10:07:17Z</time>
      </trkpt>
      <trkpt lat="42.88622" lon="-0.71423">
        <ele>2012.176758</ele>
        <time>2012-09-03T10:07:19Z</time>
      </trkpt>
      <trkpt lat="42.88621" lon="-0.71425">
        <ele>2017.94458</ele>
        <time>2012-09-03T10:07:21Z</time>
      </trkpt>
      <trkpt lat="42.88621" lon="-0.71426">
        <ele>2016.502686</ele>
        <time>2012-09-03T10:07:22Z</time>
      </trkpt>
      <trkpt lat="42.88621" lon="-0.71426">
        <ele>2013.138184</ele>
        <time>2012-09-03T10:07:23Z</time>
      </trkpt>
      <trkpt lat="42.88619" lon="-0.71427">
        <ele>2007.370117</ele>
        <time>2012-09-03T10:07:26Z</time>
      </trkpt>
      <trkpt lat="42.88617" lon="-0.71424">
        <ele>2008.331299</ele>
        <time>2012-09-03T10:07:38Z</time>
      </trkpt>
      <trkpt lat="42.88617" lon="-0.71424">
        <ele>2009.773193</ele>
        <time>2012-09-03T10:07:42Z</time>
      </trkpt>
      <trkpt lat="42.88616" lon="-0.71426">
        <ele>2007.370117</ele>
        <time>2012-09-03T10:07:50Z</time>
      </trkpt>
      <trkpt lat="42.88617" lon="-0.71429">
        <ele>2003.524902</ele>
        <time>2012-09-03T10:07:58Z</time>
      </trkpt>
      <trkpt lat="42.88617" lon="-0.7143">
        <ele>2003.524902</ele>
        <time>2012-09-03T10:07:59Z</time>
      </trkpt>
      <trkpt lat="42.88616" lon="-0.71431">
        <ele>2006.889404</ele>
        <time>2012-09-03T10:08:09Z</time>
      </trkpt>
      <trkpt lat="42.88616" lon="-0.71431">
        <ele>2004.966797</ele>
        <time>2012-09-03T10:08:12Z</time>
      </trkpt>
      <trkpt lat="42.88616" lon="-0.71431">
        <ele>2001.121582</ele>
        <time>2012-09-03T10:08:22Z</time>
      </trkpt>
      <trkpt lat="42.88616" lon="-0.71431">
        <ele>2006.889404</ele>
        <time>2012-09-03T10:08:23Z</time>
      </trkpt>
      <trkpt lat="42.88616" lon="-0.71431">
        <ele>2003.524902</ele>
        <time>2012-09-03T10:08:24Z</time>
      </trkpt>
      <trkpt lat="42.88616" lon="-0.71431">
        <ele>2006.408691</ele>
        <time>2012-09-03T10:08:27Z</time>
      </trkpt>
      <trkpt lat="42.88617" lon="-0.71431">
        <ele>2003.524902</ele>
        <time>2012-09-03T10:08:44Z</time>
      </trkpt>
      <trkpt lat="42.88616" lon="-0.71432">
        <ele>2006.408691</ele>
        <time>2012-09-03T10:08:50Z</time>
      </trkpt>
      <trkpt lat="42.88614" lon="-0.71429">
        <ele>2002.082764</ele>
        <time>2012-09-03T10:09:00Z</time>
      </trkpt>
      <trkpt lat="42.88617" lon="-0.71431">
        <ele>2002.082764</ele>
        <time>2012-09-03T10:09:21Z</time>
      </trkpt>
      <trkpt lat="42.88617" lon="-0.71431">
        <ele>2003.044189</ele>
        <time>2012-09-03T10:09:42Z</time>
      </trkpt>
      <trkpt lat="42.88617" lon="-0.71431">
        <ele>2002.563477</ele>
        <time>2012-09-03T10:09:47Z</time>
      </trkpt>
      <trkpt lat="42.88618" lon="-0.71431">
        <ele>1998.718262</ele>
        <time>2012-09-03T10:09:56Z</time>
      </trkpt>
      <trkpt lat="42.88618" lon="-0.71431">
        <ele>2000.1604</ele>
        <time>2012-09-03T10:10:05Z</time>
      </trkpt>
      <trkpt lat="42.88618" lon="-0.71431">
        <ele>1997.75708</ele>
        <time>2012-09-03T10:10:09Z</time>
      </trkpt>
      <trkpt lat="42.88618" lon="-0.71431">
        <ele>1999.679688</ele>
        <time>2012-09-03T10:10:31Z</time>
      </trkpt>
      <trkpt lat="42.88618" lon="-0.71431">
        <ele>1997.75708</ele>
        <time>2012-09-03T10:10:33Z</time>
      </trkpt>
      <trkpt lat="42.88618" lon="-0.71431">
        <ele>1993.430908</ele>
        <time>2012-09-03T10:10:35Z</time>
      </trkpt>
      <trkpt lat="42.88618" lon="-0.71431">
        <ele>1997.276367</ele>
        <time>2012-09-03T10:10:59Z</time>
      </trkpt>
      <trkpt lat="42.88618" lon="-0.71431">
        <ele>1998.718262</ele>
        <time>2012-09-03T10:11:01Z</time>
      </trkpt>
      <trkpt lat="42.88618" lon="-0.71431">
        <ele>1996.795654</ele>
        <time>2012-09-03T10:11:07Z</time>
      </trkpt>
      <trkpt lat="42.88618" lon="-0.71431">
        <ele>2000.640869</ele>
        <time>2012-09-03T10:11:18Z</time>
      </trkpt>
      <trkpt lat="42.88618" lon="-0.71431">
        <ele>1997.276367</ele>
        <time>2012-09-03T10:11:21Z</time>
      </trkpt>
      <trkpt lat="42.88619" lon="-0.71431">
        <ele>1999.679688</ele>
        <time>2012-09-03T10:11:49Z</time>
      </trkpt>
      <trkpt lat="42.88618" lon="-0.71431">
        <ele>1999.679688</ele>
        <time>2012-09-03T10:12:00Z</time>
      </trkpt>
      <trkpt lat="42.88617" lon="-0.71431">
        <ele>1996.795654</ele>
        <time>2012-09-03T10:12:10Z</time>
      </trkpt>
      <trkpt lat="42.88617" lon="-0.71431">
        <ele>1998.237549</ele>
        <time>2012-09-03T10:12:14Z</time>
      </trkpt>
      <trkpt lat="42.88614" lon="-0.71427">
        <ele>1994.872803</ele>
        <time>2012-09-03T10:12:28Z</time>
      </trkpt>
      <trkpt lat="42.88613" lon="-0.71426">
        <ele>1997.75708</ele>
        <time>2012-09-03T10:12:30Z</time>
      </trkpt>
      <trkpt lat="42.8861" lon="-0.71426">
        <ele>1998.718262</ele>
        <time>2012-09-03T10:12:33Z</time>
      </trkpt>
      <trkpt lat="42.88604" lon="-0.71424">
        <ele>1997.75708</ele>
        <time>2012-09-03T10:12:40Z</time>
      </trkpt>
      <trkpt lat="42.88604" lon="-0.71424">
        <ele>1993.911621</ele>
        <time>2012-09-03T10:12:41Z</time>
      </trkpt>
      <trkpt lat="42.88603" lon="-0.71423">
        <ele>1996.795654</ele>
        <time>2012-09-03T10:12:42Z</time>
      </trkpt>
      <trkpt lat="42.88601" lon="-0.71423">
        <ele>1993.430908</ele>
        <time>2012-09-03T10:12:44Z</time>
      </trkpt>
      <trkpt lat="42.886" lon="-0.71424">
        <ele>1989.10498</ele>
        <time>2012-09-03T10:12:46Z</time>
      </trkpt>
      <trkpt lat="42.88598" lon="-0.71424">
        <ele>1993.430908</ele>
        <time>2012-09-03T10:12:48Z</time>
      </trkpt>
      <trkpt lat="42.88595" lon="-0.71424">
        <ele>1989.10498</ele>
        <time>2012-09-03T10:12:52Z</time>
      </trkpt>
      <trkpt lat="42.88593" lon="-0.71422">
        <ele>1987.182373</ele>
        <time>2012-09-03T10:12:54Z</time>
      </trkpt>
      <trkpt lat="42.88593" lon="-0.71422">
        <ele>1984.779297</ele>
        <time>2012-09-03T10:12:55Z</time>
      </trkpt>
      <trkpt lat="42.88586" lon="-0.7142">
        <ele>1990.546875</ele>
        <time>2012-09-03T10:13:03Z</time>
      </trkpt>
      <trkpt lat="42.88586" lon="-0.7142">
        <ele>1986.70166</ele>
        <time>2012-09-03T10:13:04Z</time>
      </trkpt>
      <trkpt lat="42.88585" lon="-0.71419">
        <ele>1982.856445</ele>
        <time>2012-09-03T10:13:08Z</time>
      </trkpt>
      <trkpt lat="42.88585" lon="-0.71419">
        <ele>1982.856445</ele>
        <time>2012-09-03T10:13:09Z</time>
      </trkpt>
      <trkpt lat="42.88584" lon="-0.71418">
        <ele>1981.414551</ele>
        <time>2012-09-03T10:13:15Z</time>
      </trkpt>
      <trkpt lat="42.88577" lon="-0.7141">
        <ele>1979.491699</ele>
        <time>2012-09-03T10:13:29Z</time>
      </trkpt>
      <trkpt lat="42.88573" lon="-0.71404">
        <ele>1983.337158</ele>
        <time>2012-09-03T10:13:41Z</time>
      </trkpt>
      <trkpt lat="42.88572" lon="-0.71403">
        <ele>1983.337158</ele>
        <time>2012-09-03T10:13:42Z</time>
      </trkpt>
      <trkpt lat="42.88569" lon="-0.71399">
        <ele>1979.972412</ele>
        <time>2012-09-03T10:13:47Z</time>
      </trkpt>
      <trkpt lat="42.88566" lon="-0.71397">
        <ele>1979.010986</ele>
        <time>2012-09-03T10:13:51Z</time>
      </trkpt>
      <trkpt lat="42.88565" lon="-0.71397">
        <ele>1979.972412</ele>
        <time>2012-09-03T10:13:56Z</time>
      </trkpt>
      <trkpt lat="42.88566" lon="-0.71397">
        <ele>1979.491699</ele>
        <time>2012-09-03T10:14:14Z</time>
      </trkpt>
      <trkpt lat="42.88564" lon="-0.71397">
        <ele>1980.934082</ele>
        <time>2012-09-03T10:14:17Z</time>
      </trkpt>
      <trkpt lat="42.88561" lon="-0.71396">
        <ele>1981.414551</ele>
        <time>2012-09-03T10:14:21Z</time>
      </trkpt>
      <trkpt lat="42.88558" lon="-0.71395">
        <ele>1989.585693</ele>
        <time>2012-09-03T10:14:26Z</time>
      </trkpt>
      <trkpt lat="42.88557" lon="-0.71394">
        <ele>1987.663086</ele>
        <time>2012-09-03T10:14:27Z</time>
      </trkpt>
      <trkpt lat="42.88556" lon="-0.71394">
        <ele>1982.375977</ele>
        <time>2012-09-03T10:14:28Z</time>
      </trkpt>
      <trkpt lat="42.88552" lon="-0.71392">
        <ele>1979.491699</ele>
        <time>2012-09-03T10:14:32Z</time>
      </trkpt>
      <trkpt lat="42.88549" lon="-0.7139">
        <ele>1979.972412</ele>
        <time>2012-09-03T10:14:36Z</time>
      </trkpt>
      <trkpt lat="42.88546" lon="-0.71389">
        <ele>1978.049805</ele>
        <time>2012-09-03T10:14:40Z</time>
      </trkpt>
      <trkpt lat="42.88543" lon="-0.71389">
        <ele>1980.453369</ele>
        <time>2012-09-03T10:14:45Z</time>
      </trkpt>
      <trkpt lat="42.88542" lon="-0.71388">
        <ele>1977.569092</ele>
        <time>2012-09-03T10:14:47Z</time>
      </trkpt>
      <trkpt lat="42.88541" lon="-0.71388">
        <ele>1975.646484</ele>
        <time>2012-09-03T10:14:50Z</time>
      </trkpt>
      <trkpt lat="42.8854" lon="-0.71387">
        <ele>1972.281982</ele>
        <time>2012-09-03T10:14:52Z</time>
      </trkpt>
      <trkpt lat="42.88537" lon="-0.71386">
        <ele>1968.91748</ele>
        <time>2012-09-03T10:14:59Z</time>
      </trkpt>
      <trkpt lat="42.88535" lon="-0.71387">
        <ele>1966.994873</ele>
        <time>2012-09-03T10:15:04Z</time>
      </trkpt>
      <trkpt lat="42.88535" lon="-0.71386">
        <ele>1965.552979</ele>
        <time>2012-09-03T10:15:06Z</time>
      </trkpt>
      <trkpt lat="42.88533" lon="-0.71386">
        <ele>1968.436768</ele>
        <time>2012-09-03T10:15:12Z</time>
      </trkpt>
      <trkpt lat="42.88533" lon="-0.71386">
        <ele>1965.552979</ele>
        <time>2012-09-03T10:15:13Z</time>
      </trkpt>
      <trkpt lat="42.88531" lon="-0.71386">
        <ele>1961.70752</ele>
        <time>2012-09-03T10:15:17Z</time>
      </trkpt>
      <trkpt lat="42.88531" lon="-0.71386">
        <ele>1962.668701</ele>
        <time>2012-09-03T10:15:18Z</time>
      </trkpt>
      <trkpt lat="42.88526" lon="-0.71386">
        <ele>1960.265381</ele>
        <time>2012-09-03T10:15:27Z</time>
      </trkpt>
      <trkpt lat="42.88526" lon="-0.71386">
        <ele>1965.552979</ele>
        <time>2012-09-03T10:15:29Z</time>
      </trkpt>
      <trkpt lat="42.88526" lon="-0.71386">
        <ele>1962.187988</ele>
        <time>2012-09-03T10:15:30Z</time>
      </trkpt>
      <trkpt lat="42.88526" lon="-0.71386">
        <ele>1961.226807</ele>
        <time>2012-09-03T10:15:33Z</time>
      </trkpt>
      <trkpt lat="42.88526" lon="-0.71386">
        <ele>1961.70752</ele>
        <time>2012-09-03T10:15:35Z</time>
      </trkpt>
      <trkpt lat="42.88524" lon="-0.71386">
        <ele>1961.226807</ele>
        <time>2012-09-03T10:15:41Z</time>
      </trkpt>
      <trkpt lat="42.88521" lon="-0.71386">
        <ele>1957.381592</ele>
        <time>2012-09-03T10:15:49Z</time>
      </trkpt>
      <trkpt lat="42.8852" lon="-0.71387">
        <ele>1957.381592</ele>
        <time>2012-09-03T10:15:50Z</time>
      </trkpt>
      <trkpt lat="42.88516" lon="-0.71386">
        <ele>1953.055664</ele>
        <time>2012-09-03T10:15:59Z</time>
      </trkpt>
      <trkpt lat="42.88513" lon="-0.71386">
        <ele>1949.691162</ele>
        <time>2012-09-03T10:16:06Z</time>
      </trkpt>
      <trkpt lat="42.88513" lon="-0.71386">
        <ele>1950.171875</ele>
        <time>2012-09-03T10:16:07Z</time>
      </trkpt>
      <trkpt lat="42.88512" lon="-0.71386">
        <ele>1955.458984</ele>
        <time>2012-09-03T10:16:08Z</time>
      </trkpt>
      <trkpt lat="42.88509" lon="-0.71383">
        <ele>1951.133057</ele>
        <time>2012-09-03T10:16:13Z</time>
      </trkpt>
      <trkpt lat="42.88508" lon="-0.71382">
        <ele>1946.806885</ele>
        <time>2012-09-03T10:16:15Z</time>
      </trkpt>
      <trkpt lat="42.88507" lon="-0.71381">
        <ele>1953.536377</ele>
        <time>2012-09-03T10:16:17Z</time>
      </trkpt>
      <trkpt lat="42.88507" lon="-0.71381">
        <ele>1949.691162</ele>
        <time>2012-09-03T10:16:18Z</time>
      </trkpt>
      <trkpt lat="42.88504" lon="-0.71377">
        <ele>1953.536377</ele>
        <time>2012-09-03T10:16:22Z</time>
      </trkpt>
      <trkpt lat="42.88502" lon="-0.71374">
        <ele>1950.652344</ele>
        <time>2012-09-03T10:16:25Z</time>
      </trkpt>
      <trkpt lat="42.885" lon="-0.71372">
        <ele>1949.691162</ele>
        <time>2012-09-03T10:16:27Z</time>
      </trkpt>
      <trkpt lat="42.88498" lon="-0.71367">
        <ele>1946.806885</ele>
        <time>2012-09-03T10:16:31Z</time>
      </trkpt>
      <trkpt lat="42.88494" lon="-0.7136">
        <ele>1951.133057</ele>
        <time>2012-09-03T10:16:36Z</time>
      </trkpt>
      <trkpt lat="42.88493" lon="-0.71359">
        <ele>1950.652344</ele>
        <time>2012-09-03T10:16:37Z</time>
      </trkpt>
      <trkpt lat="42.88492" lon="-0.71357">
        <ele>1951.61377</ele>
        <time>2012-09-03T10:16:39Z</time>
      </trkpt>
      <trkpt lat="42.88487" lon="-0.71347">
        <ele>1946.326416</ele>
        <time>2012-09-03T10:16:47Z</time>
      </trkpt>
      <trkpt lat="42.88481" lon="-0.71336">
        <ele>1945.36499</ele>
        <time>2012-09-03T10:16:56Z</time>
      </trkpt>
      <trkpt lat="42.88476" lon="-0.71326">
        <ele>1947.768311</ele>
        <time>2012-09-03T10:17:03Z</time>
      </trkpt>
      <trkpt lat="42.88472" lon="-0.7132">
        <ele>1946.326416</ele>
        <time>2012-09-03T10:17:08Z</time>
      </trkpt>
      <trkpt lat="42.88471" lon="-0.71318">
        <ele>1948.729736</ele>
        <time>2012-09-03T10:17:10Z</time>
      </trkpt>
      <trkpt lat="42.88466" lon="-0.71304">
        <ele>1948.729736</ele>
        <time>2012-09-03T10:17:19Z</time>
      </trkpt>
      <trkpt lat="42.88459" lon="-0.71297">
        <ele>1950.171875</ele>
        <time>2012-09-03T10:17:27Z</time>
      </trkpt>
      <trkpt lat="42.88442" lon="-0.71279">
        <ele>1950.652344</ele>
        <time>2012-09-03T10:17:47Z</time>
      </trkpt>
      <trkpt lat="42.88437" lon="-0.71272">
        <ele>1954.01709</ele>
        <time>2012-09-03T10:17:53Z</time>
      </trkpt>
      <trkpt lat="42.88436" lon="-0.7127">
        <ele>1954.497559</ele>
        <time>2012-09-03T10:17:55Z</time>
      </trkpt>
      <trkpt lat="42.88435" lon="-0.71267">
        <ele>1951.61377</ele>
        <time>2012-09-03T10:17:57Z</time>
      </trkpt>
      <trkpt lat="42.88433" lon="-0.71263">
        <ele>1949.691162</ele>
        <time>2012-09-03T10:18:00Z</time>
      </trkpt>
      <trkpt lat="42.88429" lon="-0.71257">
        <ele>1951.61377</ele>
        <time>2012-09-03T10:18:05Z</time>
      </trkpt>
      <trkpt lat="42.88424" lon="-0.71251">
        <ele>1952.094238</ele>
        <time>2012-09-03T10:18:11Z</time>
      </trkpt>
      <trkpt lat="42.88418" lon="-0.71243">
        <ele>1952.574951</ele>
        <time>2012-09-03T10:18:18Z</time>
      </trkpt>
      <trkpt lat="42.8841" lon="-0.71229">
        <ele>1951.133057</ele>
        <time>2012-09-03T10:18:30Z</time>
      </trkpt>
      <trkpt lat="42.88396" lon="-0.71213">
        <ele>1955.458984</ele>
        <time>2012-09-03T10:18:46Z</time>
      </trkpt>
      <trkpt lat="42.88394" lon="-0.71211">
        <ele>1962.187988</ele>
        <time>2012-09-03T10:18:48Z</time>
      </trkpt>
      <trkpt lat="42.88393" lon="-0.7121">
        <ele>1967.475342</ele>
        <time>2012-09-03T10:18:49Z</time>
      </trkpt>
      <trkpt lat="42.88393" lon="-0.71209">
        <ele>1972.762695</ele>
        <time>2012-09-03T10:18:50Z</time>
      </trkpt>
      <trkpt lat="42.88392" lon="-0.71208">
        <ele>1971.320557</ele>
        <time>2012-09-03T10:18:51Z</time>
      </trkpt>
      <trkpt lat="42.8839" lon="-0.71205">
        <ele>1965.552979</ele>
        <time>2012-09-03T10:18:53Z</time>
      </trkpt>
      <trkpt lat="42.8839" lon="-0.71203">
        <ele>1962.187988</ele>
        <time>2012-09-03T10:18:54Z</time>
      </trkpt>
      <trkpt lat="42.8839" lon="-0.71201">
        <ele>1958.342773</ele>
        <time>2012-09-03T10:18:55Z</time>
      </trkpt>
      <trkpt lat="42.88389" lon="-0.71198">
        <ele>1954.497559</ele>
        <time>2012-09-03T10:18:57Z</time>
      </trkpt>
      <trkpt lat="42.88389" lon="-0.71197">
        <ele>1953.055664</ele>
        <time>2012-09-03T10:18:58Z</time>
      </trkpt>
      <trkpt lat="42.88385" lon="-0.71184">
        <ele>1955.939453</ele>
        <time>2012-09-03T10:19:07Z</time>
      </trkpt>
      <trkpt lat="42.88383" lon="-0.71179">
        <ele>1951.133057</ele>
        <time>2012-09-03T10:19:11Z</time>
      </trkpt>
      <trkpt lat="42.8838" lon="-0.71175">
        <ele>1948.729736</ele>
        <time>2012-09-03T10:19:16Z</time>
      </trkpt>
      <trkpt lat="42.88378" lon="-0.71171">
        <ele>1945.845703</ele>
        <time>2012-09-03T10:19:20Z</time>
      </trkpt>
      <trkpt lat="42.88376" lon="-0.71167">
        <ele>1945.845703</ele>
        <time>2012-09-03T10:19:24Z</time>
      </trkpt>
      <trkpt lat="42.88373" lon="-0.71163">
        <ele>1944.884277</ele>
        <time>2012-09-03T10:19:28Z</time>
      </trkpt>
      <trkpt lat="42.88369" lon="-0.71156">
        <ele>1943.923096</ele>
        <time>2012-09-03T10:19:34Z</time>
      </trkpt>
      <trkpt lat="42.88366" lon="-0.71153">
        <ele>1942.000488</ele>
        <time>2012-09-03T10:19:37Z</time>
      </trkpt>
      <trkpt lat="42.88364" lon="-0.71151">
        <ele>1939.116455</ele>
        <time>2012-09-03T10:19:40Z</time>
      </trkpt>
      <trkpt lat="42.88362" lon="-0.71149">
        <ele>1941.519775</ele>
        <time>2012-09-03T10:19:43Z</time>
      </trkpt>
      <trkpt lat="42.88355" lon="-0.7114">
        <ele>1938.155273</ele>
        <time>2012-09-03T10:19:51Z</time>
      </trkpt>
      <trkpt lat="42.8835" lon="-0.7113">
        <ele>1938.635986</ele>
        <time>2012-09-03T10:19:59Z</time>
      </trkpt>
      <trkpt lat="42.88342" lon="-0.71123">
        <ele>1942.481201</ele>
        <time>2012-09-03T10:20:08Z</time>
      </trkpt>
      <trkpt lat="42.8834" lon="-0.71122">
        <ele>1946.806885</ele>
        <time>2012-09-03T10:20:10Z</time>
      </trkpt>
      <trkpt lat="42.88339" lon="-0.71122">
        <ele>1945.845703</ele>
        <time>2012-09-03T10:20:11Z</time>
      </trkpt>
      <trkpt lat="42.88332" lon="-0.71112">
        <ele>1942.481201</ele>
        <time>2012-09-03T10:20:19Z</time>
      </trkpt>
      <trkpt lat="42.88327" lon="-0.71107">
        <ele>1939.116455</ele>
        <time>2012-09-03T10:20:24Z</time>
      </trkpt>
      <trkpt lat="42.88318" lon="-0.71095">
        <ele>1940.077881</ele>
        <time>2012-09-03T10:20:38Z</time>
      </trkpt>
      <trkpt lat="42.88313" lon="-0.7109">
        <ele>1935.751953</ele>
        <time>2012-09-03T10:20:44Z</time>
      </trkpt>
      <trkpt lat="42.88312" lon="-0.71089">
        <ele>1935.751953</ele>
        <time>2012-09-03T10:20:45Z</time>
      </trkpt>
      <trkpt lat="42.88304" lon="-0.71083">
        <ele>1936.232666</ele>
        <time>2012-09-03T10:20:53Z</time>
      </trkpt>
      <trkpt lat="42.883" lon="-0.71081">
        <ele>1941.039062</ele>
        <time>2012-09-03T10:20:58Z</time>
      </trkpt>
      <trkpt lat="42.883" lon="-0.7108">
        <ele>1940.55835</ele>
        <time>2012-09-03T10:20:59Z</time>
      </trkpt>
      <trkpt lat="42.88298" lon="-0.7108">
        <ele>1937.193848</ele>
        <time>2012-09-03T10:21:02Z</time>
      </trkpt>
      <trkpt lat="42.88297" lon="-0.71079">
        <ele>1937.193848</ele>
        <time>2012-09-03T10:21:03Z</time>
      </trkpt>
      <trkpt lat="42.88293" lon="-0.71075">
        <ele>1940.55835</ele>
        <time>2012-09-03T10:21:10Z</time>
      </trkpt>
      <trkpt lat="42.88292" lon="-0.71075">
        <ele>1940.55835</ele>
        <time>2012-09-03T10:21:11Z</time>
      </trkpt>
      <trkpt lat="42.88291" lon="-0.71075">
        <ele>1937.193848</ele>
        <time>2012-09-03T10:21:12Z</time>
      </trkpt>
      <trkpt lat="42.8829" lon="-0.71075">
        <ele>1937.193848</ele>
        <time>2012-09-03T10:21:13Z</time>
      </trkpt>
      <trkpt lat="42.88288" lon="-0.71076">
        <ele>1935.27124</ele>
        <time>2012-09-03T10:21:18Z</time>
      </trkpt>
      <trkpt lat="42.88275" lon="-0.71078">
        <ele>1933.348633</ele>
        <time>2012-09-03T10:21:32Z</time>
      </trkpt>
      <trkpt lat="42.88272" lon="-0.71078">
        <ele>1936.713135</ele>
        <time>2012-09-03T10:21:36Z</time>
      </trkpt>
      <trkpt lat="42.88267" lon="-0.71079">
        <ele>1939.116455</ele>
        <time>2012-09-03T10:21:42Z</time>
      </trkpt>
      <trkpt lat="42.88265" lon="-0.71077">
        <ele>1938.155273</ele>
        <time>2012-09-03T10:21:44Z</time>
      </trkpt>
      <trkpt lat="42.88263" lon="-0.71076">
        <ele>1937.674561</ele>
        <time>2012-09-03T10:21:46Z</time>
      </trkpt>
      <trkpt lat="42.8825" lon="-0.71067">
        <ele>1933.348633</ele>
        <time>2012-09-03T10:21:59Z</time>
      </trkpt>
      <trkpt lat="42.88248" lon="-0.71067">
        <ele>1933.348633</ele>
        <time>2012-09-03T10:22:00Z</time>
      </trkpt>
      <trkpt lat="42.8824" lon="-0.71067">
        <ele>1934.310059</ele>
        <time>2012-09-03T10:22:10Z</time>
      </trkpt>
      <trkpt lat="42.88236" lon="-0.71066">
        <ele>1934.790771</ele>
        <time>2012-09-03T10:22:19Z</time>
      </trkpt>
      <trkpt lat="42.88237" lon="-0.71066">
        <ele>1931.906494</ele>
        <time>2012-09-03T10:22:29Z</time>
      </trkpt>
      <trkpt lat="42.88237" lon="-0.71066">
        <ele>1935.27124</ele>
        <time>2012-09-03T10:22:30Z</time>
      </trkpt>
      <trkpt lat="42.88237" lon="-0.71067">
        <ele>1935.27124</ele>
        <time>2012-09-03T10:22:33Z</time>
      </trkpt>
      <trkpt lat="42.8823" lon="-0.71069">
        <ele>1932.387451</ele>
        <time>2012-09-03T10:22:40Z</time>
      </trkpt>
      <trkpt lat="42.88219" lon="-0.71072">
        <ele>1933.348633</ele>
        <time>2012-09-03T10:22:51Z</time>
      </trkpt>
      <trkpt lat="42.88199" lon="-0.7107">
        <ele>1935.27124</ele>
        <time>2012-09-03T10:23:10Z</time>
      </trkpt>
      <trkpt lat="42.88197" lon="-0.7107">
        <ele>1938.635986</ele>
        <time>2012-09-03T10:23:12Z</time>
      </trkpt>
      <trkpt lat="42.88196" lon="-0.71071">
        <ele>1937.674561</ele>
        <time>2012-09-03T10:23:13Z</time>
      </trkpt>
      <trkpt lat="42.88193" lon="-0.71073">
        <ele>1933.829346</ele>
        <time>2012-09-03T10:23:17Z</time>
      </trkpt>
      <trkpt lat="42.88192" lon="-0.71074">
        <ele>1929.503174</ele>
        <time>2012-09-03T10:23:18Z</time>
      </trkpt>
      <trkpt lat="42.88191" lon="-0.71075">
        <ele>1931.906494</ele>
        <time>2012-09-03T10:23:19Z</time>
      </trkpt>
      <trkpt lat="42.88191" lon="-0.71076">
        <ele>1931.906494</ele>
        <time>2012-09-03T10:23:20Z</time>
      </trkpt>
      <trkpt lat="42.88189" lon="-0.7108">
        <ele>1937.193848</ele>
        <time>2012-09-03T10:23:24Z</time>
      </trkpt>
      <trkpt lat="42.88187" lon="-0.71083">
        <ele>1938.155273</ele>
        <time>2012-09-03T10:23:26Z</time>
      </trkpt>
      <trkpt lat="42.88184" lon="-0.71088">
        <ele>1943.923096</ele>
        <time>2012-09-03T10:23:32Z</time>
      </trkpt>
      <trkpt lat="42.88184" lon="-0.71089">
        <ele>1943.442383</ele>
        <time>2012-09-03T10:23:33Z</time>
      </trkpt>
      <trkpt lat="42.88183" lon="-0.7109">
        <ele>1939.116455</ele>
        <time>2012-09-03T10:23:35Z</time>
      </trkpt>
      <trkpt lat="42.88182" lon="-0.71091">
        <ele>1938.635986</ele>
        <time>2012-09-03T10:23:36Z</time>
      </trkpt>
      <trkpt lat="42.8818" lon="-0.71094">
        <ele>1942.000488</ele>
        <time>2012-09-03T10:23:39Z</time>
      </trkpt>
      <trkpt lat="42.88179" lon="-0.71095">
        <ele>1942.96167</ele>
        <time>2012-09-03T10:23:41Z</time>
      </trkpt>
      <trkpt lat="42.88178" lon="-0.71098">
        <ele>1938.155273</ele>
        <time>2012-09-03T10:23:43Z</time>
      </trkpt>
      <trkpt lat="42.88177" lon="-0.71099">
        <ele>1942.96167</ele>
        <time>2012-09-03T10:23:44Z</time>
      </trkpt>
      <trkpt lat="42.88176" lon="-0.71101">
        <ele>1939.116455</ele>
        <time>2012-09-03T10:23:46Z</time>
      </trkpt>
      <trkpt lat="42.88176" lon="-0.71102">
        <ele>1940.55835</ele>
        <time>2012-09-03T10:23:47Z</time>
      </trkpt>
      <trkpt lat="42.88174" lon="-0.71104">
        <ele>1944.403564</ele>
        <time>2012-09-03T10:23:50Z</time>
      </trkpt>
      <trkpt lat="42.88159" lon="-0.71113">
        <ele>1948.729736</ele>
        <time>2012-09-03T10:24:05Z</time>
      </trkpt>
      <trkpt lat="42.88156" lon="-0.71115">
        <ele>1944.403564</ele>
        <time>2012-09-03T10:24:08Z</time>
      </trkpt>
      <trkpt lat="42.88152" lon="-0.71117">
        <ele>1950.171875</ele>
        <time>2012-09-03T10:24:13Z</time>
      </trkpt>
      <trkpt lat="42.88151" lon="-0.71118">
        <ele>1949.210449</ele>
        <time>2012-09-03T10:24:14Z</time>
      </trkpt>
      <trkpt lat="42.88145" lon="-0.71121">
        <ele>1952.094238</ele>
        <time>2012-09-03T10:24:19Z</time>
      </trkpt>
      <trkpt lat="42.88137" lon="-0.71122">
        <ele>1956.420166</ele>
        <time>2012-09-03T10:24:26Z</time>
      </trkpt>
      <trkpt lat="42.88135" lon="-0.71122">
        <ele>1957.862305</ele>
        <time>2012-09-03T10:24:28Z</time>
      </trkpt>
      <trkpt lat="42.88131" lon="-0.71122">
        <ele>1953.536377</ele>
        <time>2012-09-03T10:24:32Z</time>
      </trkpt>
      <trkpt lat="42.8813" lon="-0.71121">
        <ele>1950.171875</ele>
        <time>2012-09-03T10:24:33Z</time>
      </trkpt>
      <trkpt lat="42.88128" lon="-0.7112">
        <ele>1948.729736</ele>
        <time>2012-09-03T10:24:35Z</time>
      </trkpt>
      <trkpt lat="42.8812" lon="-0.71118">
        <ele>1950.652344</ele>
        <time>2012-09-03T10:24:43Z</time>
      </trkpt>
      <trkpt lat="42.88118" lon="-0.71118">
        <ele>1948.729736</ele>
        <time>2012-09-03T10:24:45Z</time>
      </trkpt>
      <trkpt lat="42.88112" lon="-0.71115">
        <ele>1948.729736</ele>
        <time>2012-09-03T10:24:50Z</time>
      </trkpt>
      <trkpt lat="42.88108" lon="-0.71111">
        <ele>1945.36499</ele>
        <time>2012-09-03T10:24:55Z</time>
      </trkpt>
      <trkpt lat="42.88107" lon="-0.7111">
        <ele>1944.403564</ele>
        <time>2012-09-03T10:24:57Z</time>
      </trkpt>
      <trkpt lat="42.88102" lon="-0.71107">
        <ele>1945.845703</ele>
        <time>2012-09-03T10:25:02Z</time>
      </trkpt>
      <trkpt lat="42.88097" lon="-0.71107">
        <ele>1943.923096</ele>
        <time>2012-09-03T10:25:07Z</time>
      </trkpt>
      <trkpt lat="42.88095" lon="-0.71107">
        <ele>1945.36499</ele>
        <time>2012-09-03T10:25:09Z</time>
      </trkpt>
      <trkpt lat="42.8809" lon="-0.71107">
        <ele>1942.481201</ele>
        <time>2012-09-03T10:25:14Z</time>
      </trkpt>
      <trkpt lat="42.88069" lon="-0.71093">
        <ele>1941.519775</ele>
        <time>2012-09-03T10:25:34Z</time>
      </trkpt>
      <trkpt lat="42.88066" lon="-0.71088">
        <ele>1937.193848</ele>
        <time>2012-09-03T10:25:41Z</time>
      </trkpt>
      <trkpt lat="42.88066" lon="-0.71088">
        <ele>1938.635986</ele>
        <time>2012-09-03T10:25:42Z</time>
      </trkpt>
      <trkpt lat="42.88066" lon="-0.71088">
        <ele>1940.077881</ele>
        <time>2012-09-03T10:25:44Z</time>
      </trkpt>
      <trkpt lat="42.88065" lon="-0.71084">
        <ele>1938.635986</ele>
        <time>2012-09-03T10:25:49Z</time>
      </trkpt>
      <trkpt lat="42.88066" lon="-0.71065">
        <ele>1939.597168</ele>
        <time>2012-09-03T10:26:03Z</time>
      </trkpt>
      <trkpt lat="42.88068" lon="-0.71059">
        <ele>1938.635986</ele>
        <time>2012-09-03T10:26:24Z</time>
      </trkpt>
      <trkpt lat="42.88068" lon="-0.71058">
        <ele>1938.155273</ele>
        <time>2012-09-03T10:26:26Z</time>
      </trkpt>
      <trkpt lat="42.8807" lon="-0.71047">
        <ele>1939.116455</ele>
        <time>2012-09-03T10:26:36Z</time>
      </trkpt>
      <trkpt lat="42.8807" lon="-0.71046">
        <ele>1935.751953</ele>
        <time>2012-09-03T10:26:38Z</time>
      </trkpt>
      <trkpt lat="42.8807" lon="-0.71039">
        <ele>1931.906494</ele>
        <time>2012-09-03T10:26:46Z</time>
      </trkpt>
      <trkpt lat="42.88065" lon="-0.71033">
        <ele>1931.906494</ele>
        <time>2012-09-03T10:27:00Z</time>
      </trkpt>
      <trkpt lat="42.88057" lon="-0.71026">
        <ele>1930.4646</ele>
        <time>2012-09-03T10:27:17Z</time>
      </trkpt>
      <trkpt lat="42.88055" lon="-0.71024">
        <ele>1929.503174</ele>
        <time>2012-09-03T10:27:20Z</time>
      </trkpt>
      <trkpt lat="42.88051" lon="-0.71009">
        <ele>1929.983887</ele>
        <time>2012-09-03T10:27:33Z</time>
      </trkpt>
      <trkpt lat="42.8805" lon="-0.70996">
        <ele>1927.580566</ele>
        <time>2012-09-03T10:27:46Z</time>
      </trkpt>
      <trkpt lat="42.8805" lon="-0.70995">
        <ele>1929.503174</ele>
        <time>2012-09-03T10:28:06Z</time>
      </trkpt>
      <trkpt lat="42.88048" lon="-0.70997">
        <ele>1927.580566</ele>
        <time>2012-09-03T10:28:27Z</time>
      </trkpt>
      <trkpt lat="42.8805" lon="-0.71004">
        <ele>1927.580566</ele>
        <time>2012-09-03T10:28:42Z</time>
      </trkpt>
      <trkpt lat="42.88053" lon="-0.71001">
        <ele>1928.541992</ele>
        <time>2012-09-03T10:28:59Z</time>
      </trkpt>
      <trkpt lat="42.88053" lon="-0.71002">
        <ele>1930.4646</ele>
        <time>2012-09-03T10:29:30Z</time>
      </trkpt>
      <trkpt lat="42.88053" lon="-0.71002">
        <ele>1928.541992</ele>
        <time>2012-09-03T10:29:32Z</time>
      </trkpt>
      <trkpt lat="42.88054" lon="-0.71003">
        <ele>1929.983887</ele>
        <time>2012-09-03T10:29:53Z</time>
      </trkpt>
      <trkpt lat="42.88053" lon="-0.71006">
        <ele>1929.022461</ele>
        <time>2012-09-03T10:29:55Z</time>
      </trkpt>
      <trkpt lat="42.88044" lon="-0.71022">
        <ele>1926.138672</ele>
        <time>2012-09-03T10:30:12Z</time>
      </trkpt>
      <trkpt lat="42.88037" lon="-0.7103">
        <ele>1926.138672</ele>
        <time>2012-09-03T10:30:27Z</time>
      </trkpt>
      <trkpt lat="42.88036" lon="-0.71033">
        <ele>1926.138672</ele>
        <time>2012-09-03T10:30:43Z</time>
      </trkpt>
      <trkpt lat="42.88037" lon="-0.71032">
        <ele>1925.657959</ele>
        <time>2012-09-03T10:32:10Z</time>
      </trkpt>
      <trkpt lat="42.88037" lon="-0.71032">
        <ele>1926.619385</ele>
        <time>2012-09-03T10:32:12Z</time>
      </trkpt>
      <trkpt lat="42.88037" lon="-0.71032">
        <ele>1924.696777</ele>
        <time>2012-09-03T10:32:15Z</time>
      </trkpt>
      <trkpt lat="42.88037" lon="-0.71032">
        <ele>1927.580566</ele>
        <time>2012-09-03T10:32:49Z</time>
      </trkpt>
      <trkpt lat="42.88037" lon="-0.71032">
        <ele>1926.619385</ele>
        <time>2012-09-03T10:34:05Z</time>
      </trkpt>
      <trkpt lat="42.88037" lon="-0.71033">
        <ele>1929.983887</ele>
        <time>2012-09-03T10:34:27Z</time>
      </trkpt>
      <trkpt lat="42.88037" lon="-0.71033">
        <ele>1926.138672</ele>
        <time>2012-09-03T10:34:29Z</time>
      </trkpt>
      <trkpt lat="42.88037" lon="-0.71033">
        <ele>1926.619385</ele>
        <time>2012-09-03T10:34:30Z</time>
      </trkpt>
      <trkpt lat="42.88037" lon="-0.71033">
        <ele>1927.100098</ele>
        <time>2012-09-03T10:34:38Z</time>
      </trkpt>
      <trkpt lat="42.88038" lon="-0.71034">
        <ele>1926.138672</ele>
        <time>2012-09-03T10:35:34Z</time>
      </trkpt>
      <trkpt lat="42.88039" lon="-0.71034">
        <ele>1927.580566</ele>
        <time>2012-09-03T10:35:36Z</time>
      </trkpt>
      <trkpt lat="42.88039" lon="-0.71034">
        <ele>1924.216064</ele>
        <time>2012-09-03T10:35:39Z</time>
      </trkpt>
      <trkpt lat="42.88039" lon="-0.71034">
        <ele>1925.177246</ele>
        <time>2012-09-03T10:35:40Z</time>
      </trkpt>
      <trkpt lat="42.8804" lon="-0.71035">
        <ele>1925.177246</ele>
        <time>2012-09-03T10:36:21Z</time>
      </trkpt>
      <trkpt lat="42.88039" lon="-0.71035">
        <ele>1929.022461</ele>
        <time>2012-09-03T10:36:40Z</time>
      </trkpt>
      <trkpt lat="42.88039" lon="-0.71035">
        <ele>1926.138672</ele>
        <time>2012-09-03T10:36:44Z</time>
      </trkpt>
      <trkpt lat="42.88038" lon="-0.71033">
        <ele>1929.983887</ele>
        <time>2012-09-03T10:38:17Z</time>
      </trkpt>
      <trkpt lat="42.88038" lon="-0.71033">
        <ele>1929.983887</ele>
        <time>2012-09-03T10:38:18Z</time>
      </trkpt>
      <trkpt lat="42.88038" lon="-0.71033">
        <ele>1928.541992</ele>
        <time>2012-09-03T10:38:34Z</time>
      </trkpt>
      <trkpt lat="42.88038" lon="-0.71033">
        <ele>1928.061279</ele>
        <time>2012-09-03T10:38:51Z</time>
      </trkpt>
      <trkpt lat="42.88038" lon="-0.71033">
        <ele>1927.580566</ele>
        <time>2012-09-03T10:39:56Z</time>
      </trkpt>
      <trkpt lat="42.88038" lon="-0.71033">
        <ele>1929.022461</ele>
        <time>2012-09-03T10:39:59Z</time>
      </trkpt>
      <trkpt lat="42.88038" lon="-0.71033">
        <ele>1925.657959</ele>
        <time>2012-09-03T10:40:09Z</time>
      </trkpt>
      <trkpt lat="42.88038" lon="-0.71033">
        <ele>1925.177246</ele>
        <time>2012-09-03T10:40:10Z</time>
      </trkpt>
      <trkpt lat="42.88038" lon="-0.71033">
        <ele>1929.503174</ele>
        <time>2012-09-03T10:40:30Z</time>
      </trkpt>
      <trkpt lat="42.88038" lon="-0.71033">
        <ele>1930.4646</ele>
        <time>2012-09-03T10:40:41Z</time>
      </trkpt>
      <trkpt lat="42.88038" lon="-0.71033">
        <ele>1926.619385</ele>
        <time>2012-09-03T10:40:44Z</time>
      </trkpt>
      <trkpt lat="42.88039" lon="-0.71033">
        <ele>1927.100098</ele>
        <time>2012-09-03T10:41:58Z</time>
      </trkpt>
      <trkpt lat="42.8804" lon="-0.71034">
        <ele>1928.541992</ele>
        <time>2012-09-03T10:43:23Z</time>
      </trkpt>
      <trkpt lat="42.8804" lon="-0.71034">
        <ele>1928.541992</ele>
        <time>2012-09-03T10:44:12Z</time>
      </trkpt>
      <trkpt lat="42.8804" lon="-0.71035">
        <ele>1929.983887</ele>
        <time>2012-09-03T10:45:24Z</time>
      </trkpt>
      <trkpt lat="42.8804" lon="-0.71034">
        <ele>1926.138672</ele>
        <time>2012-09-03T10:45:34Z</time>
      </trkpt>
      <trkpt lat="42.8804" lon="-0.71034">
        <ele>1929.022461</ele>
        <time>2012-09-03T10:45:37Z</time>
      </trkpt>
      <trkpt lat="42.8804" lon="-0.71034">
        <ele>1930.945312</ele>
        <time>2012-09-03T10:47:10Z</time>
      </trkpt>
      <trkpt lat="42.8804" lon="-0.71035">
        <ele>1931.425781</ele>
        <time>2012-09-03T10:48:01Z</time>
      </trkpt>
      <trkpt lat="42.88041" lon="-0.71035">
        <ele>1934.790771</ele>
        <time>2012-09-03T10:49:18Z</time>
      </trkpt>
      <trkpt lat="42.88041" lon="-0.71035">
        <ele>1931.425781</ele>
        <time>2012-09-03T10:49:37Z</time>
      </trkpt>
      <trkpt lat="42.88041" lon="-0.71035">
        <ele>1930.945312</ele>
        <time>2012-09-03T10:49:38Z</time>
      </trkpt>
      <trkpt lat="42.88041" lon="-0.71035">
        <ele>1928.061279</ele>
        <time>2012-09-03T10:50:42Z</time>
      </trkpt>
      <trkpt lat="42.88041" lon="-0.71035">
        <ele>1931.425781</ele>
        <time>2012-09-03T10:51:30Z</time>
      </trkpt>
      <trkpt lat="42.88041" lon="-0.71035">
        <ele>1931.425781</ele>
        <time>2012-09-03T10:51:31Z</time>
      </trkpt>
      <trkpt lat="42.8804" lon="-0.71035">
        <ele>1932.86792</ele>
        <time>2012-09-03T10:53:10Z</time>
      </trkpt>
      <trkpt lat="42.8804" lon="-0.71035">
        <ele>1929.503174</ele>
        <time>2012-09-03T10:53:29Z</time>
      </trkpt>
      <trkpt lat="42.8804" lon="-0.71035">
        <ele>1931.425781</ele>
        <time>2012-09-03T10:53:40Z</time>
      </trkpt>
      <trkpt lat="42.88041" lon="-0.71034">
        <ele>1930.4646</ele>
        <time>2012-09-03T10:54:23Z</time>
      </trkpt>
      <trkpt lat="42.88041" lon="-0.71034">
        <ele>1928.541992</ele>
        <time>2012-09-03T10:54:30Z</time>
      </trkpt>
      <trkpt lat="42.88041" lon="-0.71035">
        <ele>1930.4646</ele>
        <time>2012-09-03T10:55:11Z</time>
      </trkpt>
      <trkpt lat="42.88041" lon="-0.71035">
        <ele>1930.4646</ele>
        <time>2012-09-03T10:56:01Z</time>
      </trkpt>
      <trkpt lat="42.88041" lon="-0.71035">
        <ele>1927.100098</ele>
        <time>2012-09-03T10:56:52Z</time>
      </trkpt>
      <trkpt lat="42.88041" lon="-0.71035">
        <ele>1929.983887</ele>
        <time>2012-09-03T10:57:07Z</time>
      </trkpt>
      <trkpt lat="42.88041" lon="-0.71035">
        <ele>1929.983887</ele>
        <time>2012-09-03T10:57:08Z</time>
      </trkpt>
      <trkpt lat="42.88041" lon="-0.71035">
        <ele>1927.100098</ele>
        <time>2012-09-03T10:57:55Z</time>
      </trkpt>
      <trkpt lat="42.88041" lon="-0.71035">
        <ele>1929.983887</ele>
        <time>2012-09-03T10:58:01Z</time>
      </trkpt>
      <trkpt lat="42.88041" lon="-0.71035">
        <ele>1930.945312</ele>
        <time>2012-09-03T10:58:42Z</time>
      </trkpt>
      <trkpt lat="42.88041" lon="-0.71035">
        <ele>1929.503174</ele>
        <time>2012-09-03T10:58:49Z</time>
      </trkpt>
      <trkpt lat="42.88041" lon="-0.71034">
        <ele>1933.348633</ele>
        <time>2012-09-03T10:59:00Z</time>
      </trkpt>
      <trkpt lat="42.88041" lon="-0.71035">
        <ele>1929.983887</ele>
        <time>2012-09-03T10:59:07Z</time>
      </trkpt>
      <trkpt lat="42.88041" lon="-0.71035">
        <ele>1931.906494</ele>
        <time>2012-09-03T10:59:12Z</time>
      </trkpt>
      <trkpt lat="42.88041" lon="-0.71035">
        <ele>1930.945312</ele>
        <time>2012-09-03T10:59:14Z</time>
      </trkpt>
      <trkpt lat="42.88042" lon="-0.71035">
        <ele>1929.503174</ele>
        <time>2012-09-03T10:59:20Z</time>
      </trkpt>
      <trkpt lat="42.88042" lon="-0.71035">
        <ele>1932.86792</ele>
        <time>2012-09-03T10:59:30Z</time>
      </trkpt>
      <trkpt lat="42.88042" lon="-0.71035">
        <ele>1932.86792</ele>
        <time>2012-09-03T10:59:31Z</time>
      </trkpt>
      <trkpt lat="42.88042" lon="-0.71035">
        <ele>1929.983887</ele>
        <time>2012-09-03T10:59:39Z</time>
      </trkpt>
      <trkpt lat="42.88041" lon="-0.71035">
        <ele>1933.348633</ele>
        <time>2012-09-03T10:59:56Z</time>
      </trkpt>
      <trkpt lat="42.88041" lon="-0.71035">
        <ele>1931.906494</ele>
        <time>2012-09-03T10:59:59Z</time>
      </trkpt>
      <trkpt lat="42.8804" lon="-0.71035">
        <ele>1929.983887</ele>
        <time>2012-09-03T11:00:13Z</time>
      </trkpt>
      <trkpt lat="42.88039" lon="-0.71034">
        <ele>1928.061279</ele>
        <time>2012-09-03T11:01:06Z</time>
      </trkpt>
      <trkpt lat="42.88039" lon="-0.71034">
        <ele>1930.4646</ele>
        <time>2012-09-03T11:01:26Z</time>
      </trkpt>
      <trkpt lat="42.88038" lon="-0.71034">
        <ele>1931.425781</ele>
        <time>2012-09-03T11:01:48Z</time>
      </trkpt>
      <trkpt lat="42.88039" lon="-0.71034">
        <ele>1928.541992</ele>
        <time>2012-09-03T11:02:19Z</time>
      </trkpt>
      <trkpt lat="42.88039" lon="-0.71034">
        <ele>1928.061279</ele>
        <time>2012-09-03T11:02:45Z</time>
      </trkpt>
      <trkpt lat="42.88039" lon="-0.71034">
        <ele>1930.945312</ele>
        <time>2012-09-03T11:03:29Z</time>
      </trkpt>
      <trkpt lat="42.88041" lon="-0.71035">
        <ele>1930.4646</ele>
        <time>2012-09-03T11:05:21Z</time>
      </trkpt>
      <trkpt lat="42.88041" lon="-0.71034">
        <ele>1927.580566</ele>
        <time>2012-09-03T11:05:40Z</time>
      </trkpt>
      <trkpt lat="42.88041" lon="-0.71036">
        <ele>1930.4646</ele>
        <time>2012-09-03T11:05:53Z</time>
      </trkpt>
      <trkpt lat="42.88041" lon="-0.71036">
        <ele>1929.503174</ele>
        <time>2012-09-03T11:05:56Z</time>
      </trkpt>
      <trkpt lat="42.8804" lon="-0.71033">
        <ele>1928.541992</ele>
        <time>2012-09-03T11:06:36Z</time>
      </trkpt>
      <trkpt lat="42.8804" lon="-0.71034">
        <ele>1931.906494</ele>
        <time>2012-09-03T11:06:54Z</time>
      </trkpt>
      <trkpt lat="42.88041" lon="-0.71034">
        <ele>1931.906494</ele>
        <time>2012-09-03T11:07:23Z</time>
      </trkpt>
      <trkpt lat="42.88041" lon="-0.71034">
        <ele>1932.86792</ele>
        <time>2012-09-03T11:07:49Z</time>
      </trkpt>
      <trkpt lat="42.88041" lon="-0.71034">
        <ele>1934.790771</ele>
        <time>2012-09-03T11:07:55Z</time>
      </trkpt>
      <trkpt lat="42.88041" lon="-0.71034">
        <ele>1931.425781</ele>
        <time>2012-09-03T11:08:00Z</time>
      </trkpt>
      <trkpt lat="42.88041" lon="-0.71034">
        <ele>1929.503174</ele>
        <time>2012-09-03T11:08:03Z</time>
      </trkpt>
      <trkpt lat="42.8804" lon="-0.71034">
        <ele>1929.983887</ele>
        <time>2012-09-03T11:10:31Z</time>
      </trkpt>
      <trkpt lat="42.8804" lon="-0.71034">
        <ele>1929.983887</ele>
        <time>2012-09-03T11:11:40Z</time>
      </trkpt>
      <trkpt lat="42.8804" lon="-0.71034">
        <ele>1931.906494</ele>
        <time>2012-09-03T11:12:06Z</time>
      </trkpt>
      <trkpt lat="42.8804" lon="-0.71034">
        <ele>1931.425781</ele>
        <time>2012-09-03T11:12:36Z</time>
      </trkpt>
      <trkpt lat="42.8804" lon="-0.71034">
        <ele>1928.061279</ele>
        <time>2012-09-03T11:12:58Z</time>
      </trkpt>
      <trkpt lat="42.8804" lon="-0.71034">
        <ele>1929.022461</ele>
        <time>2012-09-03T11:13:22Z</time>
      </trkpt>
      <trkpt lat="42.8804" lon="-0.71034">
        <ele>1930.945312</ele>
        <time>2012-09-03T11:13:25Z</time>
      </trkpt>
      <trkpt lat="42.8804" lon="-0.71034">
        <ele>1928.541992</ele>
        <time>2012-09-03T11:14:51Z</time>
      </trkpt>
      <trkpt lat="42.8804" lon="-0.71034">
        <ele>1930.4646</ele>
        <time>2012-09-03T11:14:58Z</time>
      </trkpt>
      <trkpt lat="42.88041" lon="-0.71033">
        <ele>1926.138672</ele>
        <time>2012-09-03T11:15:06Z</time>
      </trkpt>
      <trkpt lat="42.88041" lon="-0.71033">
        <ele>1928.061279</ele>
        <time>2012-09-03T11:15:10Z</time>
      </trkpt>
      <trkpt lat="42.88041" lon="-0.71033">
        <ele>1927.580566</ele>
        <time>2012-09-03T11:15:32Z</time>
      </trkpt>
      <trkpt lat="42.88041" lon="-0.71034">
        <ele>1928.541992</ele>
        <time>2012-09-03T11:16:06Z</time>
      </trkpt>
      <trkpt lat="42.88041" lon="-0.71035">
        <ele>1929.503174</ele>
        <time>2012-09-03T11:16:25Z</time>
      </trkpt>
      <trkpt lat="42.88041" lon="-0.71034">
        <ele>1926.138672</ele>
        <time>2012-09-03T11:17:54Z</time>
      </trkpt>
      <trkpt lat="42.88041" lon="-0.71034">
        <ele>1929.022461</ele>
        <time>2012-09-03T11:18:03Z</time>
      </trkpt>
      <trkpt lat="42.88041" lon="-0.71034">
        <ele>1930.945312</ele>
        <time>2012-09-03T11:18:09Z</time>
      </trkpt>
      <trkpt lat="42.88041" lon="-0.71034">
        <ele>1930.945312</ele>
        <time>2012-09-03T11:18:24Z</time>
      </trkpt>
      <trkpt lat="42.88041" lon="-0.71034">
        <ele>1935.27124</ele>
        <time>2012-09-03T11:19:02Z</time>
      </trkpt>
      <trkpt lat="42.88041" lon="-0.71034">
        <ele>1937.193848</ele>
        <time>2012-09-03T11:19:04Z</time>
      </trkpt>
      <trkpt lat="42.88041" lon="-0.71034">
        <ele>1934.310059</ele>
        <time>2012-09-03T11:19:10Z</time>
      </trkpt>
      <trkpt lat="42.88041" lon="-0.71034">
        <ele>1937.193848</ele>
        <time>2012-09-03T11:19:13Z</time>
      </trkpt>
      <trkpt lat="42.88041" lon="-0.71034">
        <ele>1931.906494</ele>
        <time>2012-09-03T11:19:20Z</time>
      </trkpt>
      <trkpt lat="42.88041" lon="-0.71034">
        <ele>1932.387451</ele>
        <time>2012-09-03T11:19:21Z</time>
      </trkpt>
      <trkpt lat="42.88041" lon="-0.71035">
        <ele>1935.751953</ele>
        <time>2012-09-03T11:19:23Z</time>
      </trkpt>
      <trkpt lat="42.88041" lon="-0.71035">
        <ele>1937.674561</ele>
        <time>2012-09-03T11:19:25Z</time>
      </trkpt>
      <trkpt lat="42.88041" lon="-0.71035">
        <ele>1932.387451</ele>
        <time>2012-09-03T11:19:30Z</time>
      </trkpt>
      <trkpt lat="42.88041" lon="-0.71036">
        <ele>1929.503174</ele>
        <time>2012-09-03T11:19:35Z</time>
      </trkpt>
      <trkpt lat="42.88042" lon="-0.71036">
        <ele>1926.619385</ele>
        <time>2012-09-03T11:19:36Z</time>
      </trkpt>
      <trkpt lat="42.88042" lon="-0.71036">
        <ele>1927.100098</ele>
        <time>2012-09-03T11:19:37Z</time>
      </trkpt>
      <trkpt lat="42.88041" lon="-0.71036">
        <ele>1928.541992</ele>
        <time>2012-09-03T11:20:16Z</time>
      </trkpt>
      <trkpt lat="42.8804" lon="-0.71035">
        <ele>1925.177246</ele>
        <time>2012-09-03T11:20:43Z</time>
      </trkpt>
      <trkpt lat="42.8804" lon="-0.71034">
        <ele>1928.541992</ele>
        <time>2012-09-03T11:20:45Z</time>
      </trkpt>
      <trkpt lat="42.8804" lon="-0.71034">
        <ele>1929.503174</ele>
        <time>2012-09-03T11:21:10Z</time>
      </trkpt>
      <trkpt lat="42.88039" lon="-0.71032">
        <ele>1930.4646</ele>
        <time>2012-09-03T11:21:35Z</time>
      </trkpt>
      <trkpt lat="42.88039" lon="-0.71032">
        <ele>1935.751953</ele>
        <time>2012-09-03T11:21:38Z</time>
      </trkpt>
      <trkpt lat="42.88039" lon="-0.71032">
        <ele>1934.790771</ele>
        <time>2012-09-03T11:21:39Z</time>
      </trkpt>
      <trkpt lat="42.88039" lon="-0.71032">
        <ele>1931.425781</ele>
        <time>2012-09-03T11:21:53Z</time>
      </trkpt>
      <trkpt lat="42.8804" lon="-0.71032">
        <ele>1928.061279</ele>
        <time>2012-09-03T11:21:58Z</time>
      </trkpt>
      <trkpt lat="42.88041" lon="-0.71029">
        <ele>1931.425781</ele>
        <time>2012-09-03T11:22:03Z</time>
      </trkpt>
      <trkpt lat="42.88042" lon="-0.71029">
        <ele>1931.425781</ele>
        <time>2012-09-03T11:22:04Z</time>
      </trkpt>
      <trkpt lat="42.88043" lon="-0.71029">
        <ele>1932.86792</ele>
        <time>2012-09-03T11:22:06Z</time>
      </trkpt>
      <trkpt lat="42.88052" lon="-0.71022">
        <ele>1933.829346</ele>
        <time>2012-09-03T11:22:22Z</time>
      </trkpt>
      <trkpt lat="42.88066" lon="-0.71016">
        <ele>1930.945312</ele>
        <time>2012-09-03T11:22:38Z</time>
      </trkpt>
      <trkpt lat="42.88078" lon="-0.71006">
        <ele>1930.945312</ele>
        <time>2012-09-03T11:22:53Z</time>
      </trkpt>
      <trkpt lat="42.88089" lon="-0.70994">
        <ele>1933.829346</ele>
        <time>2012-09-03T11:23:08Z</time>
      </trkpt>
      <trkpt lat="42.88091" lon="-0.7099">
        <ele>1931.425781</ele>
        <time>2012-09-03T11:23:12Z</time>
      </trkpt>
      <trkpt lat="42.88094" lon="-0.70986">
        <ele>1933.348633</ele>
        <time>2012-09-03T11:23:16Z</time>
      </trkpt>
      <trkpt lat="42.881" lon="-0.70967">
        <ele>1931.425781</ele>
        <time>2012-09-03T11:23:33Z</time>
      </trkpt>
      <trkpt lat="42.88101" lon="-0.70965">
        <ele>1935.27124</ele>
        <time>2012-09-03T11:23:36Z</time>
      </trkpt>
      <trkpt lat="42.88102" lon="-0.70964">
        <ele>1933.348633</ele>
        <time>2012-09-03T11:23:37Z</time>
      </trkpt>
      <trkpt lat="42.88106" lon="-0.70952">
        <ele>1937.193848</ele>
        <time>2012-09-03T11:23:49Z</time>
      </trkpt>
      <trkpt lat="42.88107" lon="-0.7095">
        <ele>1936.232666</ele>
        <time>2012-09-03T11:23:50Z</time>
      </trkpt>
      <trkpt lat="42.88107" lon="-0.70949">
        <ele>1939.597168</ele>
        <time>2012-09-03T11:23:51Z</time>
      </trkpt>
      <trkpt lat="42.88108" lon="-0.70948">
        <ele>1939.597168</ele>
        <time>2012-09-03T11:23:52Z</time>
      </trkpt>
      <trkpt lat="42.88109" lon="-0.70943">
        <ele>1935.27124</ele>
        <time>2012-09-03T11:23:57Z</time>
      </trkpt>
      <trkpt lat="42.88112" lon="-0.70937">
        <ele>1939.597168</ele>
        <time>2012-09-03T11:24:03Z</time>
      </trkpt>
      <trkpt lat="42.88113" lon="-0.70936">
        <ele>1939.116455</ele>
        <time>2012-09-03T11:24:04Z</time>
      </trkpt>
      <trkpt lat="42.88113" lon="-0.70933">
        <ele>1937.193848</ele>
        <time>2012-09-03T11:24:06Z</time>
      </trkpt>
      <trkpt lat="42.88119" lon="-0.70922">
        <ele>1933.829346</ele>
        <time>2012-09-03T11:24:17Z</time>
      </trkpt>
      <trkpt lat="42.88122" lon="-0.70918">
        <ele>1935.27124</ele>
        <time>2012-09-03T11:24:21Z</time>
      </trkpt>
      <trkpt lat="42.88125" lon="-0.70916">
        <ele>1931.425781</ele>
        <time>2012-09-03T11:24:24Z</time>
      </trkpt>
      <trkpt lat="42.8813" lon="-0.70911">
        <ele>1932.86792</ele>
        <time>2012-09-03T11:24:31Z</time>
      </trkpt>
      <trkpt lat="42.88132" lon="-0.70909">
        <ele>1936.232666</ele>
        <time>2012-09-03T11:24:34Z</time>
      </trkpt>
      <trkpt lat="42.88133" lon="-0.70909">
        <ele>1941.039062</ele>
        <time>2012-09-03T11:24:35Z</time>
      </trkpt>
      <trkpt lat="42.88134" lon="-0.70908">
        <ele>1938.155273</ele>
        <time>2012-09-03T11:24:36Z</time>
      </trkpt>
      <trkpt lat="42.88142" lon="-0.709">
        <ele>1935.27124</ele>
        <time>2012-09-03T11:24:47Z</time>
      </trkpt>
      <trkpt lat="42.8815" lon="-0.70892">
        <ele>1934.310059</ele>
        <time>2012-09-03T11:24:58Z</time>
      </trkpt>
      <trkpt lat="42.88152" lon="-0.70889">
        <ele>1939.116455</ele>
        <time>2012-09-03T11:25:01Z</time>
      </trkpt>
      <trkpt lat="42.88153" lon="-0.70887">
        <ele>1934.310059</ele>
        <time>2012-09-03T11:25:03Z</time>
      </trkpt>
      <trkpt lat="42.88165" lon="-0.70875">
        <ele>1934.790771</ele>
        <time>2012-09-03T11:25:19Z</time>
      </trkpt>
      <trkpt lat="42.88178" lon="-0.70858">
        <ele>1932.86792</ele>
        <time>2012-09-03T11:25:39Z</time>
      </trkpt>
      <trkpt lat="42.88189" lon="-0.7084">
        <ele>1931.906494</ele>
        <time>2012-09-03T11:25:57Z</time>
      </trkpt>
      <trkpt lat="42.88194" lon="-0.70832">
        <ele>1929.022461</ele>
        <time>2012-09-03T11:26:05Z</time>
      </trkpt>
      <trkpt lat="42.88198" lon="-0.70828">
        <ele>1931.906494</ele>
        <time>2012-09-03T11:26:11Z</time>
      </trkpt>
      <trkpt lat="42.88199" lon="-0.70827">
        <ele>1933.348633</ele>
        <time>2012-09-03T11:26:13Z</time>
      </trkpt>
      <trkpt lat="42.88208" lon="-0.70816">
        <ele>1936.713135</ele>
        <time>2012-09-03T11:26:28Z</time>
      </trkpt>
      <trkpt lat="42.88209" lon="-0.70814">
        <ele>1932.387451</ele>
        <time>2012-09-03T11:26:31Z</time>
      </trkpt>
      <trkpt lat="42.88211" lon="-0.70813">
        <ele>1937.193848</ele>
        <time>2012-09-03T11:26:34Z</time>
      </trkpt>
      <trkpt lat="42.88213" lon="-0.7081">
        <ele>1938.155273</ele>
        <time>2012-09-03T11:26:38Z</time>
      </trkpt>
      <trkpt lat="42.88216" lon="-0.70808">
        <ele>1934.310059</ele>
        <time>2012-09-03T11:26:41Z</time>
      </trkpt>
      <trkpt lat="42.88216" lon="-0.70807">
        <ele>1934.310059</ele>
        <time>2012-09-03T11:26:42Z</time>
      </trkpt>
      <trkpt lat="42.88218" lon="-0.70806">
        <ele>1937.193848</ele>
        <time>2012-09-03T11:26:44Z</time>
      </trkpt>
      <trkpt lat="42.8822" lon="-0.70805">
        <ele>1934.790771</ele>
        <time>2012-09-03T11:26:47Z</time>
      </trkpt>
      <trkpt lat="42.88226" lon="-0.708">
        <ele>1932.86792</ele>
        <time>2012-09-03T11:26:55Z</time>
      </trkpt>
      <trkpt lat="42.88229" lon="-0.70798">
        <ele>1934.790771</ele>
        <time>2012-09-03T11:27:15Z</time>
      </trkpt>
      <trkpt lat="42.88239" lon="-0.70796">
        <ele>1937.674561</ele>
        <time>2012-09-03T11:27:31Z</time>
      </trkpt>
      <trkpt lat="42.88239" lon="-0.70796">
        <ele>1933.829346</ele>
        <time>2012-09-03T11:27:32Z</time>
      </trkpt>
      <trkpt lat="42.8824" lon="-0.70796">
        <ele>1935.751953</ele>
        <time>2012-09-03T11:27:33Z</time>
      </trkpt>
      <trkpt lat="42.88243" lon="-0.70795">
        <ele>1937.193848</ele>
        <time>2012-09-03T11:27:37Z</time>
      </trkpt>
      <trkpt lat="42.88244" lon="-0.70792">
        <ele>1939.597168</ele>
        <time>2012-09-03T11:27:41Z</time>
      </trkpt>
      <trkpt lat="42.88251" lon="-0.70786">
        <ele>1942.96167</ele>
        <time>2012-09-03T11:27:53Z</time>
      </trkpt>
      <trkpt lat="42.88261" lon="-0.70775">
        <ele>1944.884277</ele>
        <time>2012-09-03T11:28:09Z</time>
      </trkpt>
      <trkpt lat="42.88263" lon="-0.70772">
        <ele>1948.249023</ele>
        <time>2012-09-03T11:28:13Z</time>
      </trkpt>
      <trkpt lat="42.88264" lon="-0.70771">
        <ele>1946.806885</ele>
        <time>2012-09-03T11:28:14Z</time>
      </trkpt>
      <trkpt lat="42.88269" lon="-0.70765">
        <ele>1950.171875</ele>
        <time>2012-09-03T11:28:23Z</time>
      </trkpt>
      <trkpt lat="42.88269" lon="-0.70765">
        <ele>1950.171875</ele>
        <time>2012-09-03T11:28:24Z</time>
      </trkpt>
      <trkpt lat="42.88275" lon="-0.70758">
        <ele>1950.171875</ele>
        <time>2012-09-03T11:28:38Z</time>
      </trkpt>
      <trkpt lat="42.88279" lon="-0.70751">
        <ele>1949.691162</ele>
        <time>2012-09-03T11:28:50Z</time>
      </trkpt>
      <trkpt lat="42.88281" lon="-0.70736">
        <ele>1951.133057</ele>
        <time>2012-09-03T11:29:03Z</time>
      </trkpt>
      <trkpt lat="42.88282" lon="-0.70733">
        <ele>1952.094238</ele>
        <time>2012-09-03T11:29:06Z</time>
      </trkpt>
      <trkpt lat="42.88283" lon="-0.70732">
        <ele>1954.01709</ele>
        <time>2012-09-03T11:29:08Z</time>
      </trkpt>
      <trkpt lat="42.88285" lon="-0.70719">
        <ele>1956.420166</ele>
        <time>2012-09-03T11:29:22Z</time>
      </trkpt>
      <trkpt lat="42.88287" lon="-0.70715">
        <ele>1956.900879</ele>
        <time>2012-09-03T11:29:40Z</time>
      </trkpt>
      <trkpt lat="42.88288" lon="-0.70711">
        <ele>1955.458984</ele>
        <time>2012-09-03T11:29:54Z</time>
      </trkpt>
      <trkpt lat="42.88291" lon="-0.70703">
        <ele>1957.381592</ele>
        <time>2012-09-03T11:30:01Z</time>
      </trkpt>
      <trkpt lat="42.88298" lon="-0.70689">
        <ele>1958.342773</ele>
        <time>2012-09-03T11:30:18Z</time>
      </trkpt>
      <trkpt lat="42.88301" lon="-0.70677">
        <ele>1961.70752</ele>
        <time>2012-09-03T11:30:31Z</time>
      </trkpt>
      <trkpt lat="42.88302" lon="-0.70674">
        <ele>1963.149414</ele>
        <time>2012-09-03T11:30:34Z</time>
      </trkpt>
      <trkpt lat="42.88303" lon="-0.70672">
        <ele>1965.072266</ele>
        <time>2012-09-03T11:30:36Z</time>
      </trkpt>
      <trkpt lat="42.88302" lon="-0.70662">
        <ele>1961.226807</ele>
        <time>2012-09-03T11:30:45Z</time>
      </trkpt>
      <trkpt lat="42.88302" lon="-0.70654">
        <ele>1961.70752</ele>
        <time>2012-09-03T11:30:51Z</time>
      </trkpt>
      <trkpt lat="42.88302" lon="-0.70638">
        <ele>1960.265381</ele>
        <time>2012-09-03T11:31:06Z</time>
      </trkpt>
      <trkpt lat="42.88299" lon="-0.70619">
        <ele>1959.784668</ele>
        <time>2012-09-03T11:31:22Z</time>
      </trkpt>
      <trkpt lat="42.88297" lon="-0.70603">
        <ele>1957.862305</ele>
        <time>2012-09-03T11:31:37Z</time>
      </trkpt>
      <trkpt lat="42.88297" lon="-0.70598">
        <ele>1958.823486</ele>
        <time>2012-09-03T11:31:41Z</time>
      </trkpt>
      <trkpt lat="42.88296" lon="-0.7059">
        <ele>1959.304199</ele>
        <time>2012-09-03T11:31:48Z</time>
      </trkpt>
      <trkpt lat="42.883" lon="-0.70574">
        <ele>1959.784668</ele>
        <time>2012-09-03T11:32:05Z</time>
      </trkpt>
      <trkpt lat="42.88299" lon="-0.70565">
        <ele>1958.823486</ele>
        <time>2012-09-03T11:32:21Z</time>
      </trkpt>
      <trkpt lat="42.88295" lon="-0.70562">
        <ele>1957.862305</ele>
        <time>2012-09-03T11:32:29Z</time>
      </trkpt>
      <trkpt lat="42.88293" lon="-0.70552">
        <ele>1956.900879</ele>
        <time>2012-09-03T11:32:43Z</time>
      </trkpt>
      <trkpt lat="42.88292" lon="-0.70551">
        <ele>1955.939453</ele>
        <time>2012-09-03T11:32:45Z</time>
      </trkpt>
      <trkpt lat="42.88291" lon="-0.70544">
        <ele>1954.01709</ele>
        <time>2012-09-03T11:32:59Z</time>
      </trkpt>
      <trkpt lat="42.88285" lon="-0.7054">
        <ele>1950.652344</ele>
        <time>2012-09-03T11:33:12Z</time>
      </trkpt>
      <trkpt lat="42.88281" lon="-0.70536">
        <ele>1950.171875</ele>
        <time>2012-09-03T11:33:27Z</time>
      </trkpt>
      <trkpt lat="42.88275" lon="-0.70533">
        <ele>1949.210449</ele>
        <time>2012-09-03T11:33:46Z</time>
      </trkpt>
      <trkpt lat="42.88269" lon="-0.70531">
        <ele>1947.768311</ele>
        <time>2012-09-03T11:34:02Z</time>
      </trkpt>
      <trkpt lat="42.88267" lon="-0.7053">
        <ele>1945.845703</ele>
        <time>2012-09-03T11:34:15Z</time>
      </trkpt>
      <trkpt lat="42.88265" lon="-0.70531">
        <ele>1943.923096</ele>
        <time>2012-09-03T11:34:20Z</time>
      </trkpt>
      <trkpt lat="42.88262" lon="-0.70537">
        <ele>1941.039062</ele>
        <time>2012-09-03T11:34:33Z</time>
      </trkpt>
      <trkpt lat="42.88257" lon="-0.70537">
        <ele>1939.597168</ele>
        <time>2012-09-03T11:34:39Z</time>
      </trkpt>
      <trkpt lat="42.88255" lon="-0.70536">
        <ele>1937.193848</ele>
        <time>2012-09-03T11:34:43Z</time>
      </trkpt>
      <trkpt lat="42.88248" lon="-0.70536">
        <ele>1939.116455</ele>
        <time>2012-09-03T11:34:59Z</time>
      </trkpt>
      <trkpt lat="42.88246" lon="-0.70528">
        <ele>1937.193848</ele>
        <time>2012-09-03T11:35:20Z</time>
      </trkpt>
      <trkpt lat="42.88242" lon="-0.70523">
        <ele>1938.155273</ele>
        <time>2012-09-03T11:35:36Z</time>
      </trkpt>
      <trkpt lat="42.88237" lon="-0.70514">
        <ele>1939.597168</ele>
        <time>2012-09-03T11:35:51Z</time>
      </trkpt>
      <trkpt lat="42.8823" lon="-0.70511">
        <ele>1938.155273</ele>
        <time>2012-09-03T11:36:04Z</time>
      </trkpt>
      <trkpt lat="42.88226" lon="-0.70502">
        <ele>1938.155273</ele>
        <time>2012-09-03T11:36:20Z</time>
      </trkpt>
      <trkpt lat="42.8823" lon="-0.70498">
        <ele>1941.519775</ele>
        <time>2012-09-03T11:36:29Z</time>
      </trkpt>
      <trkpt lat="42.88231" lon="-0.70497">
        <ele>1942.481201</ele>
        <time>2012-09-03T11:36:31Z</time>
      </trkpt>
      <trkpt lat="42.88237" lon="-0.70498">
        <ele>1944.403564</ele>
        <time>2012-09-03T11:36:48Z</time>
      </trkpt>
      <trkpt lat="42.88235" lon="-0.70496">
        <ele>1942.96167</ele>
        <time>2012-09-03T11:37:19Z</time>
      </trkpt>
      <trkpt lat="42.88233" lon="-0.70488">
        <ele>1943.442383</ele>
        <time>2012-09-03T11:37:39Z</time>
      </trkpt>
      <trkpt lat="42.88235" lon="-0.70485">
        <ele>1945.36499</ele>
        <time>2012-09-03T11:37:43Z</time>
      </trkpt>
      <trkpt lat="42.88235" lon="-0.70476">
        <ele>1945.845703</ele>
        <time>2012-09-03T11:37:56Z</time>
      </trkpt>
      <trkpt lat="42.88233" lon="-0.7047">
        <ele>1947.768311</ele>
        <time>2012-09-03T11:38:13Z</time>
      </trkpt>
      <trkpt lat="42.88228" lon="-0.70462">
        <ele>1947.287598</ele>
        <time>2012-09-03T11:38:27Z</time>
      </trkpt>
      <trkpt lat="42.88222" lon="-0.70452">
        <ele>1948.729736</ele>
        <time>2012-09-03T11:38:42Z</time>
      </trkpt>
      <trkpt lat="42.88218" lon="-0.70443">
        <ele>1948.729736</ele>
        <time>2012-09-03T11:38:54Z</time>
      </trkpt>
      <trkpt lat="42.88217" lon="-0.70431">
        <ele>1951.61377</ele>
        <time>2012-09-03T11:39:08Z</time>
      </trkpt>
      <trkpt lat="42.88214" lon="-0.70427">
        <ele>1952.094238</ele>
        <time>2012-09-03T11:39:30Z</time>
      </trkpt>
      <trkpt lat="42.88215" lon="-0.70422">
        <ele>1950.652344</ele>
        <time>2012-09-03T11:39:52Z</time>
      </trkpt>
      <trkpt lat="42.8822" lon="-0.70411">
        <ele>1950.652344</ele>
        <time>2012-09-03T11:40:07Z</time>
      </trkpt>
      <trkpt lat="42.8822" lon="-0.70405">
        <ele>1951.61377</ele>
        <time>2012-09-03T11:40:20Z</time>
      </trkpt>
      <trkpt lat="42.8822" lon="-0.70402">
        <ele>1950.171875</ele>
        <time>2012-09-03T11:40:23Z</time>
      </trkpt>
      <trkpt lat="42.8822" lon="-0.70395">
        <ele>1951.61377</ele>
        <time>2012-09-03T11:40:36Z</time>
      </trkpt>
      <trkpt lat="42.88221" lon="-0.70388">
        <ele>1952.094238</ele>
        <time>2012-09-03T11:40:50Z</time>
      </trkpt>
      <trkpt lat="42.88223" lon="-0.70378">
        <ele>1953.055664</ele>
        <time>2012-09-03T11:41:02Z</time>
      </trkpt>
      <trkpt lat="42.88225" lon="-0.70372">
        <ele>1954.978271</ele>
        <time>2012-09-03T11:41:17Z</time>
      </trkpt>
      <trkpt lat="42.88227" lon="-0.70368">
        <ele>1956.900879</ele>
        <time>2012-09-03T11:41:35Z</time>
      </trkpt>
      <trkpt lat="42.88225" lon="-0.70359">
        <ele>1956.900879</ele>
        <time>2012-09-03T11:41:48Z</time>
      </trkpt>
      <trkpt lat="42.88226" lon="-0.70357">
        <ele>1958.823486</ele>
        <time>2012-09-03T11:41:53Z</time>
      </trkpt>
      <trkpt lat="42.88225" lon="-0.70357">
        <ele>1956.900879</ele>
        <time>2012-09-03T11:41:55Z</time>
      </trkpt>
      <trkpt lat="42.88224" lon="-0.70352">
        <ele>1957.862305</ele>
        <time>2012-09-03T11:42:08Z</time>
      </trkpt>
      <trkpt lat="42.88223" lon="-0.70347">
        <ele>1957.381592</ele>
        <time>2012-09-03T11:42:21Z</time>
      </trkpt>
      <trkpt lat="42.88227" lon="-0.70344">
        <ele>1960.265381</ele>
        <time>2012-09-03T11:42:34Z</time>
      </trkpt>
      <trkpt lat="42.88229" lon="-0.70338">
        <ele>1962.668701</ele>
        <time>2012-09-03T11:42:47Z</time>
      </trkpt>
      <trkpt lat="42.88229" lon="-0.70329">
        <ele>1964.591553</ele>
        <time>2012-09-03T11:43:01Z</time>
      </trkpt>
      <trkpt lat="42.8823" lon="-0.7032">
        <ele>1967.475342</ele>
        <time>2012-09-03T11:43:15Z</time>
      </trkpt>
      <trkpt lat="42.8823" lon="-0.70312">
        <ele>1969.398193</ele>
        <time>2012-09-03T11:43:28Z</time>
      </trkpt>
      <trkpt lat="42.8823" lon="-0.70313">
        <ele>1967.475342</ele>
        <time>2012-09-03T11:43:46Z</time>
      </trkpt>
      <trkpt lat="42.8823" lon="-0.70304">
        <ele>1969.398193</ele>
        <time>2012-09-03T11:44:05Z</time>
      </trkpt>
      <trkpt lat="42.8823" lon="-0.70303">
        <ele>1969.398193</ele>
        <time>2012-09-03T11:44:06Z</time>
      </trkpt>
      <trkpt lat="42.8823" lon="-0.70297">
        <ele>1971.320557</ele>
        <time>2012-09-03T11:44:21Z</time>
      </trkpt>
      <trkpt lat="42.88233" lon="-0.70297">
        <ele>1973.243408</ele>
        <time>2012-09-03T11:45:12Z</time>
      </trkpt>
      <trkpt lat="42.88237" lon="-0.70295">
        <ele>1974.685303</ele>
        <time>2012-09-03T11:45:25Z</time>
      </trkpt>
      <trkpt lat="42.8824" lon="-0.70297">
        <ele>1976.60791</ele>
        <time>2012-09-03T11:45:30Z</time>
      </trkpt>
      <trkpt lat="42.88242" lon="-0.70299">
        <ele>1979.491699</ele>
        <time>2012-09-03T11:45:35Z</time>
      </trkpt>
      <trkpt lat="42.88246" lon="-0.70305">
        <ele>1982.856445</ele>
        <time>2012-09-03T11:45:46Z</time>
      </trkpt>
      <trkpt lat="42.8825" lon="-0.70309">
        <ele>1984.298584</ele>
        <time>2012-09-03T11:46:01Z</time>
      </trkpt>
      <trkpt lat="42.88257" lon="-0.70315">
        <ele>1985.259766</ele>
        <time>2012-09-03T11:46:15Z</time>
      </trkpt>
      <trkpt lat="42.88264" lon="-0.70324">
        <ele>1988.624512</ele>
        <time>2012-09-03T11:46:29Z</time>
      </trkpt>
      <trkpt lat="42.88263" lon="-0.70324">
        <ele>1986.70166</ele>
        <time>2012-09-03T11:46:35Z</time>
      </trkpt>
      <trkpt lat="42.88261" lon="-0.7032">
        <ele>1986.70166</ele>
        <time>2012-09-03T11:46:43Z</time>
      </trkpt>
      <trkpt lat="42.88259" lon="-0.70314">
        <ele>1989.10498</ele>
        <time>2012-09-03T11:46:53Z</time>
      </trkpt>
      <trkpt lat="42.88259" lon="-0.70313">
        <ele>1986.70166</ele>
        <time>2012-09-03T11:46:55Z</time>
      </trkpt>
      <trkpt lat="42.88256" lon="-0.70299">
        <ele>1990.546875</ele>
        <time>2012-09-03T11:47:11Z</time>
      </trkpt>
      <trkpt lat="42.88256" lon="-0.70299">
        <ele>1990.546875</ele>
        <time>2012-09-03T11:47:12Z</time>
      </trkpt>
      <trkpt lat="42.88253" lon="-0.70295">
        <ele>1990.546875</ele>
        <time>2012-09-03T11:47:22Z</time>
      </trkpt>
      <trkpt lat="42.88254" lon="-0.70292">
        <ele>1991.989014</ele>
        <time>2012-09-03T11:47:39Z</time>
      </trkpt>
      <trkpt lat="42.88256" lon="-0.70291">
        <ele>1995.353516</ele>
        <time>2012-09-03T11:47:51Z</time>
      </trkpt>
      <trkpt lat="42.88256" lon="-0.70288">
        <ele>1996.315186</ele>
        <time>2012-09-03T11:47:57Z</time>
      </trkpt>
      <trkpt lat="42.88257" lon="-0.70285">
        <ele>1998.718262</ele>
        <time>2012-09-03T11:48:06Z</time>
      </trkpt>
      <trkpt lat="42.88255" lon="-0.70281">
        <ele>2001.602295</ele>
        <time>2012-09-03T11:48:19Z</time>
      </trkpt>
      <trkpt lat="42.88257" lon="-0.70276">
        <ele>2003.044189</ele>
        <time>2012-09-03T11:49:13Z</time>
      </trkpt>
      <trkpt lat="42.88257" lon="-0.70273">
        <ele>2005.44751</ele>
        <time>2012-09-03T11:49:36Z</time>
      </trkpt>
      <trkpt lat="42.88252" lon="-0.70268">
        <ele>2005.927979</ele>
        <time>2012-09-03T11:50:04Z</time>
      </trkpt>
      <trkpt lat="42.88254" lon="-0.70268">
        <ele>2008.812012</ele>
        <time>2012-09-03T11:50:57Z</time>
      </trkpt>
      <trkpt lat="42.88259" lon="-0.70268">
        <ele>2008.812012</ele>
        <time>2012-09-03T11:51:16Z</time>
      </trkpt>
      <trkpt lat="42.8826" lon="-0.70264">
        <ele>2009.773193</ele>
        <time>2012-09-03T11:51:38Z</time>
      </trkpt>
      <trkpt lat="42.88257" lon="-0.7026">
        <ele>2009.292725</ele>
        <time>2012-09-03T11:52:22Z</time>
      </trkpt>
      <trkpt lat="42.88256" lon="-0.70253">
        <ele>2011.215332</ele>
        <time>2012-09-03T11:52:34Z</time>
      </trkpt>
      <trkpt lat="42.88261" lon="-0.70247">
        <ele>2009.292725</ele>
        <time>2012-09-03T11:52:48Z</time>
      </trkpt>
      <trkpt lat="42.88261" lon="-0.70247">
        <ele>2013.138184</ele>
        <time>2012-09-03T11:52:49Z</time>
      </trkpt>
      <trkpt lat="42.88261" lon="-0.70248">
        <ele>2014.580078</ele>
        <time>2012-09-03T11:52:51Z</time>
      </trkpt>
      <trkpt lat="42.88263" lon="-0.70248">
        <ele>2012.657471</ele>
        <time>2012-09-03T11:52:55Z</time>
      </trkpt>
      <trkpt lat="42.88263" lon="-0.70248">
        <ele>2009.773193</ele>
        <time>2012-09-03T11:53:06Z</time>
      </trkpt>
      <trkpt lat="42.88263" lon="-0.70249">
        <ele>2011.215332</ele>
        <time>2012-09-03T11:53:07Z</time>
      </trkpt>
      <trkpt lat="42.88263" lon="-0.70249">
        <ele>2014.580078</ele>
        <time>2012-09-03T11:53:13Z</time>
      </trkpt>
      <trkpt lat="42.88262" lon="-0.70248">
        <ele>2017.94458</ele>
        <time>2012-09-03T11:53:21Z</time>
      </trkpt>
      <trkpt lat="42.88262" lon="-0.70247">
        <ele>2016.021973</ele>
        <time>2012-09-03T11:53:22Z</time>
      </trkpt>
      <trkpt lat="42.88262" lon="-0.70247">
        <ele>2010.253906</ele>
        <time>2012-09-03T11:53:25Z</time>
      </trkpt>
      <trkpt lat="42.88262" lon="-0.70247">
        <ele>2011.696045</ele>
        <time>2012-09-03T11:53:26Z</time>
      </trkpt>
      <trkpt lat="42.88262" lon="-0.70249">
        <ele>2016.983398</ele>
        <time>2012-09-03T11:53:32Z</time>
      </trkpt>
      <trkpt lat="42.88262" lon="-0.70249">
        <ele>2016.021973</ele>
        <time>2012-09-03T11:53:33Z</time>
      </trkpt>
      <trkpt lat="42.88261" lon="-0.70251">
        <ele>2013.618652</ele>
        <time>2012-09-03T11:53:37Z</time>
      </trkpt>
      <trkpt lat="42.88262" lon="-0.70251">
        <ele>2014.099365</ele>
        <time>2012-09-03T11:53:49Z</time>
      </trkpt>
      <trkpt lat="42.88263" lon="-0.7025">
        <ele>2011.215332</ele>
        <time>2012-09-03T11:53:53Z</time>
      </trkpt>
      <trkpt lat="42.88263" lon="-0.7025">
        <ele>2016.021973</ele>
        <time>2012-09-03T11:53:55Z</time>
      </trkpt>
      <trkpt lat="42.88262" lon="-0.70249">
        <ele>2015.541504</ele>
        <time>2012-09-03T11:53:56Z</time>
      </trkpt>
      <trkpt lat="42.88263" lon="-0.70247">
        <ele>2009.773193</ele>
        <time>2012-09-03T11:53:59Z</time>
      </trkpt>
      <trkpt lat="42.88263" lon="-0.70247">
        <ele>2016.502686</ele>
        <time>2012-09-03T11:54:00Z</time>
      </trkpt>
      <trkpt lat="42.88266" lon="-0.7025">
        <ele>2015.060791</ele>
        <time>2012-09-03T11:54:40Z</time>
      </trkpt>
      <trkpt lat="42.88267" lon="-0.7025">
        <ele>2009.292725</ele>
        <time>2012-09-03T11:54:44Z</time>
      </trkpt>
      <trkpt lat="42.88266" lon="-0.7025">
        <ele>2014.580078</ele>
        <time>2012-09-03T11:54:48Z</time>
      </trkpt>
      <trkpt lat="42.88266" lon="-0.7025">
        <ele>2014.580078</ele>
        <time>2012-09-03T11:54:49Z</time>
      </trkpt>
      <trkpt lat="42.88266" lon="-0.70249">
        <ele>2016.502686</ele>
        <time>2012-09-03T11:55:09Z</time>
      </trkpt>
      <trkpt lat="42.88265" lon="-0.70248">
        <ele>2014.099365</ele>
        <time>2012-09-03T11:55:25Z</time>
      </trkpt>
      <trkpt lat="42.88265" lon="-0.70248">
        <ele>2015.541504</ele>
        <time>2012-09-03T11:55:28Z</time>
      </trkpt>
      <trkpt lat="42.88265" lon="-0.70247">
        <ele>2011.696045</ele>
        <time>2012-09-03T11:55:37Z</time>
      </trkpt>
      <trkpt lat="42.88265" lon="-0.70247">
        <ele>2015.060791</ele>
        <time>2012-09-03T11:55:38Z</time>
      </trkpt>
      <trkpt lat="42.88264" lon="-0.70247">
        <ele>2012.176758</ele>
        <time>2012-09-03T11:55:56Z</time>
      </trkpt>
      <trkpt lat="42.88265" lon="-0.70248">
        <ele>2012.657471</ele>
        <time>2012-09-03T11:55:57Z</time>
      </trkpt>
      <trkpt lat="42.88265" lon="-0.70248">
        <ele>2016.502686</ele>
        <time>2012-09-03T11:55:58Z</time>
      </trkpt>
      <trkpt lat="42.88265" lon="-0.70249">
        <ele>2016.021973</ele>
        <time>2012-09-03T11:55:59Z</time>
      </trkpt>
      <trkpt lat="42.88262" lon="-0.70245">
        <ele>2018.425293</ele>
        <time>2012-09-03T11:56:13Z</time>
      </trkpt>
      <trkpt lat="42.88261" lon="-0.70246">
        <ele>2014.099365</ele>
        <time>2012-09-03T11:56:30Z</time>
      </trkpt>
      <trkpt lat="42.88261" lon="-0.70246">
        <ele>2015.541504</ele>
        <time>2012-09-03T11:56:31Z</time>
      </trkpt>
      <trkpt lat="42.88262" lon="-0.70246">
        <ele>2011.215332</ele>
        <time>2012-09-03T11:56:35Z</time>
      </trkpt>
      <trkpt lat="42.88263" lon="-0.70245">
        <ele>2017.94458</ele>
        <time>2012-09-03T11:56:37Z</time>
      </trkpt>
      <trkpt lat="42.88263" lon="-0.70244">
        <ele>2020.3479</ele>
        <time>2012-09-03T11:56:39Z</time>
      </trkpt>
      <trkpt lat="42.88263" lon="-0.70243">
        <ele>2015.541504</ele>
        <time>2012-09-03T11:56:41Z</time>
      </trkpt>
      <trkpt lat="42.88263" lon="-0.70243">
        <ele>2012.176758</ele>
        <time>2012-09-03T11:56:48Z</time>
      </trkpt>
      <trkpt lat="42.88265" lon="-0.70243">
        <ele>2008.812012</ele>
        <time>2012-09-03T11:56:51Z</time>
      </trkpt>
      <trkpt lat="42.88265" lon="-0.70243">
        <ele>2008.812012</ele>
        <time>2012-09-03T11:56:52Z</time>
      </trkpt>
      <trkpt lat="42.88268" lon="-0.70243">
        <ele>2012.176758</ele>
        <time>2012-09-03T11:56:59Z</time>
      </trkpt>
      <trkpt lat="42.88268" lon="-0.70242">
        <ele>2013.138184</ele>
        <time>2012-09-03T11:57:01Z</time>
      </trkpt>
      <trkpt lat="42.88268" lon="-0.70242">
        <ele>2012.657471</ele>
        <time>2012-09-03T11:57:03Z</time>
      </trkpt>
      <trkpt lat="42.88269" lon="-0.7024">
        <ele>2006.889404</ele>
        <time>2012-09-03T11:57:16Z</time>
      </trkpt>
      <trkpt lat="42.88269" lon="-0.7024">
        <ele>2007.370117</ele>
        <time>2012-09-03T11:57:17Z</time>
      </trkpt>
      <trkpt lat="42.88271" lon="-0.7024">
        <ele>2010.253906</ele>
        <time>2012-09-03T11:57:22Z</time>
      </trkpt>
      <trkpt lat="42.88271" lon="-0.70239">
        <ele>2008.812012</ele>
        <time>2012-09-03T11:57:23Z</time>
      </trkpt>
      <trkpt lat="42.8827" lon="-0.70236">
        <ele>2004.966797</ele>
        <time>2012-09-03T11:57:30Z</time>
      </trkpt>
      <trkpt lat="42.8827" lon="-0.70235">
        <ele>2004.966797</ele>
        <time>2012-09-03T11:57:31Z</time>
      </trkpt>
      <trkpt lat="42.8827" lon="-0.70233">
        <ele>1998.237549</ele>
        <time>2012-09-03T11:57:36Z</time>
      </trkpt>
      <trkpt lat="42.8827" lon="-0.70232">
        <ele>1999.198975</ele>
        <time>2012-09-03T11:57:37Z</time>
      </trkpt>
      <trkpt lat="42.8827" lon="-0.70231">
        <ele>2002.563477</ele>
        <time>2012-09-03T11:57:41Z</time>
      </trkpt>
      <trkpt lat="42.8827" lon="-0.7023">
        <ele>2002.082764</ele>
        <time>2012-09-03T11:57:42Z</time>
      </trkpt>
      <trkpt lat="42.88272" lon="-0.70226">
        <ele>1998.718262</ele>
        <time>2012-09-03T11:57:53Z</time>
      </trkpt>
      <trkpt lat="42.88274" lon="-0.70221">
        <ele>1994.39209</ele>
        <time>2012-09-03T11:58:07Z</time>
      </trkpt>
      <trkpt lat="42.88274" lon="-0.70221">
        <ele>1994.39209</ele>
        <time>2012-09-03T11:58:08Z</time>
      </trkpt>
      <trkpt lat="42.8828" lon="-0.70221">
        <ele>1991.508301</ele>
        <time>2012-09-03T11:58:21Z</time>
      </trkpt>
      <trkpt lat="42.8828" lon="-0.70221">
        <ele>1991.027588</ele>
        <time>2012-09-03T11:58:22Z</time>
      </trkpt>
      <trkpt lat="42.88288" lon="-0.70222">
        <ele>1987.663086</ele>
        <time>2012-09-03T11:58:33Z</time>
      </trkpt>
      <trkpt lat="42.88288" lon="-0.70222">
        <ele>1987.663086</ele>
        <time>2012-09-03T11:58:34Z</time>
      </trkpt>
      <trkpt lat="42.88288" lon="-0.70221">
        <ele>1990.546875</ele>
        <time>2012-09-03T11:58:39Z</time>
      </trkpt>
      <trkpt lat="42.88288" lon="-0.7022">
        <ele>1987.182373</ele>
        <time>2012-09-03T11:58:42Z</time>
      </trkpt>
      <trkpt lat="42.88289" lon="-0.70219">
        <ele>1984.779297</ele>
        <time>2012-09-03T11:58:45Z</time>
      </trkpt>
      <trkpt lat="42.88294" lon="-0.70219">
        <ele>1984.779297</ele>
        <time>2012-09-03T11:58:53Z</time>
      </trkpt>
      <trkpt lat="42.88297" lon="-0.70219">
        <ele>1981.414551</ele>
        <time>2012-09-03T11:58:58Z</time>
      </trkpt>
      <trkpt lat="42.88297" lon="-0.70219">
        <ele>1981.895264</ele>
        <time>2012-09-03T11:58:59Z</time>
      </trkpt>
      <trkpt lat="42.88295" lon="-0.70216">
        <ele>1981.895264</ele>
        <time>2012-09-03T11:59:07Z</time>
      </trkpt>
      <trkpt lat="42.88299" lon="-0.70215">
        <ele>1980.453369</ele>
        <time>2012-09-03T11:59:21Z</time>
      </trkpt>
      <trkpt lat="42.88302" lon="-0.70216">
        <ele>1977.569092</ele>
        <time>2012-09-03T11:59:29Z</time>
      </trkpt>
      <trkpt lat="42.88306" lon="-0.70216">
        <ele>1978.530518</ele>
        <time>2012-09-03T11:59:35Z</time>
      </trkpt>
      <trkpt lat="42.88304" lon="-0.70214">
        <ele>1978.049805</ele>
        <time>2012-09-03T11:59:47Z</time>
      </trkpt>
      <trkpt lat="42.88305" lon="-0.70213">
        <ele>1976.60791</ele>
        <time>2012-09-03T11:59:55Z</time>
      </trkpt>
      <trkpt lat="42.88305" lon="-0.70211">
        <ele>1972.762695</ele>
        <time>2012-09-03T12:00:00Z</time>
      </trkpt>
      <trkpt lat="42.88305" lon="-0.70212">
        <ele>1972.762695</ele>
        <time>2012-09-03T12:00:01Z</time>
      </trkpt>
      <trkpt lat="42.88308" lon="-0.70212">
        <ele>1972.281982</ele>
        <time>2012-09-03T12:00:06Z</time>
      </trkpt>
      <trkpt lat="42.88308" lon="-0.70212">
        <ele>1975.165771</ele>
        <time>2012-09-03T12:00:12Z</time>
      </trkpt>
      <trkpt lat="42.88305" lon="-0.70209">
        <ele>1972.281982</ele>
        <time>2012-09-03T12:00:20Z</time>
      </trkpt>
      <trkpt lat="42.88306" lon="-0.70203">
        <ele>1968.436768</ele>
        <time>2012-09-03T12:00:50Z</time>
      </trkpt>
      <trkpt lat="42.88307" lon="-0.70204">
        <ele>1971.80127</ele>
        <time>2012-09-03T12:00:56Z</time>
      </trkpt>
      <trkpt lat="42.88307" lon="-0.70203">
        <ele>1971.320557</ele>
        <time>2012-09-03T12:00:57Z</time>
      </trkpt>
      <trkpt lat="42.88312" lon="-0.70201">
        <ele>1967.475342</ele>
        <time>2012-09-03T12:01:07Z</time>
      </trkpt>
      <trkpt lat="42.88314" lon="-0.70196">
        <ele>1963.629883</ele>
        <time>2012-09-03T12:01:25Z</time>
      </trkpt>
      <trkpt lat="42.88314" lon="-0.70196">
        <ele>1964.11084</ele>
        <time>2012-09-03T12:01:26Z</time>
      </trkpt>
      <trkpt lat="42.88316" lon="-0.70196">
        <ele>1961.226807</ele>
        <time>2012-09-03T12:01:38Z</time>
      </trkpt>
      <trkpt lat="42.88316" lon="-0.70195">
        <ele>1957.862305</ele>
        <time>2012-09-03T12:01:57Z</time>
      </trkpt>
      <trkpt lat="42.88323" lon="-0.70197">
        <ele>1954.01709</ele>
        <time>2012-09-03T12:02:34Z</time>
      </trkpt>
      <trkpt lat="42.8833" lon="-0.70199">
        <ele>1952.094238</ele>
        <time>2012-09-03T12:02:50Z</time>
      </trkpt>
      <trkpt lat="42.88334" lon="-0.70201">
        <ele>1952.574951</ele>
        <time>2012-09-03T12:03:07Z</time>
      </trkpt>
      <trkpt lat="42.88339" lon="-0.70201">
        <ele>1949.210449</ele>
        <time>2012-09-03T12:03:20Z</time>
      </trkpt>
      <trkpt lat="42.88343" lon="-0.702">
        <ele>1949.691162</ele>
        <time>2012-09-03T12:03:37Z</time>
      </trkpt>
      <trkpt lat="42.88343" lon="-0.702">
        <ele>1949.691162</ele>
        <time>2012-09-03T12:03:49Z</time>
      </trkpt>
      <trkpt lat="42.88344" lon="-0.70196">
        <ele>1946.326416</ele>
        <time>2012-09-03T12:05:35Z</time>
      </trkpt>
      <trkpt lat="42.88344" lon="-0.70196">
        <ele>1946.806885</ele>
        <time>2012-09-03T12:05:36Z</time>
      </trkpt>
      <trkpt lat="42.88345" lon="-0.70192">
        <ele>1943.923096</ele>
        <time>2012-09-03T12:05:57Z</time>
      </trkpt>
      <trkpt lat="42.88348" lon="-0.70187">
        <ele>1942.481201</ele>
        <time>2012-09-03T12:06:13Z</time>
      </trkpt>
      <trkpt lat="42.88347" lon="-0.70184">
        <ele>1941.039062</ele>
        <time>2012-09-03T12:06:21Z</time>
      </trkpt>
      <trkpt lat="42.88346" lon="-0.70182">
        <ele>1939.597168</ele>
        <time>2012-09-03T12:06:35Z</time>
      </trkpt>
      <trkpt lat="42.88345" lon="-0.70175">
        <ele>1935.751953</ele>
        <time>2012-09-03T12:06:50Z</time>
      </trkpt>
      <trkpt lat="42.88345" lon="-0.70174">
        <ele>1934.310059</ele>
        <time>2012-09-03T12:06:52Z</time>
      </trkpt>
      <trkpt lat="42.88347" lon="-0.70173">
        <ele>1933.348633</ele>
        <time>2012-09-03T12:07:02Z</time>
      </trkpt>
      <trkpt lat="42.88349" lon="-0.7017">
        <ele>1933.348633</ele>
        <time>2012-09-03T12:07:21Z</time>
      </trkpt>
      <trkpt lat="42.88348" lon="-0.70169">
        <ele>1931.906494</ele>
        <time>2012-09-03T12:07:25Z</time>
      </trkpt>
      <trkpt lat="42.88347" lon="-0.70167">
        <ele>1931.425781</ele>
        <time>2012-09-03T12:07:40Z</time>
      </trkpt>
      <trkpt lat="42.88347" lon="-0.70167">
        <ele>1931.906494</ele>
        <time>2012-09-03T12:07:48Z</time>
      </trkpt>
      <trkpt lat="42.88348" lon="-0.70166">
        <ele>1931.906494</ele>
        <time>2012-09-03T12:08:13Z</time>
      </trkpt>
      <trkpt lat="42.88349" lon="-0.70164">
        <ele>1930.945312</ele>
        <time>2012-09-03T12:08:27Z</time>
      </trkpt>
      <trkpt lat="42.88351" lon="-0.70162">
        <ele>1930.945312</ele>
        <time>2012-09-03T12:08:40Z</time>
      </trkpt>
      <trkpt lat="42.88352" lon="-0.70161">
        <ele>1929.022461</ele>
        <time>2012-09-03T12:08:44Z</time>
      </trkpt>
      <trkpt lat="42.88351" lon="-0.70155">
        <ele>1928.541992</ele>
        <time>2012-09-03T12:09:04Z</time>
      </trkpt>
      <trkpt lat="42.88349" lon="-0.70151">
        <ele>1928.541992</ele>
        <time>2012-09-03T12:09:23Z</time>
      </trkpt>
      <trkpt lat="42.88347" lon="-0.70147">
        <ele>1925.177246</ele>
        <time>2012-09-03T12:09:42Z</time>
      </trkpt>
      <trkpt lat="42.88346" lon="-0.70145">
        <ele>1923.254883</ele>
        <time>2012-09-03T12:09:51Z</time>
      </trkpt>
      <trkpt lat="42.88346" lon="-0.70143">
        <ele>1920.37085</ele>
        <time>2012-09-03T12:09:59Z</time>
      </trkpt>
      <trkpt lat="42.88345" lon="-0.70136">
        <ele>1920.37085</ele>
        <time>2012-09-03T12:10:23Z</time>
      </trkpt>
      <trkpt lat="42.88345" lon="-0.70132">
        <ele>1917.486816</ele>
        <time>2012-09-03T12:10:30Z</time>
      </trkpt>
      <trkpt lat="42.88346" lon="-0.70126">
        <ele>1916.525635</ele>
        <time>2012-09-03T12:10:46Z</time>
      </trkpt>
      <trkpt lat="42.88344" lon="-0.70111">
        <ele>1913.160889</ele>
        <time>2012-09-03T12:11:01Z</time>
      </trkpt>
      <trkpt lat="42.88343" lon="-0.70104">
        <ele>1912.680176</ele>
        <time>2012-09-03T12:11:09Z</time>
      </trkpt>
      <trkpt lat="42.88343" lon="-0.70101">
        <ele>1910.757568</ele>
        <time>2012-09-03T12:11:33Z</time>
      </trkpt>
      <trkpt lat="42.8834" lon="-0.70089">
        <ele>1911.238281</ele>
        <time>2012-09-03T12:11:56Z</time>
      </trkpt>
      <trkpt lat="42.88335" lon="-0.70084">
        <ele>1911.718994</ele>
        <time>2012-09-03T12:12:06Z</time>
      </trkpt>
      <trkpt lat="42.88334" lon="-0.70086">
        <ele>1913.160889</ele>
        <time>2012-09-03T12:12:10Z</time>
      </trkpt>
      <trkpt lat="42.88327" lon="-0.70087">
        <ele>1914.602783</ele>
        <time>2012-09-03T12:12:22Z</time>
      </trkpt>
      <trkpt lat="42.88322" lon="-0.70084">
        <ele>1914.602783</ele>
        <time>2012-09-03T12:12:38Z</time>
      </trkpt>
      <trkpt lat="42.88319" lon="-0.70082">
        <ele>1913.160889</ele>
        <time>2012-09-03T12:12:53Z</time>
      </trkpt>
      <trkpt lat="42.88321" lon="-0.7008">
        <ele>1909.796143</ele>
        <time>2012-09-03T12:13:03Z</time>
      </trkpt>
      <trkpt lat="42.88323" lon="-0.70075">
        <ele>1908.834961</ele>
        <time>2012-09-03T12:13:19Z</time>
      </trkpt>
      <trkpt lat="42.88323" lon="-0.70075">
        <ele>1911.238281</ele>
        <time>2012-09-03T12:13:29Z</time>
      </trkpt>
      <trkpt lat="42.88323" lon="-0.70074">
        <ele>1907.873779</ele>
        <time>2012-09-03T12:13:37Z</time>
      </trkpt>
      <trkpt lat="42.8832" lon="-0.70068">
        <ele>1905.950928</ele>
        <time>2012-09-03T12:13:52Z</time>
      </trkpt>
      <trkpt lat="42.88317" lon="-0.70062">
        <ele>1904.989746</ele>
        <time>2012-09-03T12:14:06Z</time>
      </trkpt>
      <trkpt lat="42.88314" lon="-0.70056">
        <ele>1901.625244</ele>
        <time>2012-09-03T12:14:20Z</time>
      </trkpt>
      <trkpt lat="42.88311" lon="-0.70049">
        <ele>1899.702393</ele>
        <time>2012-09-03T12:14:36Z</time>
      </trkpt>
      <trkpt lat="42.88308" lon="-0.70044">
        <ele>1897.299072</ele>
        <time>2012-09-03T12:14:52Z</time>
      </trkpt>
      <trkpt lat="42.88306" lon="-0.70033">
        <ele>1895.376465</ele>
        <time>2012-09-03T12:15:09Z</time>
      </trkpt>
      <trkpt lat="42.88308" lon="-0.70026">
        <ele>1893.453857</ele>
        <time>2012-09-03T12:15:27Z</time>
      </trkpt>
      <trkpt lat="42.88308" lon="-0.70025">
        <ele>1892.973145</ele>
        <time>2012-09-03T12:15:35Z</time>
      </trkpt>
      <trkpt lat="42.88308" lon="-0.70021">
        <ele>1892.011963</ele>
        <time>2012-09-03T12:15:51Z</time>
      </trkpt>
      <trkpt lat="42.88308" lon="-0.70019">
        <ele>1891.050537</ele>
        <time>2012-09-03T12:16:14Z</time>
      </trkpt>
      <trkpt lat="42.88309" lon="-0.70018">
        <ele>1892.011963</ele>
        <time>2012-09-03T12:16:59Z</time>
      </trkpt>
      <trkpt lat="42.88309" lon="-0.70017">
        <ele>1892.011963</ele>
        <time>2012-09-03T12:17:26Z</time>
      </trkpt>
      <trkpt lat="42.88309" lon="-0.70017">
        <ele>1893.93457</ele>
        <time>2012-09-03T12:17:29Z</time>
      </trkpt>
      <trkpt lat="42.88305" lon="-0.70005">
        <ele>1893.453857</ele>
        <time>2012-09-03T12:18:13Z</time>
      </trkpt>
      <trkpt lat="42.88306" lon="-0.70002">
        <ele>1890.089355</ele>
        <time>2012-09-03T12:18:23Z</time>
      </trkpt>
      <trkpt lat="42.88306" lon="-0.70001">
        <ele>1890.089355</ele>
        <time>2012-09-03T12:18:24Z</time>
      </trkpt>
      <trkpt lat="42.88306" lon="-0.69997">
        <ele>1886.724609</ele>
        <time>2012-09-03T12:18:35Z</time>
      </trkpt>
      <trkpt lat="42.88309" lon="-0.69995">
        <ele>1885.282715</ele>
        <time>2012-09-03T12:18:49Z</time>
      </trkpt>
      <trkpt lat="42.88306" lon="-0.6999">
        <ele>1884.321533</ele>
        <time>2012-09-03T12:19:13Z</time>
      </trkpt>
      <trkpt lat="42.88306" lon="-0.69984">
        <ele>1880.956787</ele>
        <time>2012-09-03T12:19:23Z</time>
      </trkpt>
      <trkpt lat="42.88308" lon="-0.6998">
        <ele>1879.995361</ele>
        <time>2012-09-03T12:19:40Z</time>
      </trkpt>
      <trkpt lat="42.88308" lon="-0.69974">
        <ele>1876.150146</ele>
        <time>2012-09-03T12:19:48Z</time>
      </trkpt>
      <trkpt lat="42.88308" lon="-0.69973">
        <ele>1876.150146</ele>
        <time>2012-09-03T12:19:49Z</time>
      </trkpt>
      <trkpt lat="42.88307" lon="-0.69961">
        <ele>1874.708252</ele>
        <time>2012-09-03T12:20:05Z</time>
      </trkpt>
      <trkpt lat="42.88309" lon="-0.69944">
        <ele>1874.708252</ele>
        <time>2012-09-03T12:20:25Z</time>
      </trkpt>
      <trkpt lat="42.8831" lon="-0.6993">
        <ele>1874.708252</ele>
        <time>2012-09-03T12:20:44Z</time>
      </trkpt>
      <trkpt lat="42.88311" lon="-0.69925">
        <ele>1872.304932</ele>
        <time>2012-09-03T12:21:05Z</time>
      </trkpt>
      <trkpt lat="42.88311" lon="-0.69916">
        <ele>1871.343506</ele>
        <time>2012-09-03T12:21:22Z</time>
      </trkpt>
      <trkpt lat="42.88311" lon="-0.69916">
        <ele>1872.304932</ele>
        <time>2012-09-03T12:21:25Z</time>
      </trkpt>
      <trkpt lat="42.88312" lon="-0.69908">
        <ele>1872.304932</ele>
        <time>2012-09-03T12:22:00Z</time>
      </trkpt>
      <trkpt lat="42.88313" lon="-0.69894">
        <ele>1870.863037</ele>
        <time>2012-09-03T12:22:37Z</time>
      </trkpt>
      <trkpt lat="42.88316" lon="-0.6988">
        <ele>1871.824219</ele>
        <time>2012-09-03T12:22:51Z</time>
      </trkpt>
      <trkpt lat="42.88321" lon="-0.69867">
        <ele>1871.343506</ele>
        <time>2012-09-03T12:23:09Z</time>
      </trkpt>
      <trkpt lat="42.88321" lon="-0.69866">
        <ele>1870.863037</ele>
        <time>2012-09-03T12:23:11Z</time>
      </trkpt>
      <trkpt lat="42.88325" lon="-0.69856">
        <ele>1871.824219</ele>
        <time>2012-09-03T12:23:25Z</time>
      </trkpt>
      <trkpt lat="42.88325" lon="-0.69845">
        <ele>1871.824219</ele>
        <time>2012-09-03T12:23:39Z</time>
      </trkpt>
      <trkpt lat="42.88322" lon="-0.69837">
        <ele>1868.459717</ele>
        <time>2012-09-03T12:23:51Z</time>
      </trkpt>
      <trkpt lat="42.88322" lon="-0.69836">
        <ele>1868.94043</ele>
        <time>2012-09-03T12:24:22Z</time>
      </trkpt>
      <trkpt lat="42.88322" lon="-0.69836">
        <ele>1870.382324</ele>
        <time>2012-09-03T12:24:26Z</time>
      </trkpt>
      <trkpt lat="42.88322" lon="-0.69835">
        <ele>1869.901611</ele>
        <time>2012-09-03T12:24:47Z</time>
      </trkpt>
      <trkpt lat="42.88322" lon="-0.69836">
        <ele>1870.863037</ele>
        <time>2012-09-03T12:24:59Z</time>
      </trkpt>
      <trkpt lat="42.88321" lon="-0.69836">
        <ele>1867.498047</ele>
        <time>2012-09-03T12:25:28Z</time>
      </trkpt>
      <trkpt lat="42.88321" lon="-0.69838">
        <ele>1868.94043</ele>
        <time>2012-09-03T12:26:40Z</time>
      </trkpt>
      <trkpt lat="42.88321" lon="-0.69837">
        <ele>1865.575684</ele>
        <time>2012-09-03T12:27:51Z</time>
      </trkpt>
      <trkpt lat="42.88321" lon="-0.69837">
        <ele>1869.901611</ele>
        <time>2012-09-03T12:27:57Z</time>
      </trkpt>
      <trkpt lat="42.8832" lon="-0.69837">
        <ele>1866.056152</ele>
        <time>2012-09-03T12:28:46Z</time>
      </trkpt>
      <trkpt lat="42.8832" lon="-0.69837">
        <ele>1869.421143</ele>
        <time>2012-09-03T12:30:10Z</time>
      </trkpt>
      <trkpt lat="42.88321" lon="-0.69837">
        <ele>1869.901611</ele>
        <time>2012-09-03T12:30:18Z</time>
      </trkpt>
      <trkpt lat="42.88323" lon="-0.69832">
        <ele>1869.421143</ele>
        <time>2012-09-03T12:31:03Z</time>
      </trkpt>
      <trkpt lat="42.88323" lon="-0.6983">
        <ele>1867.498047</ele>
        <time>2012-09-03T12:31:08Z</time>
      </trkpt>
      <trkpt lat="42.88323" lon="-0.69827">
        <ele>1865.094971</ele>
        <time>2012-09-03T12:31:14Z</time>
      </trkpt>
      <trkpt lat="42.88329" lon="-0.6981">
        <ele>1863.172363</ele>
        <time>2012-09-03T12:31:29Z</time>
      </trkpt>
      <trkpt lat="42.88329" lon="-0.69802">
        <ele>1864.614258</ele>
        <time>2012-09-03T12:31:37Z</time>
      </trkpt>
      <trkpt lat="42.88326" lon="-0.6979">
        <ele>1868.459717</ele>
        <time>2012-09-03T12:31:50Z</time>
      </trkpt>
      <trkpt lat="42.88324" lon="-0.69789">
        <ele>1867.97876</ele>
        <time>2012-09-03T12:32:06Z</time>
      </trkpt>
      <trkpt lat="42.88322" lon="-0.69791">
        <ele>1866.536865</ele>
        <time>2012-09-03T12:32:12Z</time>
      </trkpt>
      <trkpt lat="42.88319" lon="-0.69792">
        <ele>1866.536865</ele>
        <time>2012-09-03T12:32:26Z</time>
      </trkpt>
      <trkpt lat="42.88316" lon="-0.69791">
        <ele>1865.575684</ele>
        <time>2012-09-03T12:32:39Z</time>
      </trkpt>
      <trkpt lat="42.88315" lon="-0.69788">
        <ele>1863.172363</ele>
        <time>2012-09-03T12:32:55Z</time>
      </trkpt>
      <trkpt lat="42.88313" lon="-0.69788">
        <ele>1863.172363</ele>
        <time>2012-09-03T12:33:16Z</time>
      </trkpt>
      <trkpt lat="42.88312" lon="-0.69788">
        <ele>1861.730469</ele>
        <time>2012-09-03T12:33:31Z</time>
      </trkpt>
      <trkpt lat="42.88311" lon="-0.69785">
        <ele>1860.28833</ele>
        <time>2012-09-03T12:33:52Z</time>
      </trkpt>
      <trkpt lat="42.88311" lon="-0.69784">
        <ele>1858.365723</ele>
        <time>2012-09-03T12:33:58Z</time>
      </trkpt>
      <trkpt lat="42.88311" lon="-0.69782">
        <ele>1856.923828</ele>
        <time>2012-09-03T12:34:10Z</time>
      </trkpt>
      <trkpt lat="42.88314" lon="-0.69779">
        <ele>1854.520508</ele>
        <time>2012-09-03T12:34:23Z</time>
      </trkpt>
      <trkpt lat="42.88315" lon="-0.69778">
        <ele>1851.636475</ele>
        <time>2012-09-03T12:34:38Z</time>
      </trkpt>
      <trkpt lat="42.88317" lon="-0.69776">
        <ele>1849.233154</ele>
        <time>2012-09-03T12:34:55Z</time>
      </trkpt>
      <trkpt lat="42.88318" lon="-0.69773">
        <ele>1848.271729</ele>
        <time>2012-09-03T12:35:17Z</time>
      </trkpt>
      <trkpt lat="42.8832" lon="-0.69772">
        <ele>1846.349365</ele>
        <time>2012-09-03T12:35:33Z</time>
      </trkpt>
      <trkpt lat="42.88322" lon="-0.69768">
        <ele>1845.868652</ele>
        <time>2012-09-03T12:35:45Z</time>
      </trkpt>
      <trkpt lat="42.8832" lon="-0.69766">
        <ele>1842.50415</ele>
        <time>2012-09-03T12:35:56Z</time>
      </trkpt>
      <trkpt lat="42.88321" lon="-0.69766">
        <ele>1842.023438</ele>
        <time>2012-09-03T12:35:58Z</time>
      </trkpt>
      <trkpt lat="42.88323" lon="-0.69762">
        <ele>1841.062012</ele>
        <time>2012-09-03T12:36:13Z</time>
      </trkpt>
      <trkpt lat="42.88324" lon="-0.69759">
        <ele>1839.139404</ele>
        <time>2012-09-03T12:36:31Z</time>
      </trkpt>
      <trkpt lat="42.88323" lon="-0.69758">
        <ele>1837.69751</ele>
        <time>2012-09-03T12:36:34Z</time>
      </trkpt>
      <trkpt lat="42.88322" lon="-0.69758">
        <ele>1836.255615</ele>
        <time>2012-09-03T12:36:39Z</time>
      </trkpt>
      <trkpt lat="42.88321" lon="-0.69756">
        <ele>1834.813477</ele>
        <time>2012-09-03T12:36:47Z</time>
      </trkpt>
      <trkpt lat="42.88322" lon="-0.69752">
        <ele>1833.371338</ele>
        <time>2012-09-03T12:36:58Z</time>
      </trkpt>
      <trkpt lat="42.88321" lon="-0.69746">
        <ele>1831.44873</ele>
        <time>2012-09-03T12:37:18Z</time>
      </trkpt>
      <trkpt lat="42.88323" lon="-0.69744">
        <ele>1830.487549</ele>
        <time>2012-09-03T12:37:34Z</time>
      </trkpt>
      <trkpt lat="42.88323" lon="-0.69741">
        <ele>1829.04541</ele>
        <time>2012-09-03T12:37:56Z</time>
      </trkpt>
      <trkpt lat="42.88322" lon="-0.69737">
        <ele>1826.161621</ele>
        <time>2012-09-03T12:38:04Z</time>
      </trkpt>
      <trkpt lat="42.88323" lon="-0.69732">
        <ele>1825.200195</ele>
        <time>2012-09-03T12:38:19Z</time>
      </trkpt>
      <trkpt lat="42.88323" lon="-0.69729">
        <ele>1822.797119</ele>
        <time>2012-09-03T12:38:28Z</time>
      </trkpt>
      <trkpt lat="42.88323" lon="-0.69724">
        <ele>1819.912842</ele>
        <time>2012-09-03T12:38:41Z</time>
      </trkpt>
      <trkpt lat="42.88325" lon="-0.69723">
        <ele>1817.029053</ele>
        <time>2012-09-03T12:38:47Z</time>
      </trkpt>
      <trkpt lat="42.88325" lon="-0.69723">
        <ele>1817.029053</ele>
        <time>2012-09-03T12:38:48Z</time>
      </trkpt>
      <trkpt lat="42.88329" lon="-0.69721">
        <ele>1816.067627</ele>
        <time>2012-09-03T12:39:10Z</time>
      </trkpt>
      <trkpt lat="42.88333" lon="-0.69717">
        <ele>1813.183838</ele>
        <time>2012-09-03T12:39:25Z</time>
      </trkpt>
      <trkpt lat="42.88332" lon="-0.69712">
        <ele>1810.780518</ele>
        <time>2012-09-03T12:39:35Z</time>
      </trkpt>
      <trkpt lat="42.88333" lon="-0.69711">
        <ele>1809.338623</ele>
        <time>2012-09-03T12:39:38Z</time>
      </trkpt>
      <trkpt lat="42.88335" lon="-0.69709">
        <ele>1808.85791</ele>
        <time>2012-09-03T12:39:56Z</time>
      </trkpt>
      <trkpt lat="42.88339" lon="-0.69703">
        <ele>1807.896729</ele>
        <time>2012-09-03T12:40:11Z</time>
      </trkpt>
      <trkpt lat="42.88338" lon="-0.69703">
        <ele>1806.935303</ele>
        <time>2012-09-03T12:40:19Z</time>
      </trkpt>
      <trkpt lat="42.88341" lon="-0.69699">
        <ele>1804.051514</ele>
        <time>2012-09-03T12:40:33Z</time>
      </trkpt>
      <trkpt lat="42.88341" lon="-0.69698">
        <ele>1802.609131</ele>
        <time>2012-09-03T12:40:37Z</time>
      </trkpt>
      <trkpt lat="42.88341" lon="-0.69698">
        <ele>1803.570557</ele>
        <time>2012-09-03T12:40:43Z</time>
      </trkpt>
      <trkpt lat="42.88343" lon="-0.69694">
        <ele>1800.206055</ele>
        <time>2012-09-03T12:40:59Z</time>
      </trkpt>
      <trkpt lat="42.88346" lon="-0.69692">
        <ele>1799.244629</ele>
        <time>2012-09-03T12:41:19Z</time>
      </trkpt>
      <trkpt lat="42.88349" lon="-0.69689">
        <ele>1797.802734</ele>
        <time>2012-09-03T12:41:40Z</time>
      </trkpt>
      <trkpt lat="42.88351" lon="-0.69686">
        <ele>1794.918701</ele>
        <time>2012-09-03T12:42:00Z</time>
      </trkpt>
      <trkpt lat="42.88351" lon="-0.69686">
        <ele>1794.918701</ele>
        <time>2012-09-03T12:42:01Z</time>
      </trkpt>
      <trkpt lat="42.88357" lon="-0.69688">
        <ele>1792.996094</ele>
        <time>2012-09-03T12:42:18Z</time>
      </trkpt>
      <trkpt lat="42.88363" lon="-0.69694">
        <ele>1792.034912</ele>
        <time>2012-09-03T12:42:27Z</time>
      </trkpt>
      <trkpt lat="42.88369" lon="-0.69698">
        <ele>1790.112305</ele>
        <time>2012-09-03T12:42:36Z</time>
      </trkpt>
      <trkpt lat="42.88375" lon="-0.69702">
        <ele>1786.747314</ele>
        <time>2012-09-03T12:42:49Z</time>
      </trkpt>
      <trkpt lat="42.88377" lon="-0.697">
        <ele>1786.747314</ele>
        <time>2012-09-03T12:43:07Z</time>
      </trkpt>
      <trkpt lat="42.88381" lon="-0.69701">
        <ele>1783.382812</ele>
        <time>2012-09-03T12:43:21Z</time>
      </trkpt>
      <trkpt lat="42.88382" lon="-0.69702">
        <ele>1783.382812</ele>
        <time>2012-09-03T12:43:22Z</time>
      </trkpt>
      <trkpt lat="42.88385" lon="-0.69702">
        <ele>1780.979736</ele>
        <time>2012-09-03T12:43:26Z</time>
      </trkpt>
      <trkpt lat="42.88394" lon="-0.69707">
        <ele>1778.576416</ele>
        <time>2012-09-03T12:43:43Z</time>
      </trkpt>
      <trkpt lat="42.88403" lon="-0.69718">
        <ele>1778.095703</ele>
        <time>2012-09-03T12:44:01Z</time>
      </trkpt>
      <trkpt lat="42.88412" lon="-0.69727">
        <ele>1775.692383</ele>
        <time>2012-09-03T12:44:17Z</time>
      </trkpt>
      <trkpt lat="42.88418" lon="-0.69727">
        <ele>1776.173096</ele>
        <time>2012-09-03T12:44:32Z</time>
      </trkpt>
      <trkpt lat="42.88422" lon="-0.69725">
        <ele>1775.692383</ele>
        <time>2012-09-03T12:44:45Z</time>
      </trkpt>
      <trkpt lat="42.88427" lon="-0.69718">
        <ele>1773.769775</ele>
        <time>2012-09-03T12:44:55Z</time>
      </trkpt>
      <trkpt lat="42.88431" lon="-0.69714">
        <ele>1774.250488</ele>
        <time>2012-09-03T12:45:06Z</time>
      </trkpt>
      <trkpt lat="42.88434" lon="-0.69714">
        <ele>1773.289307</ele>
        <time>2012-09-03T12:45:23Z</time>
      </trkpt>
      <trkpt lat="42.88436" lon="-0.69712">
        <ele>1774.731201</ele>
        <time>2012-09-03T12:46:17Z</time>
      </trkpt>
      <trkpt lat="42.88414" lon="-0.69691">
        <ele>1771.366211</ele>
        <time>2012-09-03T12:47:03Z</time>
      </trkpt>
      <trkpt lat="42.88429" lon="-0.69694">
        <ele>1770.405029</ele>
        <time>2012-09-03T12:47:18Z</time>
      </trkpt>
      <trkpt lat="42.88444" lon="-0.6969">
        <ele>1770.885742</ele>
        <time>2012-09-03T12:47:33Z</time>
      </trkpt>
      <trkpt lat="42.88451" lon="-0.69682">
        <ele>1768.482422</ele>
        <time>2012-09-03T12:47:47Z</time>
      </trkpt>
      <trkpt lat="42.88457" lon="-0.69676">
        <ele>1767.040527</ele>
        <time>2012-09-03T12:48:00Z</time>
      </trkpt>
      <trkpt lat="42.88463" lon="-0.6967">
        <ele>1765.11792</ele>
        <time>2012-09-03T12:48:15Z</time>
      </trkpt>
      <trkpt lat="42.88465" lon="-0.69666">
        <ele>1761.753418</ele>
        <time>2012-09-03T12:48:24Z</time>
      </trkpt>
      <trkpt lat="42.88471" lon="-0.69659">
        <ele>1760.791992</ele>
        <time>2012-09-03T12:48:37Z</time>
      </trkpt>
      <trkpt lat="42.88473" lon="-0.69656">
        <ele>1759.350098</ele>
        <time>2012-09-03T12:48:42Z</time>
      </trkpt>
      <trkpt lat="42.8848" lon="-0.69642">
        <ele>1757.908203</ele>
        <time>2012-09-03T12:48:57Z</time>
      </trkpt>
      <trkpt lat="42.88488" lon="-0.69632">
        <ele>1756.466064</ele>
        <time>2012-09-03T12:49:13Z</time>
      </trkpt>
      <trkpt lat="42.88491" lon="-0.69629">
        <ele>1753.582031</ele>
        <time>2012-09-03T12:49:20Z</time>
      </trkpt>
      <trkpt lat="42.88493" lon="-0.69627">
        <ele>1755.504639</ele>
        <time>2012-09-03T12:49:24Z</time>
      </trkpt>
      <trkpt lat="42.88494" lon="-0.69624">
        <ele>1752.620605</ele>
        <time>2012-09-03T12:49:29Z</time>
      </trkpt>
      <trkpt lat="42.88495" lon="-0.69623">
        <ele>1752.620605</ele>
        <time>2012-09-03T12:49:30Z</time>
      </trkpt>
      <trkpt lat="42.88497" lon="-0.69621">
        <ele>1749.736816</ele>
        <time>2012-09-03T12:49:34Z</time>
      </trkpt>
      <trkpt lat="42.88504" lon="-0.69617">
        <ele>1749.256104</ele>
        <time>2012-09-03T12:49:44Z</time>
      </trkpt>
      <trkpt lat="42.8851" lon="-0.69612">
        <ele>1745.891602</ele>
        <time>2012-09-03T12:49:54Z</time>
      </trkpt>
      <trkpt lat="42.8851" lon="-0.69612">
        <ele>1746.372314</ele>
        <time>2012-09-03T12:49:55Z</time>
      </trkpt>
      <trkpt lat="42.88514" lon="-0.69609">
        <ele>1742.5271</ele>
        <time>2012-09-03T12:50:03Z</time>
      </trkpt>
      <trkpt lat="42.88516" lon="-0.69606">
        <ele>1741.084961</ele>
        <time>2012-09-03T12:50:08Z</time>
      </trkpt>
      <trkpt lat="42.88519" lon="-0.69602">
        <ele>1739.642822</ele>
        <time>2012-09-03T12:50:17Z</time>
      </trkpt>
      <trkpt lat="42.88529" lon="-0.69594">
        <ele>1736.758789</ele>
        <time>2012-09-03T12:50:33Z</time>
      </trkpt>
      <trkpt lat="42.88534" lon="-0.69589">
        <ele>1736.27832</ele>
        <time>2012-09-03T12:50:42Z</time>
      </trkpt>
      <trkpt lat="42.88535" lon="-0.69587">
        <ele>1737.239502</ele>
        <time>2012-09-03T12:50:45Z</time>
      </trkpt>
      <trkpt lat="42.88538" lon="-0.69581">
        <ele>1733.875</ele>
        <time>2012-09-03T12:50:54Z</time>
      </trkpt>
      <trkpt lat="42.88544" lon="-0.69576">
        <ele>1735.316895</ele>
        <time>2012-09-03T12:51:03Z</time>
      </trkpt>
      <trkpt lat="42.88545" lon="-0.69575">
        <ele>1731.47168</ele>
        <time>2012-09-03T12:51:06Z</time>
      </trkpt>
      <trkpt lat="42.88546" lon="-0.69574">
        <ele>1732.913574</ele>
        <time>2012-09-03T12:51:07Z</time>
      </trkpt>
      <trkpt lat="42.88547" lon="-0.69568">
        <ele>1729.549072</ele>
        <time>2012-09-03T12:51:19Z</time>
      </trkpt>
      <trkpt lat="42.88549" lon="-0.69566">
        <ele>1730.991211</ele>
        <time>2012-09-03T12:51:23Z</time>
      </trkpt>
      <trkpt lat="42.88551" lon="-0.69562">
        <ele>1728.107178</ele>
        <time>2012-09-03T12:51:32Z</time>
      </trkpt>
      <trkpt lat="42.88552" lon="-0.69561">
        <ele>1726.665283</ele>
        <time>2012-09-03T12:51:34Z</time>
      </trkpt>
      <trkpt lat="42.88553" lon="-0.69559">
        <ele>1726.665283</ele>
        <time>2012-09-03T12:51:38Z</time>
      </trkpt>
      <trkpt lat="42.88555" lon="-0.69557">
        <ele>1725.223145</ele>
        <time>2012-09-03T12:51:46Z</time>
      </trkpt>
      <trkpt lat="42.88557" lon="-0.69554">
        <ele>1722.339111</ele>
        <time>2012-09-03T12:51:54Z</time>
      </trkpt>
      <trkpt lat="42.88562" lon="-0.6955">
        <ele>1723.300537</ele>
        <time>2012-09-03T12:52:09Z</time>
      </trkpt>
      <trkpt lat="42.88565" lon="-0.69549">
        <ele>1719.455322</ele>
        <time>2012-09-03T12:52:16Z</time>
      </trkpt>
      <trkpt lat="42.8857" lon="-0.69543">
        <ele>1718.013184</ele>
        <time>2012-09-03T12:52:32Z</time>
      </trkpt>
      <trkpt lat="42.88573" lon="-0.69543">
        <ele>1717.052002</ele>
        <time>2012-09-03T12:52:36Z</time>
      </trkpt>
      <trkpt lat="42.88577" lon="-0.69541">
        <ele>1713.687256</ele>
        <time>2012-09-03T12:52:45Z</time>
      </trkpt>
      <trkpt lat="42.88583" lon="-0.69539">
        <ele>1712.726074</ele>
        <time>2012-09-03T12:53:02Z</time>
      </trkpt>
      <trkpt lat="42.88583" lon="-0.69534">
        <ele>1710.322754</ele>
        <time>2012-09-03T12:53:21Z</time>
      </trkpt>
      <trkpt lat="42.88584" lon="-0.69531">
        <ele>1707.438721</ele>
        <time>2012-09-03T12:53:27Z</time>
      </trkpt>
      <trkpt lat="42.88584" lon="-0.69531">
        <ele>1707.438721</ele>
        <time>2012-09-03T12:53:28Z</time>
      </trkpt>
      <trkpt lat="42.88587" lon="-0.69524">
        <ele>1704.554688</ele>
        <time>2012-09-03T12:53:43Z</time>
      </trkpt>
      <trkpt lat="42.8859" lon="-0.69521">
        <ele>1701.190186</ele>
        <time>2012-09-03T12:53:56Z</time>
      </trkpt>
      <trkpt lat="42.88594" lon="-0.69514">
        <ele>1700.229004</ele>
        <time>2012-09-03T12:54:10Z</time>
      </trkpt>
      <trkpt lat="42.88595" lon="-0.69511">
        <ele>1697.344971</ele>
        <time>2012-09-03T12:54:15Z</time>
      </trkpt>
      <trkpt lat="42.886" lon="-0.69502">
        <ele>1694.94165</ele>
        <time>2012-09-03T12:54:31Z</time>
      </trkpt>
      <trkpt lat="42.88604" lon="-0.69489">
        <ele>1691.096191</ele>
        <time>2012-09-03T12:54:44Z</time>
      </trkpt>
      <trkpt lat="42.88604" lon="-0.69488">
        <ele>1691.096191</ele>
        <time>2012-09-03T12:54:45Z</time>
      </trkpt>
      <trkpt lat="42.88608" lon="-0.6948">
        <ele>1690.13501</ele>
        <time>2012-09-03T12:54:54Z</time>
      </trkpt>
      <trkpt lat="42.88617" lon="-0.69465">
        <ele>1688.693115</ele>
        <time>2012-09-03T12:55:12Z</time>
      </trkpt>
      <trkpt lat="42.8862" lon="-0.69459">
        <ele>1685.328369</ele>
        <time>2012-09-03T12:55:22Z</time>
      </trkpt>
      <trkpt lat="42.88624" lon="-0.69453">
        <ele>1681.963867</ele>
        <time>2012-09-03T12:55:31Z</time>
      </trkpt>
      <trkpt lat="42.88624" lon="-0.69453">
        <ele>1681.483154</ele>
        <time>2012-09-03T12:55:32Z</time>
      </trkpt>
      <trkpt lat="42.88629" lon="-0.69449">
        <ele>1679.560547</ele>
        <time>2012-09-03T12:55:46Z</time>
      </trkpt>
      <trkpt lat="42.88633" lon="-0.69444">
        <ele>1677.637939</ele>
        <time>2012-09-03T12:56:02Z</time>
      </trkpt>
      <trkpt lat="42.88641" lon="-0.69439">
        <ele>1674.273193</ele>
        <time>2012-09-03T12:56:17Z</time>
      </trkpt>
      <trkpt lat="42.88647" lon="-0.69432">
        <ele>1671.38916</ele>
        <time>2012-09-03T12:56:30Z</time>
      </trkpt>
      <trkpt lat="42.88651" lon="-0.69425">
        <ele>1668.505371</ele>
        <time>2012-09-03T12:56:46Z</time>
      </trkpt>
      <trkpt lat="42.88653" lon="-0.69419">
        <ele>1668.986084</ele>
        <time>2012-09-03T12:57:02Z</time>
      </trkpt>
      <trkpt lat="42.88656" lon="-0.6941">
        <ele>1667.543945</ele>
        <time>2012-09-03T12:57:16Z</time>
      </trkpt>
      <trkpt lat="42.88659" lon="-0.69403">
        <ele>1665.621582</ele>
        <time>2012-09-03T12:57:29Z</time>
      </trkpt>
      <trkpt lat="42.88667" lon="-0.69394">
        <ele>1665.140869</ele>
        <time>2012-09-03T12:57:45Z</time>
      </trkpt>
      <trkpt lat="42.88669" lon="-0.69392">
        <ele>1663.218262</ele>
        <time>2012-09-03T12:57:49Z</time>
      </trkpt>
      <trkpt lat="42.88671" lon="-0.6939">
        <ele>1661.776367</ele>
        <time>2012-09-03T12:57:52Z</time>
      </trkpt>
      <trkpt lat="42.88679" lon="-0.6938">
        <ele>1661.295654</ele>
        <time>2012-09-03T12:58:10Z</time>
      </trkpt>
      <trkpt lat="42.88684" lon="-0.69372">
        <ele>1659.372803</ele>
        <time>2012-09-03T12:58:24Z</time>
      </trkpt>
      <trkpt lat="42.88691" lon="-0.69366">
        <ele>1658.411377</ele>
        <time>2012-09-03T12:58:38Z</time>
      </trkpt>
      <trkpt lat="42.88697" lon="-0.69362">
        <ele>1656.48877</ele>
        <time>2012-09-03T12:58:53Z</time>
      </trkpt>
      <trkpt lat="42.88698" lon="-0.69362">
        <ele>1655.527588</ele>
        <time>2012-09-03T12:58:55Z</time>
      </trkpt>
      <trkpt lat="42.8871" lon="-0.69354">
        <ele>1655.046875</ele>
        <time>2012-09-03T12:59:13Z</time>
      </trkpt>
      <trkpt lat="42.88712" lon="-0.69354">
        <ele>1654.085693</ele>
        <time>2012-09-03T12:59:15Z</time>
      </trkpt>
      <trkpt lat="42.88722" lon="-0.69355">
        <ele>1653.124268</ele>
        <time>2012-09-03T12:59:31Z</time>
      </trkpt>
      <trkpt lat="42.88734" lon="-0.69354">
        <ele>1652.643555</ele>
        <time>2012-09-03T12:59:47Z</time>
      </trkpt>
      <trkpt lat="42.8874" lon="-0.6935">
        <ele>1651.682373</ele>
        <time>2012-09-03T13:00:01Z</time>
      </trkpt>
      <trkpt lat="42.88745" lon="-0.69346">
        <ele>1650.720947</ele>
        <time>2012-09-03T13:00:19Z</time>
      </trkpt>
      <trkpt lat="42.88749" lon="-0.69343">
        <ele>1647.837158</ele>
        <time>2012-09-03T13:00:33Z</time>
      </trkpt>
      <trkpt lat="42.88752" lon="-0.69335">
        <ele>1644.953125</ele>
        <time>2012-09-03T13:00:48Z</time>
      </trkpt>
      <trkpt lat="42.88757" lon="-0.69331">
        <ele>1642.549805</ele>
        <time>2012-09-03T13:01:02Z</time>
      </trkpt>
      <trkpt lat="42.88761" lon="-0.69326">
        <ele>1639.665771</ele>
        <time>2012-09-03T13:01:16Z</time>
      </trkpt>
      <trkpt lat="42.88767" lon="-0.69324">
        <ele>1638.70459</ele>
        <time>2012-09-03T13:01:31Z</time>
      </trkpt>
      <trkpt lat="42.88772" lon="-0.69322">
        <ele>1635.339844</ele>
        <time>2012-09-03T13:01:38Z</time>
      </trkpt>
      <trkpt lat="42.88779" lon="-0.69316">
        <ele>1631.975342</ele>
        <time>2012-09-03T13:01:51Z</time>
      </trkpt>
      <trkpt lat="42.8879" lon="-0.69321">
        <ele>1630.533447</ele>
        <time>2012-09-03T13:02:07Z</time>
      </trkpt>
      <trkpt lat="42.88792" lon="-0.69321">
        <ele>1629.091309</ele>
        <time>2012-09-03T13:02:09Z</time>
      </trkpt>
      <trkpt lat="42.88796" lon="-0.69315">
        <ele>1626.687988</ele>
        <time>2012-09-03T13:02:15Z</time>
      </trkpt>
      <trkpt lat="42.88796" lon="-0.69302">
        <ele>1626.207275</ele>
        <time>2012-09-03T13:02:30Z</time>
      </trkpt>
      <trkpt lat="42.88799" lon="-0.69291">
        <ele>1626.207275</ele>
        <time>2012-09-03T13:02:41Z</time>
      </trkpt>
      <trkpt lat="42.888" lon="-0.69276">
        <ele>1628.130127</ele>
        <time>2012-09-03T13:02:52Z</time>
      </trkpt>
      <trkpt lat="42.88807" lon="-0.69261">
        <ele>1629.091309</ele>
        <time>2012-09-03T13:03:08Z</time>
      </trkpt>
      <trkpt lat="42.88808" lon="-0.6926">
        <ele>1628.61084</ele>
        <time>2012-09-03T13:03:09Z</time>
      </trkpt>
      <trkpt lat="42.88817" lon="-0.69243">
        <ele>1627.64917</ele>
        <time>2012-09-03T13:03:24Z</time>
      </trkpt>
      <trkpt lat="42.88819" lon="-0.69241">
        <ele>1628.130127</ele>
        <time>2012-09-03T13:03:26Z</time>
      </trkpt>
      <trkpt lat="42.8883" lon="-0.69229">
        <ele>1626.207275</ele>
        <time>2012-09-03T13:03:42Z</time>
      </trkpt>
      <trkpt lat="42.88836" lon="-0.69221">
        <ele>1624.284668</ele>
        <time>2012-09-03T13:03:50Z</time>
      </trkpt>
      <trkpt lat="42.88837" lon="-0.69219">
        <ele>1623.803955</ele>
        <time>2012-09-03T13:03:52Z</time>
      </trkpt>
      <trkpt lat="42.88848" lon="-0.69199">
        <ele>1621.881348</ele>
        <time>2012-09-03T13:04:10Z</time>
      </trkpt>
      <trkpt lat="42.88853" lon="-0.69195">
        <ele>1622.842773</ele>
        <time>2012-09-03T13:04:16Z</time>
      </trkpt>
      <trkpt lat="42.88865" lon="-0.69188">
        <ele>1622.362061</ele>
        <time>2012-09-03T13:04:30Z</time>
      </trkpt>
      <trkpt lat="42.88874" lon="-0.69183">
        <ele>1620.439453</ele>
        <time>2012-09-03T13:04:45Z</time>
      </trkpt>
      <trkpt lat="42.88886" lon="-0.69175">
        <ele>1618.516846</ele>
        <time>2012-09-03T13:05:00Z</time>
      </trkpt>
      <trkpt lat="42.88889" lon="-0.69165">
        <ele>1615.152344</ele>
        <time>2012-09-03T13:05:15Z</time>
      </trkpt>
      <trkpt lat="42.88889" lon="-0.69164">
        <ele>1615.152344</ele>
        <time>2012-09-03T13:05:16Z</time>
      </trkpt>
      <trkpt lat="42.88891" lon="-0.69157">
        <ele>1612.268311</ele>
        <time>2012-09-03T13:05:24Z</time>
      </trkpt>
      <trkpt lat="42.8889" lon="-0.69152">
        <ele>1609.864746</ele>
        <time>2012-09-03T13:05:40Z</time>
      </trkpt>
      <trkpt lat="42.88889" lon="-0.69151">
        <ele>1612.268311</ele>
        <time>2012-09-03T13:06:02Z</time>
      </trkpt>
      <trkpt lat="42.8889" lon="-0.6915">
        <ele>1611.787598</ele>
        <time>2012-09-03T13:06:17Z</time>
      </trkpt>
      <trkpt lat="42.88892" lon="-0.69153">
        <ele>1612.749023</ele>
        <time>2012-09-03T13:07:12Z</time>
      </trkpt>
      <trkpt lat="42.8889" lon="-0.69149">
        <ele>1609.384277</ele>
        <time>2012-09-03T13:08:18Z</time>
      </trkpt>
      <trkpt lat="42.8889" lon="-0.6915">
        <ele>1612.749023</ele>
        <time>2012-09-03T13:08:19Z</time>
      </trkpt>
      <trkpt lat="42.88889" lon="-0.69149">
        <ele>1610.826172</ele>
        <time>2012-09-03T13:08:40Z</time>
      </trkpt>
      <trkpt lat="42.88889" lon="-0.69151">
        <ele>1612.749023</ele>
        <time>2012-09-03T13:09:33Z</time>
      </trkpt>
      <trkpt lat="42.8889" lon="-0.69151">
        <ele>1613.229736</ele>
        <time>2012-09-03T13:11:16Z</time>
      </trkpt>
      <trkpt lat="42.8889" lon="-0.6915">
        <ele>1614.671631</ele>
        <time>2012-09-03T13:11:51Z</time>
      </trkpt>
      <trkpt lat="42.8889" lon="-0.6915">
        <ele>1612.268311</ele>
        <time>2012-09-03T13:12:32Z</time>
      </trkpt>
      <trkpt lat="42.88888" lon="-0.69142">
        <ele>1611.787598</ele>
        <time>2012-09-03T13:13:14Z</time>
      </trkpt>
      <trkpt lat="42.88884" lon="-0.69133">
        <ele>1610.345459</ele>
        <time>2012-09-03T13:13:25Z</time>
      </trkpt>
      <trkpt lat="42.88882" lon="-0.69123">
        <ele>1606.980957</ele>
        <time>2012-09-03T13:13:39Z</time>
      </trkpt>
      <trkpt lat="42.88883" lon="-0.69106">
        <ele>1604.097168</ele>
        <time>2012-09-03T13:13:58Z</time>
      </trkpt>
      <trkpt lat="42.88887" lon="-0.69087">
        <ele>1602.655029</ele>
        <time>2012-09-03T13:14:16Z</time>
      </trkpt>
      <trkpt lat="42.88887" lon="-0.69086">
        <ele>1602.655029</ele>
        <time>2012-09-03T13:14:17Z</time>
      </trkpt>
      <trkpt lat="42.88891" lon="-0.69063">
        <ele>1601.693848</ele>
        <time>2012-09-03T13:14:35Z</time>
      </trkpt>
      <trkpt lat="42.88894" lon="-0.69045">
        <ele>1602.174316</ele>
        <time>2012-09-03T13:14:51Z</time>
      </trkpt>
      <trkpt lat="42.88899" lon="-0.69032">
        <ele>1598.809814</ele>
        <time>2012-09-03T13:15:04Z</time>
      </trkpt>
      <trkpt lat="42.88901" lon="-0.69031">
        <ele>1599.290527</ele>
        <time>2012-09-03T13:15:06Z</time>
      </trkpt>
      <trkpt lat="42.8892" lon="-0.69016">
        <ele>1597.36792</ele>
        <time>2012-09-03T13:15:26Z</time>
      </trkpt>
      <trkpt lat="42.88925" lon="-0.69005">
        <ele>1594.964355</ele>
        <time>2012-09-03T13:15:42Z</time>
      </trkpt>
      <trkpt lat="42.88931" lon="-0.68988">
        <ele>1592.561279</ele>
        <time>2012-09-03T13:15:58Z</time>
      </trkpt>
      <trkpt lat="42.88933" lon="-0.68967">
        <ele>1590.638428</ele>
        <time>2012-09-03T13:16:16Z</time>
      </trkpt>
      <trkpt lat="42.8893" lon="-0.68951">
        <ele>1589.677246</ele>
        <time>2012-09-03T13:16:30Z</time>
      </trkpt>
      <trkpt lat="42.88928" lon="-0.68948">
        <ele>1587.754639</ele>
        <time>2012-09-03T13:16:33Z</time>
      </trkpt>
      <trkpt lat="42.88922" lon="-0.68932">
        <ele>1584.87085</ele>
        <time>2012-09-03T13:16:46Z</time>
      </trkpt>
      <trkpt lat="42.88921" lon="-0.68929">
        <ele>1583.909424</ele>
        <time>2012-09-03T13:16:49Z</time>
      </trkpt>
      <trkpt lat="42.8892" lon="-0.68918">
        <ele>1581.025635</ele>
        <time>2012-09-03T13:17:00Z</time>
      </trkpt>
      <trkpt lat="42.88916" lon="-0.68901">
        <ele>1580.544922</ele>
        <time>2012-09-03T13:17:16Z</time>
      </trkpt>
      <trkpt lat="42.88907" lon="-0.6889">
        <ele>1578.141357</ele>
        <time>2012-09-03T13:17:32Z</time>
      </trkpt>
      <trkpt lat="42.88902" lon="-0.68883">
        <ele>1577.180176</ele>
        <time>2012-09-03T13:17:41Z</time>
      </trkpt>
      <trkpt lat="42.88896" lon="-0.68864">
        <ele>1576.699463</ele>
        <time>2012-09-03T13:17:57Z</time>
      </trkpt>
      <trkpt lat="42.88895" lon="-0.68847">
        <ele>1577.660645</ele>
        <time>2012-09-03T13:18:12Z</time>
      </trkpt>
      <trkpt lat="42.88896" lon="-0.68844">
        <ele>1577.660645</ele>
        <time>2012-09-03T13:18:15Z</time>
      </trkpt>
      <trkpt lat="42.88901" lon="-0.68828">
        <ele>1578.62207</ele>
        <time>2012-09-03T13:18:32Z</time>
      </trkpt>
      <trkpt lat="42.88901" lon="-0.68828">
        <ele>1577.660645</ele>
        <time>2012-09-03T13:18:34Z</time>
      </trkpt>
      <trkpt lat="42.88901" lon="-0.68827">
        <ele>1581.506104</ele>
        <time>2012-09-03T13:18:44Z</time>
      </trkpt>
      <trkpt lat="42.88901" lon="-0.68827">
        <ele>1578.141357</ele>
        <time>2012-09-03T13:18:46Z</time>
      </trkpt>
      <trkpt lat="42.88901" lon="-0.68828">
        <ele>1578.141357</ele>
        <time>2012-09-03T13:18:47Z</time>
      </trkpt>
      <trkpt lat="42.88901" lon="-0.68827">
        <ele>1574.776855</ele>
        <time>2012-09-03T13:19:04Z</time>
      </trkpt>
      <trkpt lat="42.88901" lon="-0.68827">
        <ele>1579.583252</ele>
        <time>2012-09-03T13:19:05Z</time>
      </trkpt>
      <trkpt lat="42.889" lon="-0.68837">
        <ele>1579.583252</ele>
        <time>2012-09-03T13:19:19Z</time>
      </trkpt>
      <trkpt lat="42.88899" lon="-0.68842">
        <ele>1575.257324</ele>
        <time>2012-09-03T13:19:24Z</time>
      </trkpt>
      <trkpt lat="42.88898" lon="-0.68843">
        <ele>1579.583252</ele>
        <time>2012-09-03T13:19:25Z</time>
      </trkpt>
      <trkpt lat="42.88897" lon="-0.68844">
        <ele>1578.141357</ele>
        <time>2012-09-03T13:19:26Z</time>
      </trkpt>
      <trkpt lat="42.88897" lon="-0.68861">
        <ele>1575.738037</ele>
        <time>2012-09-03T13:19:40Z</time>
      </trkpt>
      <trkpt lat="42.88898" lon="-0.6887">
        <ele>1575.738037</ele>
        <time>2012-09-03T13:19:47Z</time>
      </trkpt>
      <trkpt lat="42.88898" lon="-0.68877">
        <ele>1575.738037</ele>
        <time>2012-09-03T13:19:51Z</time>
      </trkpt>
      <trkpt lat="42.88899" lon="-0.68878">
        <ele>1580.064209</ele>
        <time>2012-09-03T13:19:52Z</time>
      </trkpt>
      <trkpt lat="42.88899" lon="-0.68879">
        <ele>1578.141357</ele>
        <time>2012-09-03T13:19:53Z</time>
      </trkpt>
      <trkpt lat="42.889" lon="-0.68882">
        <ele>1576.699463</ele>
        <time>2012-09-03T13:19:56Z</time>
      </trkpt>
      <trkpt lat="42.88908" lon="-0.68892">
        <ele>1577.660645</ele>
        <time>2012-09-03T13:20:11Z</time>
      </trkpt>
      <trkpt lat="42.88915" lon="-0.68898">
        <ele>1581.025635</ele>
        <time>2012-09-03T13:20:19Z</time>
      </trkpt>
      <trkpt lat="42.88919" lon="-0.68912">
        <ele>1581.025635</ele>
        <time>2012-09-03T13:20:31Z</time>
      </trkpt>
      <trkpt lat="42.88922" lon="-0.68918">
        <ele>1582.947998</ele>
        <time>2012-09-03T13:20:38Z</time>
      </trkpt>
      <trkpt lat="42.88925" lon="-0.68928">
        <ele>1585.351318</ele>
        <time>2012-09-03T13:20:47Z</time>
      </trkpt>
      <trkpt lat="42.88928" lon="-0.68933">
        <ele>1583.428711</ele>
        <time>2012-09-03T13:20:51Z</time>
      </trkpt>
      <trkpt lat="42.88931" lon="-0.68936">
        <ele>1577.180176</ele>
        <time>2012-09-03T13:20:55Z</time>
      </trkpt>
      <trkpt lat="42.88931" lon="-0.68936">
        <ele>1581.986816</ele>
        <time>2012-09-03T13:20:56Z</time>
      </trkpt>
      <trkpt lat="42.88932" lon="-0.68937">
        <ele>1583.909424</ele>
        <time>2012-09-03T13:20:59Z</time>
      </trkpt>
      <trkpt lat="42.88932" lon="-0.68937">
        <ele>1585.351318</ele>
        <time>2012-09-03T13:21:02Z</time>
      </trkpt>
      <trkpt lat="42.8894" lon="-0.68951">
        <ele>1584.390137</ele>
        <time>2012-09-03T13:21:18Z</time>
      </trkpt>
      <trkpt lat="42.88941" lon="-0.68952">
        <ele>1587.273926</ele>
        <time>2012-09-03T13:21:19Z</time>
      </trkpt>
      <trkpt lat="42.88942" lon="-0.68956">
        <ele>1583.909424</ele>
        <time>2012-09-03T13:21:22Z</time>
      </trkpt>
      <trkpt lat="42.8895" lon="-0.68974">
        <ele>1583.428711</ele>
        <time>2012-09-03T13:21:36Z</time>
      </trkpt>
      <trkpt lat="42.8896" lon="-0.68979">
        <ele>1582.467529</ele>
        <time>2012-09-03T13:21:50Z</time>
      </trkpt>
      <trkpt lat="42.88962" lon="-0.68982">
        <ele>1582.947998</ele>
        <time>2012-09-03T13:21:53Z</time>
      </trkpt>
      <trkpt lat="42.88968" lon="-0.68988">
        <ele>1581.986816</ele>
        <time>2012-09-03T13:22:00Z</time>
      </trkpt>
      <trkpt lat="42.88972" lon="-0.69006">
        <ele>1579.583252</ele>
        <time>2012-09-03T13:22:17Z</time>
      </trkpt>
      <trkpt lat="42.88973" lon="-0.69011">
        <ele>1581.986816</ele>
        <time>2012-09-03T13:22:25Z</time>
      </trkpt>
      <trkpt lat="42.88978" lon="-0.69012">
        <ele>1578.62207</ele>
        <time>2012-09-03T13:22:36Z</time>
      </trkpt>
      <trkpt lat="42.88982" lon="-0.69018">
        <ele>1576.21875</ele>
        <time>2012-09-03T13:22:50Z</time>
      </trkpt>
      <trkpt lat="42.88986" lon="-0.69022">
        <ele>1575.738037</ele>
        <time>2012-09-03T13:22:57Z</time>
      </trkpt>
      <trkpt lat="42.8899" lon="-0.69022">
        <ele>1575.738037</ele>
        <time>2012-09-03T13:23:01Z</time>
      </trkpt>
      <trkpt lat="42.88996" lon="-0.6902">
        <ele>1574.296143</ele>
        <time>2012-09-03T13:23:08Z</time>
      </trkpt>
      <trkpt lat="42.89004" lon="-0.69018">
        <ele>1570.931641</ele>
        <time>2012-09-03T13:23:18Z</time>
      </trkpt>
      <trkpt lat="42.89004" lon="-0.69018">
        <ele>1571.412109</ele>
        <time>2012-09-03T13:23:19Z</time>
      </trkpt>
      <trkpt lat="42.89007" lon="-0.69016">
        <ele>1569.009033</ele>
        <time>2012-09-03T13:23:25Z</time>
      </trkpt>
      <trkpt lat="42.89011" lon="-0.69003">
        <ele>1565.644531</ele>
        <time>2012-09-03T13:23:40Z</time>
      </trkpt>
      <trkpt lat="42.89016" lon="-0.69001">
        <ele>1563.240967</ele>
        <time>2012-09-03T13:23:55Z</time>
      </trkpt>
      <trkpt lat="42.89016" lon="-0.69002">
        <ele>1563.240967</ele>
        <time>2012-09-03T13:23:56Z</time>
      </trkpt>
      <trkpt lat="42.89018" lon="-0.6901">
        <ele>1561.799072</ele>
        <time>2012-09-03T13:24:02Z</time>
      </trkpt>
      <trkpt lat="42.8902" lon="-0.69009">
        <ele>1562.279541</ele>
        <time>2012-09-03T13:24:05Z</time>
      </trkpt>
      <trkpt lat="42.89021" lon="-0.69004">
        <ele>1563.240967</ele>
        <time>2012-09-03T13:24:09Z</time>
      </trkpt>
      <trkpt lat="42.89044" lon="-0.68992">
        <ele>1561.318359</ele>
        <time>2012-09-03T13:24:30Z</time>
      </trkpt>
      <trkpt lat="42.8906" lon="-0.68988">
        <ele>1558.915039</ele>
        <time>2012-09-03T13:24:42Z</time>
      </trkpt>
      <trkpt lat="42.89079" lon="-0.6898">
        <ele>1560.356934</ele>
        <time>2012-09-03T13:24:58Z</time>
      </trkpt>
      <trkpt lat="42.89093" lon="-0.68983">
        <ele>1563.240967</ele>
        <time>2012-09-03T13:25:11Z</time>
      </trkpt>
      <trkpt lat="42.89095" lon="-0.68983">
        <ele>1559.876221</ele>
        <time>2012-09-03T13:25:13Z</time>
      </trkpt>
      <trkpt lat="42.89096" lon="-0.68984">
        <ele>1560.356934</ele>
        <time>2012-09-03T13:25:14Z</time>
      </trkpt>
      <trkpt lat="42.891" lon="-0.68984">
        <ele>1558.915039</ele>
        <time>2012-09-03T13:25:18Z</time>
      </trkpt>
      <trkpt lat="42.89108" lon="-0.6899">
        <ele>1557.953857</ele>
        <time>2012-09-03T13:25:26Z</time>
      </trkpt>
      <trkpt lat="42.89116" lon="-0.68994">
        <ele>1559.395752</ele>
        <time>2012-09-03T13:25:33Z</time>
      </trkpt>
      <trkpt lat="42.89131" lon="-0.68997">
        <ele>1557.953857</ele>
        <time>2012-09-03T13:25:47Z</time>
      </trkpt>
      <trkpt lat="42.89153" lon="-0.68995">
        <ele>1557.953857</ele>
        <time>2012-09-03T13:26:02Z</time>
      </trkpt>
      <trkpt lat="42.89159" lon="-0.68996">
        <ele>1556.992432</ele>
        <time>2012-09-03T13:26:17Z</time>
      </trkpt>
      <trkpt lat="42.89153" lon="-0.68998">
        <ele>1556.511719</ele>
        <time>2012-09-03T13:26:25Z</time>
      </trkpt>
      <trkpt lat="42.89135" lon="-0.69002">
        <ele>1556.511719</ele>
        <time>2012-09-03T13:26:41Z</time>
      </trkpt>
      <trkpt lat="42.89121" lon="-0.69002">
        <ele>1557.473145</ele>
        <time>2012-09-03T13:26:53Z</time>
      </trkpt>
      <trkpt lat="42.89117" lon="-0.68998">
        <ele>1558.434326</ele>
        <time>2012-09-03T13:26:58Z</time>
      </trkpt>
      <trkpt lat="42.89107" lon="-0.6899">
        <ele>1556.992432</ele>
        <time>2012-09-03T13:27:08Z</time>
      </trkpt>
      <trkpt lat="42.89105" lon="-0.68978">
        <ele>1557.473145</ele>
        <time>2012-09-03T13:27:19Z</time>
      </trkpt>
      <trkpt lat="42.8912" lon="-0.68979">
        <ele>1553.62793</ele>
        <time>2012-09-03T13:27:31Z</time>
      </trkpt>
      <trkpt lat="42.89121" lon="-0.68979">
        <ele>1555.550537</ele>
        <time>2012-09-03T13:27:32Z</time>
      </trkpt>
      <trkpt lat="42.89123" lon="-0.68981">
        <ele>1551.224609</ele>
        <time>2012-09-03T13:27:35Z</time>
      </trkpt>
      <trkpt lat="42.89124" lon="-0.68981">
        <ele>1552.666504</ele>
        <time>2012-09-03T13:27:36Z</time>
      </trkpt>
      <trkpt lat="42.89128" lon="-0.68981">
        <ele>1553.62793</ele>
        <time>2012-09-03T13:27:39Z</time>
      </trkpt>
      <trkpt lat="42.89129" lon="-0.6898">
        <ele>1552.666504</ele>
        <time>2012-09-03T13:27:40Z</time>
      </trkpt>
      <trkpt lat="42.89132" lon="-0.68981">
        <ele>1551.224609</ele>
        <time>2012-09-03T13:27:42Z</time>
      </trkpt>
      <trkpt lat="42.89135" lon="-0.68982">
        <ele>1553.147217</ele>
        <time>2012-09-03T13:27:45Z</time>
      </trkpt>
      <trkpt lat="42.89136" lon="-0.68985">
        <ele>1555.069824</ele>
        <time>2012-09-03T13:27:49Z</time>
      </trkpt>
      <trkpt lat="42.89144" lon="-0.68986">
        <ele>1553.147217</ele>
        <time>2012-09-03T13:27:57Z</time>
      </trkpt>
      <trkpt lat="42.89146" lon="-0.68985">
        <ele>1550.743896</ele>
        <time>2012-09-03T13:27:59Z</time>
      </trkpt>
      <trkpt lat="42.89149" lon="-0.68984">
        <ele>1553.147217</ele>
        <time>2012-09-03T13:28:03Z</time>
      </trkpt>
      <trkpt lat="42.89162" lon="-0.68985">
        <ele>1549.302002</ele>
        <time>2012-09-03T13:28:14Z</time>
      </trkpt>
      <trkpt lat="42.89164" lon="-0.68985">
        <ele>1549.782715</ele>
        <time>2012-09-03T13:28:15Z</time>
      </trkpt>
      <trkpt lat="42.89183" lon="-0.68991">
        <ele>1548.340576</ele>
        <time>2012-09-03T13:28:30Z</time>
      </trkpt>
      <trkpt lat="42.89191" lon="-0.68993">
        <ele>1545.456543</ele>
        <time>2012-09-03T13:28:40Z</time>
      </trkpt>
      <trkpt lat="42.89191" lon="-0.68993">
        <ele>1545.456543</ele>
        <time>2012-09-03T13:28:41Z</time>
      </trkpt>
      <trkpt lat="42.89194" lon="-0.68993">
        <ele>1544.97583</ele>
        <time>2012-09-03T13:28:45Z</time>
      </trkpt>
      <trkpt lat="42.89198" lon="-0.68998">
        <ele>1544.014648</ele>
        <time>2012-09-03T13:28:51Z</time>
      </trkpt>
      <trkpt lat="42.89205" lon="-0.69006">
        <ele>1542.572754</ele>
        <time>2012-09-03T13:29:07Z</time>
      </trkpt>
      <trkpt lat="42.8921" lon="-0.69005">
        <ele>1542.572754</ele>
        <time>2012-09-03T13:29:19Z</time>
      </trkpt>
      <trkpt lat="42.89206" lon="-0.69008">
        <ele>1542.092041</ele>
        <time>2012-09-03T13:29:48Z</time>
      </trkpt>
      <trkpt lat="42.89206" lon="-0.69012">
        <ele>1542.572754</ele>
        <time>2012-09-03T13:30:03Z</time>
      </trkpt>
      <trkpt lat="42.8921" lon="-0.69019">
        <ele>1543.053223</ele>
        <time>2012-09-03T13:30:14Z</time>
      </trkpt>
      <trkpt lat="42.89212" lon="-0.6902">
        <ele>1542.572754</ele>
        <time>2012-09-03T13:30:16Z</time>
      </trkpt>
      <trkpt lat="42.89239" lon="-0.69021">
        <ele>1541.611328</ele>
        <time>2012-09-03T13:30:35Z</time>
      </trkpt>
      <trkpt lat="42.89247" lon="-0.69023">
        <ele>1544.014648</ele>
        <time>2012-09-03T13:30:44Z</time>
      </trkpt>
      <trkpt lat="42.89245" lon="-0.69026">
        <ele>1544.014648</ele>
        <time>2012-09-03T13:31:11Z</time>
      </trkpt>
      <trkpt lat="42.89253" lon="-0.69025">
        <ele>1541.130615</ele>
        <time>2012-09-03T13:31:47Z</time>
      </trkpt>
      <trkpt lat="42.89257" lon="-0.69026">
        <ele>1537.766113</ele>
        <time>2012-09-03T13:31:52Z</time>
      </trkpt>
      <trkpt lat="42.89258" lon="-0.69027">
        <ele>1543.053223</ele>
        <time>2012-09-03T13:31:54Z</time>
      </trkpt>
      <trkpt lat="42.89261" lon="-0.69029">
        <ele>1539.688721</ele>
        <time>2012-09-03T13:32:00Z</time>
      </trkpt>
      <trkpt lat="42.89263" lon="-0.6903">
        <ele>1539.688721</ele>
        <time>2012-09-03T13:32:02Z</time>
      </trkpt>
      <trkpt lat="42.89277" lon="-0.69042">
        <ele>1537.2854</ele>
        <time>2012-09-03T13:32:18Z</time>
      </trkpt>
      <trkpt lat="42.89284" lon="-0.69044">
        <ele>1537.766113</ele>
        <time>2012-09-03T13:32:22Z</time>
      </trkpt>
      <trkpt lat="42.89294" lon="-0.69041">
        <ele>1538.246826</ele>
        <time>2012-09-03T13:32:30Z</time>
      </trkpt>
      <trkpt lat="42.89301" lon="-0.6904">
        <ele>1537.766113</ele>
        <time>2012-09-03T13:32:37Z</time>
      </trkpt>
      <trkpt lat="42.89309" lon="-0.69044">
        <ele>1534.401611</ele>
        <time>2012-09-03T13:32:50Z</time>
      </trkpt>
      <trkpt lat="42.89312" lon="-0.69048">
        <ele>1533.920898</ele>
        <time>2012-09-03T13:32:56Z</time>
      </trkpt>
      <trkpt lat="42.89323" lon="-0.69066">
        <ele>1530.556152</ele>
        <time>2012-09-03T13:33:15Z</time>
      </trkpt>
      <trkpt lat="42.89325" lon="-0.69072">
        <ele>1527.672119</ele>
        <time>2012-09-03T13:33:20Z</time>
      </trkpt>
      <trkpt lat="42.89333" lon="-0.69081">
        <ele>1524.78833</ele>
        <time>2012-09-03T13:33:29Z</time>
      </trkpt>
      <trkpt lat="42.89336" lon="-0.69089">
        <ele>1526.710938</ele>
        <time>2012-09-03T13:33:35Z</time>
      </trkpt>
      <trkpt lat="42.89344" lon="-0.69098">
        <ele>1526.710938</ele>
        <time>2012-09-03T13:33:43Z</time>
      </trkpt>
      <trkpt lat="42.8935" lon="-0.69118">
        <ele>1530.075439</ele>
        <time>2012-09-03T13:33:58Z</time>
      </trkpt>
      <trkpt lat="42.89352" lon="-0.69122">
        <ele>1530.075439</ele>
        <time>2012-09-03T13:34:02Z</time>
      </trkpt>
      <trkpt lat="42.89368" lon="-0.6914">
        <ele>1529.594727</ele>
        <time>2012-09-03T13:34:22Z</time>
      </trkpt>
      <trkpt lat="42.89375" lon="-0.69154">
        <ele>1533.920898</ele>
        <time>2012-09-03T13:34:35Z</time>
      </trkpt>
      <trkpt lat="42.89376" lon="-0.69155">
        <ele>1533.920898</ele>
        <time>2012-09-03T13:34:36Z</time>
      </trkpt>
      <trkpt lat="42.89377" lon="-0.69157">
        <ele>1530.556152</ele>
        <time>2012-09-03T13:34:38Z</time>
      </trkpt>
      <trkpt lat="42.89379" lon="-0.69159">
        <ele>1533.440186</ele>
        <time>2012-09-03T13:34:41Z</time>
      </trkpt>
      <trkpt lat="42.8938" lon="-0.69162">
        <ele>1533.440186</ele>
        <time>2012-09-03T13:34:53Z</time>
      </trkpt>
      <trkpt lat="42.89389" lon="-0.69165">
        <ele>1532.479004</ele>
        <time>2012-09-03T13:35:06Z</time>
      </trkpt>
      <trkpt lat="42.89403" lon="-0.69165">
        <ele>1529.594727</ele>
        <time>2012-09-03T13:35:19Z</time>
      </trkpt>
      <trkpt lat="42.89408" lon="-0.69164">
        <ele>1529.114014</ele>
        <time>2012-09-03T13:35:24Z</time>
      </trkpt>
      <trkpt lat="42.8941" lon="-0.69164">
        <ele>1528.633545</ele>
        <time>2012-09-03T13:35:27Z</time>
      </trkpt>
      <trkpt lat="42.89423" lon="-0.69167">
        <ele>1526.710938</ele>
        <time>2012-09-03T13:35:39Z</time>
      </trkpt>
      <trkpt lat="42.89424" lon="-0.69168">
        <ele>1526.230225</ele>
        <time>2012-09-03T13:35:40Z</time>
      </trkpt>
      <trkpt lat="42.89437" lon="-0.69178">
        <ele>1524.307617</ele>
        <time>2012-09-03T13:35:55Z</time>
      </trkpt>
      <trkpt lat="42.89444" lon="-0.69182">
        <ele>1521.904297</ele>
        <time>2012-09-03T13:36:04Z</time>
      </trkpt>
      <trkpt lat="42.89459" lon="-0.69182">
        <ele>1521.423584</ele>
        <time>2012-09-03T13:36:13Z</time>
      </trkpt>
      <trkpt lat="42.89473" lon="-0.69185">
        <ele>1520.462402</ele>
        <time>2012-09-03T13:36:27Z</time>
      </trkpt>
      <trkpt lat="42.89485" lon="-0.69188">
        <ele>1519.501221</ele>
        <time>2012-09-03T13:36:48Z</time>
      </trkpt>
      <trkpt lat="42.89492" lon="-0.69194">
        <ele>1518.539795</ele>
        <time>2012-09-03T13:36:59Z</time>
      </trkpt>
      <trkpt lat="42.89496" lon="-0.69194">
        <ele>1516.617188</ele>
        <time>2012-09-03T13:37:04Z</time>
      </trkpt>
      <trkpt lat="42.89496" lon="-0.69189">
        <ele>1517.0979</ele>
        <time>2012-09-03T13:37:17Z</time>
      </trkpt>
      <trkpt lat="42.89491" lon="-0.69195">
        <ele>1518.539795</ele>
        <time>2012-09-03T13:37:28Z</time>
      </trkpt>
      <trkpt lat="42.89481" lon="-0.69192">
        <ele>1519.981689</ele>
        <time>2012-09-03T13:37:39Z</time>
      </trkpt>
      <trkpt lat="42.89479" lon="-0.69192">
        <ele>1519.981689</ele>
        <time>2012-09-03T13:37:40Z</time>
      </trkpt>
      <trkpt lat="42.8946" lon="-0.69187">
        <ele>1520.943115</ele>
        <time>2012-09-03T13:37:55Z</time>
      </trkpt>
      <trkpt lat="42.89442" lon="-0.69182">
        <ele>1522.38501</ele>
        <time>2012-09-03T13:38:11Z</time>
      </trkpt>
      <trkpt lat="42.89435" lon="-0.69181">
        <ele>1523.346436</ele>
        <time>2012-09-03T13:38:16Z</time>
      </trkpt>
      <trkpt lat="42.89427" lon="-0.69174">
        <ele>1523.826904</ele>
        <time>2012-09-03T13:38:24Z</time>
      </trkpt>
      <trkpt lat="42.8942" lon="-0.69169">
        <ele>1525.749512</ele>
        <time>2012-09-03T13:38:32Z</time>
      </trkpt>
      <trkpt lat="42.89403" lon="-0.69158">
        <ele>1528.152832</ele>
        <time>2012-09-03T13:38:49Z</time>
      </trkpt>
      <trkpt lat="42.89386" lon="-0.69151">
        <ele>1530.075439</ele>
        <time>2012-09-03T13:39:06Z</time>
      </trkpt>
      <trkpt lat="42.89379" lon="-0.69144">
        <ele>1526.710938</ele>
        <time>2012-09-03T13:39:16Z</time>
      </trkpt>
      <trkpt lat="42.89372" lon="-0.69134">
        <ele>1525.749512</ele>
        <time>2012-09-03T13:39:25Z</time>
      </trkpt>
      <trkpt lat="42.89369" lon="-0.69121">
        <ele>1523.346436</ele>
        <time>2012-09-03T13:39:35Z</time>
      </trkpt>
      <trkpt lat="42.8937" lon="-0.69114">
        <ele>1522.865723</ele>
        <time>2012-09-03T13:39:40Z</time>
      </trkpt>
      <trkpt lat="42.89376" lon="-0.691">
        <ele>1517.0979</ele>
        <time>2012-09-03T13:39:54Z</time>
      </trkpt>
      <trkpt lat="42.89377" lon="-0.69099">
        <ele>1520.943115</ele>
        <time>2012-09-03T13:39:55Z</time>
      </trkpt>
      <trkpt lat="42.89378" lon="-0.69096">
        <ele>1521.904297</ele>
        <time>2012-09-03T13:39:57Z</time>
      </trkpt>
      <trkpt lat="42.89382" lon="-0.69087">
        <ele>1518.539795</ele>
        <time>2012-09-03T13:40:04Z</time>
      </trkpt>
      <trkpt lat="42.89384" lon="-0.69076">
        <ele>1517.578369</ele>
        <time>2012-09-03T13:40:12Z</time>
      </trkpt>
      <trkpt lat="42.89377" lon="-0.6907">
        <ele>1515.655762</ele>
        <time>2012-09-03T13:40:20Z</time>
      </trkpt>
      <trkpt lat="42.89372" lon="-0.69059">
        <ele>1514.694336</ele>
        <time>2012-09-03T13:40:28Z</time>
      </trkpt>
      <trkpt lat="42.89364" lon="-0.69046">
        <ele>1508.445801</ele>
        <time>2012-09-03T13:40:39Z</time>
      </trkpt>
      <trkpt lat="42.89363" lon="-0.69045">
        <ele>1511.810547</ele>
        <time>2012-09-03T13:40:40Z</time>
      </trkpt>
      <trkpt lat="42.89361" lon="-0.69037">
        <ele>1511.329834</ele>
        <time>2012-09-03T13:40:47Z</time>
      </trkpt>
      <trkpt lat="42.89361" lon="-0.69032">
        <ele>1509.407227</ele>
        <time>2012-09-03T13:40:51Z</time>
      </trkpt>
      <trkpt lat="42.89358" lon="-0.69025">
        <ele>1508.445801</ele>
        <time>2012-09-03T13:40:57Z</time>
      </trkpt>
      <trkpt lat="42.89358" lon="-0.6902">
        <ele>1507.484619</ele>
        <time>2012-09-03T13:41:00Z</time>
      </trkpt>
      <trkpt lat="42.89362" lon="-0.6901">
        <ele>1506.523193</ele>
        <time>2012-09-03T13:41:08Z</time>
      </trkpt>
      <trkpt lat="42.89368" lon="-0.69002">
        <ele>1504.120117</ele>
        <time>2012-09-03T13:41:19Z</time>
      </trkpt>
      <trkpt lat="42.89374" lon="-0.68999">
        <ele>1503.639404</ele>
        <time>2012-09-03T13:41:25Z</time>
      </trkpt>
      <trkpt lat="42.89376" lon="-0.68997">
        <ele>1499.793945</ele>
        <time>2012-09-03T13:41:27Z</time>
      </trkpt>
      <trkpt lat="42.89376" lon="-0.68996">
        <ele>1506.523193</ele>
        <time>2012-09-03T13:41:28Z</time>
      </trkpt>
      <trkpt lat="42.89377" lon="-0.68995">
        <ele>1504.600586</ele>
        <time>2012-09-03T13:41:29Z</time>
      </trkpt>
      <trkpt lat="42.89383" lon="-0.68991">
        <ele>1502.197266</ele>
        <time>2012-09-03T13:41:36Z</time>
      </trkpt>
      <trkpt lat="42.89398" lon="-0.68987">
        <ele>1502.677979</ele>
        <time>2012-09-03T13:41:50Z</time>
      </trkpt>
      <trkpt lat="42.89397" lon="-0.68972">
        <ele>1497.871338</ele>
        <time>2012-09-03T13:42:06Z</time>
      </trkpt>
      <trkpt lat="42.89397" lon="-0.68972">
        <ele>1497.390625</ele>
        <time>2012-09-03T13:42:07Z</time>
      </trkpt>
      <trkpt lat="42.894" lon="-0.68969">
        <ele>1494.026123</ele>
        <time>2012-09-03T13:42:12Z</time>
      </trkpt>
      <trkpt lat="42.89401" lon="-0.68968">
        <ele>1495.468018</ele>
        <time>2012-09-03T13:42:13Z</time>
      </trkpt>
      <trkpt lat="42.89401" lon="-0.68967">
        <ele>1499.313232</ele>
        <time>2012-09-03T13:42:14Z</time>
      </trkpt>
      <trkpt lat="42.89402" lon="-0.68967">
        <ele>1495.468018</ele>
        <time>2012-09-03T13:42:15Z</time>
      </trkpt>
      <trkpt lat="42.89404" lon="-0.68965">
        <ele>1490.661377</ele>
        <time>2012-09-03T13:42:18Z</time>
      </trkpt>
      <trkpt lat="42.89404" lon="-0.68964">
        <ele>1496.429443</ele>
        <time>2012-09-03T13:42:19Z</time>
      </trkpt>
      <trkpt lat="42.89405" lon="-0.68961">
        <ele>1493.064697</ele>
        <time>2012-09-03T13:42:22Z</time>
      </trkpt>
      <trkpt lat="42.89405" lon="-0.68958">
        <ele>1496.429443</ele>
        <time>2012-09-03T13:42:25Z</time>
      </trkpt>
      <trkpt lat="42.89405" lon="-0.68956">
        <ele>1492.584229</ele>
        <time>2012-09-03T13:42:27Z</time>
      </trkpt>
      <trkpt lat="42.89412" lon="-0.68947">
        <ele>1489.700195</ele>
        <time>2012-09-03T13:42:37Z</time>
      </trkpt>
      <trkpt lat="42.89418" lon="-0.68943">
        <ele>1487.296875</ele>
        <time>2012-09-03T13:42:44Z</time>
      </trkpt>
      <trkpt lat="42.89426" lon="-0.68943">
        <ele>1483.932129</ele>
        <time>2012-09-03T13:42:55Z</time>
      </trkpt>
      <trkpt lat="42.89431" lon="-0.68941">
        <ele>1482.490234</ele>
        <time>2012-09-03T13:43:02Z</time>
      </trkpt>
      <trkpt lat="42.89436" lon="-0.68936">
        <ele>1480.567627</ele>
        <time>2012-09-03T13:43:13Z</time>
      </trkpt>
      <trkpt lat="42.89432" lon="-0.6892">
        <ele>1480.086914</ele>
        <time>2012-09-03T13:43:26Z</time>
      </trkpt>
      <trkpt lat="42.89431" lon="-0.68918">
        <ele>1474.319092</ele>
        <time>2012-09-03T13:43:28Z</time>
      </trkpt>
      <trkpt lat="42.89431" lon="-0.68917">
        <ele>1483.451416</ele>
        <time>2012-09-03T13:43:29Z</time>
      </trkpt>
      <trkpt lat="42.8943" lon="-0.68916">
        <ele>1474.799805</ele>
        <time>2012-09-03T13:43:30Z</time>
      </trkpt>
      <trkpt lat="42.89429" lon="-0.68916">
        <ele>1480.567627</ele>
        <time>2012-09-03T13:43:31Z</time>
      </trkpt>
      <trkpt lat="42.89429" lon="-0.68915">
        <ele>1487.777588</ele>
        <time>2012-09-03T13:43:32Z</time>
      </trkpt>
      <trkpt lat="42.89429" lon="-0.68915">
        <ele>1481.528809</ele>
        <time>2012-09-03T13:43:33Z</time>
      </trkpt>
      <trkpt lat="42.89421" lon="-0.68905">
        <ele>1478.64502</ele>
        <time>2012-09-03T13:43:49Z</time>
      </trkpt>
      <trkpt lat="42.89413" lon="-0.68898">
        <ele>1476.241699</ele>
        <time>2012-09-03T13:44:02Z</time>
      </trkpt>
      <trkpt lat="42.89406" lon="-0.68894">
        <ele>1477.203125</ele>
        <time>2012-09-03T13:44:11Z</time>
      </trkpt>
      <trkpt lat="42.89386" lon="-0.68894">
        <ele>1478.164307</ele>
        <time>2012-09-03T13:44:29Z</time>
      </trkpt>
      <trkpt lat="42.89382" lon="-0.68893">
        <ele>1477.203125</ele>
        <time>2012-09-03T13:44:34Z</time>
      </trkpt>
      <trkpt lat="42.89373" lon="-0.68888">
        <ele>1475.760986</ele>
        <time>2012-09-03T13:44:47Z</time>
      </trkpt>
      <trkpt lat="42.89369" lon="-0.6888">
        <ele>1472.396484</ele>
        <time>2012-09-03T13:44:59Z</time>
      </trkpt>
      <trkpt lat="42.89369" lon="-0.68879">
        <ele>1472.396484</ele>
        <time>2012-09-03T13:45:00Z</time>
      </trkpt>
      <trkpt lat="42.89368" lon="-0.68869">
        <ele>1470.95459</ele>
        <time>2012-09-03T13:45:12Z</time>
      </trkpt>
      <trkpt lat="42.89364" lon="-0.68863">
        <ele>1469.993164</ele>
        <time>2012-09-03T13:45:23Z</time>
      </trkpt>
      <trkpt lat="42.89357" lon="-0.68855">
        <ele>1469.993164</ele>
        <time>2012-09-03T13:45:36Z</time>
      </trkpt>
      <trkpt lat="42.89353" lon="-0.68848">
        <ele>1467.5896</ele>
        <time>2012-09-03T13:45:55Z</time>
      </trkpt>
      <trkpt lat="42.8935" lon="-0.68837">
        <ele>1464.225098</ele>
        <time>2012-09-03T13:46:08Z</time>
      </trkpt>
      <trkpt lat="42.8935" lon="-0.68834">
        <ele>1461.341309</ele>
        <time>2012-09-03T13:46:16Z</time>
      </trkpt>
      <trkpt lat="42.89357" lon="-0.68824">
        <ele>1460.860596</ele>
        <time>2012-09-03T13:46:29Z</time>
      </trkpt>
      <trkpt lat="42.89356" lon="-0.68821">
        <ele>1465.667236</ele>
        <time>2012-09-03T13:46:32Z</time>
      </trkpt>
      <trkpt lat="42.89356" lon="-0.68819">
        <ele>1462.783203</ele>
        <time>2012-09-03T13:46:33Z</time>
      </trkpt>
      <trkpt lat="42.89356" lon="-0.68819">
        <ele>1458.937988</ele>
        <time>2012-09-03T13:46:34Z</time>
      </trkpt>
      <trkpt lat="42.89356" lon="-0.68818">
        <ele>1464.705811</ele>
        <time>2012-09-03T13:46:35Z</time>
      </trkpt>
      <trkpt lat="42.89356" lon="-0.68816">
        <ele>1460.860596</ele>
        <time>2012-09-03T13:46:37Z</time>
      </trkpt>
      <trkpt lat="42.89357" lon="-0.68815">
        <ele>1463.263916</ele>
        <time>2012-09-03T13:46:38Z</time>
      </trkpt>
      <trkpt lat="42.89362" lon="-0.68804">
        <ele>1463.263916</ele>
        <time>2012-09-03T13:46:49Z</time>
      </trkpt>
      <trkpt lat="42.89381" lon="-0.68791">
        <ele>1460.860596</ele>
        <time>2012-09-03T13:47:06Z</time>
      </trkpt>
      <trkpt lat="42.89384" lon="-0.6879">
        <ele>1459.89917</ele>
        <time>2012-09-03T13:47:10Z</time>
      </trkpt>
      <trkpt lat="42.89387" lon="-0.68788">
        <ele>1459.418701</ele>
        <time>2012-09-03T13:47:13Z</time>
      </trkpt>
      <trkpt lat="42.89413" lon="-0.68777">
        <ele>1458.937988</ele>
        <time>2012-09-03T13:47:33Z</time>
      </trkpt>
      <trkpt lat="42.89417" lon="-0.68773">
        <ele>1459.418701</ele>
        <time>2012-09-03T13:47:38Z</time>
      </trkpt>
      <trkpt lat="42.89427" lon="-0.68767">
        <ele>1458.937988</ele>
        <time>2012-09-03T13:47:46Z</time>
      </trkpt>
      <trkpt lat="42.89436" lon="-0.68768">
        <ele>1457.496094</ele>
        <time>2012-09-03T13:47:53Z</time>
      </trkpt>
      <trkpt lat="42.89439" lon="-0.68769">
        <ele>1456.534668</ele>
        <time>2012-09-03T13:48:07Z</time>
      </trkpt>
      <trkpt lat="42.89446" lon="-0.68761">
        <ele>1456.053955</ele>
        <time>2012-09-03T13:48:30Z</time>
      </trkpt>
      <trkpt lat="42.89456" lon="-0.68767">
        <ele>1456.053955</ele>
        <time>2012-09-03T13:48:54Z</time>
      </trkpt>
      <trkpt lat="42.89466" lon="-0.6878">
        <ele>1454.131592</ele>
        <time>2012-09-03T13:49:11Z</time>
      </trkpt>
      <trkpt lat="42.89463" lon="-0.6878">
        <ele>1452.689453</ele>
        <time>2012-09-03T13:49:15Z</time>
      </trkpt>
      <trkpt lat="42.89462" lon="-0.68779">
        <ele>1454.612061</ele>
        <time>2012-09-03T13:49:17Z</time>
      </trkpt>
      <trkpt lat="42.89461" lon="-0.68779">
        <ele>1454.131592</ele>
        <time>2012-09-03T13:49:19Z</time>
      </trkpt>
      <trkpt lat="42.89462" lon="-0.68774">
        <ele>1455.092773</ele>
        <time>2012-09-03T13:49:37Z</time>
      </trkpt>
      <trkpt lat="42.89463" lon="-0.68775">
        <ele>1454.131592</ele>
        <time>2012-09-03T13:49:39Z</time>
      </trkpt>
      <trkpt lat="42.89466" lon="-0.68787">
        <ele>1450.766602</ele>
        <time>2012-09-03T13:50:02Z</time>
      </trkpt>
      <trkpt lat="42.89471" lon="-0.68796">
        <ele>1448.843994</ele>
        <time>2012-09-03T13:50:14Z</time>
      </trkpt>
      <trkpt lat="42.89472" lon="-0.68798">
        <ele>1446.921387</ele>
        <time>2012-09-03T13:50:23Z</time>
      </trkpt>
      <trkpt lat="42.89478" lon="-0.68803">
        <ele>1446.440918</ele>
        <time>2012-09-03T13:50:30Z</time>
      </trkpt>
      <trkpt lat="42.89483" lon="-0.68811">
        <ele>1444.998779</ele>
        <time>2012-09-03T13:50:35Z</time>
      </trkpt>
      <trkpt lat="42.89498" lon="-0.68815">
        <ele>1443.076172</ele>
        <time>2012-09-03T13:50:47Z</time>
      </trkpt>
      <trkpt lat="42.89514" lon="-0.68816">
        <ele>1443.076172</ele>
        <time>2012-09-03T13:51:00Z</time>
      </trkpt>
      <trkpt lat="42.89521" lon="-0.68814">
        <ele>1440.672852</ele>
        <time>2012-09-03T13:51:10Z</time>
      </trkpt>
      <trkpt lat="42.89527" lon="-0.68823">
        <ele>1438.269775</ele>
        <time>2012-09-03T13:51:22Z</time>
      </trkpt>
      <trkpt lat="42.89535" lon="-0.68828">
        <ele>1435.385498</ele>
        <time>2012-09-03T13:51:35Z</time>
      </trkpt>
      <trkpt lat="42.89542" lon="-0.6882">
        <ele>1432.501709</ele>
        <time>2012-09-03T13:51:49Z</time>
      </trkpt>
      <trkpt lat="42.89546" lon="-0.68816">
        <ele>1429.617676</ele>
        <time>2012-09-03T13:51:57Z</time>
      </trkpt>
      <trkpt lat="42.89564" lon="-0.68834">
        <ele>1426.733887</ele>
        <time>2012-09-03T13:52:15Z</time>
      </trkpt>
      <trkpt lat="42.89567" lon="-0.68838">
        <ele>1423.369385</ele>
        <time>2012-09-03T13:52:22Z</time>
      </trkpt>
      <trkpt lat="42.89568" lon="-0.68838">
        <ele>1423.369385</ele>
        <time>2012-09-03T13:52:23Z</time>
      </trkpt>
      <trkpt lat="42.89584" lon="-0.68855">
        <ele>1420.004639</ele>
        <time>2012-09-03T13:52:37Z</time>
      </trkpt>
      <trkpt lat="42.89601" lon="-0.68845">
        <ele>1419.043213</ele>
        <time>2012-09-03T13:52:55Z</time>
      </trkpt>
      <trkpt lat="42.89614" lon="-0.68849">
        <ele>1417.120605</ele>
        <time>2012-09-03T13:53:08Z</time>
      </trkpt>
      <trkpt lat="42.89626" lon="-0.68843">
        <ele>1413.755859</ele>
        <time>2012-09-03T13:53:21Z</time>
      </trkpt>
      <trkpt lat="42.89639" lon="-0.68831">
        <ele>1414.236572</ele>
        <time>2012-09-03T13:53:38Z</time>
      </trkpt>
      <trkpt lat="42.89654" lon="-0.68825">
        <ele>1413.275391</ele>
        <time>2012-09-03T13:53:51Z</time>
      </trkpt>
      <trkpt lat="42.89663" lon="-0.68821">
        <ele>1414.236572</ele>
        <time>2012-09-03T13:54:02Z</time>
      </trkpt>
      <trkpt lat="42.8967" lon="-0.68825">
        <ele>1410.87207</ele>
        <time>2012-09-03T13:54:09Z</time>
      </trkpt>
      <trkpt lat="42.89678" lon="-0.68816">
        <ele>1407.988281</ele>
        <time>2012-09-03T13:54:31Z</time>
      </trkpt>
      <trkpt lat="42.8968" lon="-0.68812">
        <ele>1406.546143</ele>
        <time>2012-09-03T13:54:37Z</time>
      </trkpt>
      <trkpt lat="42.89689" lon="-0.68807">
        <ele>1404.143066</ele>
        <time>2012-09-03T13:54:49Z</time>
      </trkpt>
      <trkpt lat="42.89698" lon="-0.68827">
        <ele>1400.778076</ele>
        <time>2012-09-03T13:55:00Z</time>
      </trkpt>
      <trkpt lat="42.89702" lon="-0.68833">
        <ele>1397.894287</ele>
        <time>2012-09-03T13:55:15Z</time>
      </trkpt>
      <trkpt lat="42.89712" lon="-0.68828">
        <ele>1394.049072</ele>
        <time>2012-09-03T13:55:28Z</time>
      </trkpt>
      <trkpt lat="42.89714" lon="-0.68827">
        <ele>1394.049072</ele>
        <time>2012-09-03T13:55:29Z</time>
      </trkpt>
      <trkpt lat="42.89726" lon="-0.68836">
        <ele>1392.126465</ele>
        <time>2012-09-03T13:55:37Z</time>
      </trkpt>
      <trkpt lat="42.8974" lon="-0.68838">
        <ele>1391.645752</ele>
        <time>2012-09-03T13:55:50Z</time>
      </trkpt>
      <trkpt lat="42.89752" lon="-0.6884">
        <ele>1388.761963</ele>
        <time>2012-09-03T13:56:01Z</time>
      </trkpt>
      <trkpt lat="42.89764" lon="-0.6885">
        <ele>1386.358398</ele>
        <time>2012-09-03T13:56:13Z</time>
      </trkpt>
      <trkpt lat="42.89768" lon="-0.68849">
        <ele>1385.396973</ele>
        <time>2012-09-03T13:56:17Z</time>
      </trkpt>
      <trkpt lat="42.89776" lon="-0.68851">
        <ele>1382.993652</ele>
        <time>2012-09-03T13:56:28Z</time>
      </trkpt>
      <trkpt lat="42.89784" lon="-0.68852">
        <ele>1381.071289</ele>
        <time>2012-09-03T13:56:37Z</time>
      </trkpt>
      <trkpt lat="42.89788" lon="-0.68855">
        <ele>1379.62915</ele>
        <time>2012-09-03T13:56:41Z</time>
      </trkpt>
      <trkpt lat="42.89789" lon="-0.68855">
        <ele>1379.62915</ele>
        <time>2012-09-03T13:56:42Z</time>
      </trkpt>
      <trkpt lat="42.898" lon="-0.6886">
        <ele>1378.667969</ele>
        <time>2012-09-03T13:56:53Z</time>
      </trkpt>
      <trkpt lat="42.89803" lon="-0.68861">
        <ele>1377.226074</ele>
        <time>2012-09-03T13:56:56Z</time>
      </trkpt>
      <trkpt lat="42.89808" lon="-0.68862">
        <ele>1375.783936</ele>
        <time>2012-09-03T13:56:59Z</time>
      </trkpt>
      <trkpt lat="42.89819" lon="-0.68868">
        <ele>1373.380859</ele>
        <time>2012-09-03T13:57:15Z</time>
      </trkpt>
      <trkpt lat="42.89826" lon="-0.68868">
        <ele>1371.938477</ele>
        <time>2012-09-03T13:57:23Z</time>
      </trkpt>
      <trkpt lat="42.89831" lon="-0.68869">
        <ele>1370.015869</ele>
        <time>2012-09-03T13:57:29Z</time>
      </trkpt>
      <trkpt lat="42.89838" lon="-0.68867">
        <ele>1368.573975</ele>
        <time>2012-09-03T13:57:34Z</time>
      </trkpt>
      <trkpt lat="42.89846" lon="-0.68867">
        <ele>1367.13208</ele>
        <time>2012-09-03T13:57:40Z</time>
      </trkpt>
      <trkpt lat="42.89856" lon="-0.68865">
        <ele>1367.13208</ele>
        <time>2012-09-03T13:57:50Z</time>
      </trkpt>
      <trkpt lat="42.89863" lon="-0.68867">
        <ele>1365.690186</ele>
        <time>2012-09-03T13:58:02Z</time>
      </trkpt>
      <trkpt lat="42.89883" lon="-0.68865">
        <ele>1363.767334</ele>
        <time>2012-09-03T13:58:15Z</time>
      </trkpt>
      <trkpt lat="42.89888" lon="-0.68871">
        <ele>1360.402832</ele>
        <time>2012-09-03T13:58:23Z</time>
      </trkpt>
      <trkpt lat="42.89891" lon="-0.68872">
        <ele>1358.960938</ele>
        <time>2012-09-03T13:58:25Z</time>
      </trkpt>
      <trkpt lat="42.89899" lon="-0.68872">
        <ele>1357.03833</ele>
        <time>2012-09-03T13:58:32Z</time>
      </trkpt>
      <trkpt lat="42.89915" lon="-0.68874">
        <ele>1356.076904</ele>
        <time>2012-09-03T13:58:45Z</time>
      </trkpt>
      <trkpt lat="42.8993" lon="-0.68874">
        <ele>1354.634766</ele>
        <time>2012-09-03T13:58:57Z</time>
      </trkpt>
      <trkpt lat="42.89941" lon="-0.68872">
        <ele>1353.192871</ele>
        <time>2012-09-03T13:59:05Z</time>
      </trkpt>
      <trkpt lat="42.89962" lon="-0.68875">
        <ele>1351.750977</ele>
        <time>2012-09-03T13:59:20Z</time>
      </trkpt>
      <trkpt lat="42.89973" lon="-0.6888">
        <ele>1350.789551</ele>
        <time>2012-09-03T13:59:31Z</time>
      </trkpt>
      <trkpt lat="42.89979" lon="-0.68883">
        <ele>1349.828369</ele>
        <time>2012-09-03T13:59:40Z</time>
      </trkpt>
      <trkpt lat="42.89983" lon="-0.68893">
        <ele>1346.463867</ele>
        <time>2012-09-03T13:59:54Z</time>
      </trkpt>
      <trkpt lat="42.8999" lon="-0.68902">
        <ele>1343.099121</ele>
        <time>2012-09-03T14:00:05Z</time>
      </trkpt>
      <trkpt lat="42.89998" lon="-0.6891">
        <ele>1340.215332</ele>
        <time>2012-09-03T14:00:16Z</time>
      </trkpt>
      <trkpt lat="42.90001" lon="-0.6891">
        <ele>1339.253662</ele>
        <time>2012-09-03T14:00:18Z</time>
      </trkpt>
      <trkpt lat="42.90006" lon="-0.68914">
        <ele>1337.331055</ele>
        <time>2012-09-03T14:00:25Z</time>
      </trkpt>
      <trkpt lat="42.90012" lon="-0.68918">
        <ele>1335.408447</ele>
        <time>2012-09-03T14:00:32Z</time>
      </trkpt>
      <trkpt lat="42.90023" lon="-0.68919">
        <ele>1332.043945</ele>
        <time>2012-09-03T14:00:42Z</time>
      </trkpt>
      <trkpt lat="42.90032" lon="-0.68926">
        <ele>1330.602051</ele>
        <time>2012-09-03T14:00:52Z</time>
      </trkpt>
      <trkpt lat="42.90047" lon="-0.68929">
        <ele>1328.19873</ele>
        <time>2012-09-03T14:01:03Z</time>
      </trkpt>
      <trkpt lat="42.90049" lon="-0.68929">
        <ele>1327.237549</ele>
        <time>2012-09-03T14:01:05Z</time>
      </trkpt>
      <trkpt lat="42.90055" lon="-0.68933">
        <ele>1324.834229</ele>
        <time>2012-09-03T14:01:14Z</time>
      </trkpt>
      <trkpt lat="42.90067" lon="-0.68935">
        <ele>1321.469238</ele>
        <time>2012-09-03T14:01:24Z</time>
      </trkpt>
      <trkpt lat="42.90084" lon="-0.68933">
        <ele>1320.027344</ele>
        <time>2012-09-03T14:01:36Z</time>
      </trkpt>
      <trkpt lat="42.90101" lon="-0.68929">
        <ele>1317.624023</ele>
        <time>2012-09-03T14:01:48Z</time>
      </trkpt>
      <trkpt lat="42.90109" lon="-0.68931">
        <ele>1316.182129</ele>
        <time>2012-09-03T14:01:57Z</time>
      </trkpt>
      <trkpt lat="42.90119" lon="-0.68926">
        <ele>1313.29834</ele>
        <time>2012-09-03T14:02:08Z</time>
      </trkpt>
      <trkpt lat="42.90135" lon="-0.68923">
        <ele>1312.336914</ele>
        <time>2012-09-03T14:02:23Z</time>
      </trkpt>
      <trkpt lat="42.90142" lon="-0.68924">
        <ele>1308.972412</ele>
        <time>2012-09-03T14:02:36Z</time>
      </trkpt>
      <trkpt lat="42.90147" lon="-0.68921">
        <ele>1305.126953</ele>
        <time>2012-09-03T14:02:46Z</time>
      </trkpt>
      <trkpt lat="42.9015" lon="-0.68918">
        <ele>1303.685059</ele>
        <time>2012-09-03T14:02:50Z</time>
      </trkpt>
      <trkpt lat="42.90155" lon="-0.68911">
        <ele>1300.320557</ele>
        <time>2012-09-03T14:03:02Z</time>
      </trkpt>
      <trkpt lat="42.90163" lon="-0.68904">
        <ele>1298.878418</ele>
        <time>2012-09-03T14:03:12Z</time>
      </trkpt>
      <trkpt lat="42.90165" lon="-0.68903">
        <ele>1297.436523</ele>
        <time>2012-09-03T14:03:15Z</time>
      </trkpt>
      <trkpt lat="42.90168" lon="-0.68901">
        <ele>1295.994629</ele>
        <time>2012-09-03T14:03:18Z</time>
      </trkpt>
      <trkpt lat="42.90174" lon="-0.68892">
        <ele>1295.513916</ele>
        <time>2012-09-03T14:03:29Z</time>
      </trkpt>
      <trkpt lat="42.90178" lon="-0.6889">
        <ele>1295.033203</ele>
        <time>2012-09-03T14:03:32Z</time>
      </trkpt>
      <trkpt lat="42.90184" lon="-0.68876">
        <ele>1292.630127</ele>
        <time>2012-09-03T14:03:44Z</time>
      </trkpt>
      <trkpt lat="42.90185" lon="-0.68876">
        <ele>1293.591309</ele>
        <time>2012-09-03T14:03:45Z</time>
      </trkpt>
      <trkpt lat="42.90189" lon="-0.68872">
        <ele>1292.149414</ele>
        <time>2012-09-03T14:03:49Z</time>
      </trkpt>
      <trkpt lat="42.90191" lon="-0.68866">
        <ele>1290.707031</ele>
        <time>2012-09-03T14:03:53Z</time>
      </trkpt>
      <trkpt lat="42.90191" lon="-0.68849">
        <ele>1287.823242</ele>
        <time>2012-09-03T14:04:05Z</time>
      </trkpt>
      <trkpt lat="42.90197" lon="-0.68839">
        <ele>1286.861816</ele>
        <time>2012-09-03T14:04:13Z</time>
      </trkpt>
      <trkpt lat="42.902" lon="-0.68835">
        <ele>1284.939453</ele>
        <time>2012-09-03T14:04:17Z</time>
      </trkpt>
      <trkpt lat="42.90199" lon="-0.68827">
        <ele>1283.497314</ele>
        <time>2012-09-03T14:04:27Z</time>
      </trkpt>
      <trkpt lat="42.90193" lon="-0.68812">
        <ele>1283.497314</ele>
        <time>2012-09-03T14:04:36Z</time>
      </trkpt>
      <trkpt lat="42.90192" lon="-0.68803">
        <ele>1282.536133</ele>
        <time>2012-09-03T14:04:45Z</time>
      </trkpt>
      <trkpt lat="42.90194" lon="-0.68803">
        <ele>1280.132812</ele>
        <time>2012-09-03T14:04:49Z</time>
      </trkpt>
      <trkpt lat="42.90199" lon="-0.68803">
        <ele>1279.6521</ele>
        <time>2012-09-03T14:04:57Z</time>
      </trkpt>
      <trkpt lat="42.90209" lon="-0.68801">
        <ele>1279.171387</ele>
        <time>2012-09-03T14:05:09Z</time>
      </trkpt>
      <trkpt lat="42.90218" lon="-0.6881">
        <ele>1276.768311</ele>
        <time>2012-09-03T14:05:20Z</time>
      </trkpt>
      <trkpt lat="42.90218" lon="-0.68815">
        <ele>1277.729492</ele>
        <time>2012-09-03T14:05:24Z</time>
      </trkpt>
      <trkpt lat="42.90222" lon="-0.6882">
        <ele>1275.806641</ele>
        <time>2012-09-03T14:05:29Z</time>
      </trkpt>
      <trkpt lat="42.90229" lon="-0.68822">
        <ele>1275.325928</ele>
        <time>2012-09-03T14:05:47Z</time>
      </trkpt>
      <trkpt lat="42.9023" lon="-0.68821">
        <ele>1275.325928</ele>
        <time>2012-09-03T14:05:49Z</time>
      </trkpt>
      <trkpt lat="42.90237" lon="-0.68817">
        <ele>1275.325928</ele>
        <time>2012-09-03T14:06:01Z</time>
      </trkpt>
      <trkpt lat="42.90238" lon="-0.6882">
        <ele>1273.403564</ele>
        <time>2012-09-03T14:06:42Z</time>
      </trkpt>
      <trkpt lat="42.90243" lon="-0.68818">
        <ele>1272.442139</ele>
        <time>2012-09-03T14:06:57Z</time>
      </trkpt>
      <trkpt lat="42.90249" lon="-0.68812">
        <ele>1273.403564</ele>
        <time>2012-09-03T14:07:15Z</time>
      </trkpt>
      <trkpt lat="42.90259" lon="-0.68809">
        <ele>1271.961426</ele>
        <time>2012-09-03T14:07:30Z</time>
      </trkpt>
      <trkpt lat="42.90261" lon="-0.68813">
        <ele>1271.000244</ele>
        <time>2012-09-03T14:07:39Z</time>
      </trkpt>
      <trkpt lat="42.90264" lon="-0.68815">
        <ele>1270.038818</ele>
        <time>2012-09-03T14:07:42Z</time>
      </trkpt>
      <trkpt lat="42.90275" lon="-0.6882">
        <ele>1269.077637</ele>
        <time>2012-09-03T14:07:59Z</time>
      </trkpt>
      <trkpt lat="42.90277" lon="-0.68823">
        <ele>1265.713135</ele>
        <time>2012-09-03T14:08:06Z</time>
      </trkpt>
      <trkpt lat="42.90279" lon="-0.68831">
        <ele>1264.751709</ele>
        <time>2012-09-03T14:08:22Z</time>
      </trkpt>
      <trkpt lat="42.90281" lon="-0.68837">
        <ele>1264.751709</ele>
        <time>2012-09-03T14:08:47Z</time>
      </trkpt>
      <trkpt lat="42.90282" lon="-0.68842">
        <ele>1263.309814</ele>
        <time>2012-09-03T14:08:52Z</time>
      </trkpt>
      <trkpt lat="42.90288" lon="-0.68849">
        <ele>1260.906494</ele>
        <time>2012-09-03T14:08:59Z</time>
      </trkpt>
      <trkpt lat="42.90291" lon="-0.6885">
        <ele>1259.464355</ele>
        <time>2012-09-03T14:09:02Z</time>
      </trkpt>
      <trkpt lat="42.90293" lon="-0.68851">
        <ele>1260.425781</ele>
        <time>2012-09-03T14:09:04Z</time>
      </trkpt>
      <trkpt lat="42.90295" lon="-0.68849">
        <ele>1259.464355</ele>
        <time>2012-09-03T14:09:16Z</time>
      </trkpt>
      <trkpt lat="42.90304" lon="-0.68859">
        <ele>1255.619141</ele>
        <time>2012-09-03T14:09:29Z</time>
      </trkpt>
      <trkpt lat="42.90306" lon="-0.68858">
        <ele>1255.619141</ele>
        <time>2012-09-03T14:09:31Z</time>
      </trkpt>
      <trkpt lat="42.90319" lon="-0.68846">
        <ele>1254.177246</ele>
        <time>2012-09-03T14:09:47Z</time>
      </trkpt>
      <trkpt lat="42.90327" lon="-0.68839">
        <ele>1252.254395</ele>
        <time>2012-09-03T14:10:01Z</time>
      </trkpt>
      <trkpt lat="42.90329" lon="-0.6883">
        <ele>1250.8125</ele>
        <time>2012-09-03T14:10:11Z</time>
      </trkpt>
      <trkpt lat="42.90335" lon="-0.68831">
        <ele>1248.40918</ele>
        <time>2012-09-03T14:10:22Z</time>
      </trkpt>
      <trkpt lat="42.90342" lon="-0.68835">
        <ele>1246.006104</ele>
        <time>2012-09-03T14:10:34Z</time>
      </trkpt>
      <trkpt lat="42.90348" lon="-0.68838">
        <ele>1242.641357</ele>
        <time>2012-09-03T14:10:42Z</time>
      </trkpt>
      <trkpt lat="42.90359" lon="-0.68839">
        <ele>1240.718506</ele>
        <time>2012-09-03T14:10:54Z</time>
      </trkpt>
      <trkpt lat="42.9036" lon="-0.6884">
        <ele>1240.238037</ele>
        <time>2012-09-03T14:10:55Z</time>
      </trkpt>
      <trkpt lat="42.90371" lon="-0.68847">
        <ele>1236.873291</ele>
        <time>2012-09-03T14:11:06Z</time>
      </trkpt>
      <trkpt lat="42.90378" lon="-0.68852">
        <ele>1235.431396</ele>
        <time>2012-09-03T14:11:15Z</time>
      </trkpt>
      <trkpt lat="42.90382" lon="-0.68855">
        <ele>1234.950928</ele>
        <time>2012-09-03T14:11:19Z</time>
      </trkpt>
      <trkpt lat="42.90391" lon="-0.68852">
        <ele>1232.547607</ele>
        <time>2012-09-03T14:11:29Z</time>
      </trkpt>
      <trkpt lat="42.90404" lon="-0.68848">
        <ele>1231.105713</ele>
        <time>2012-09-03T14:11:45Z</time>
      </trkpt>
      <trkpt lat="42.90415" lon="-0.68856">
        <ele>1230.144287</ele>
        <time>2012-09-03T14:12:00Z</time>
      </trkpt>
      <trkpt lat="42.90418" lon="-0.68857">
        <ele>1229.182861</ele>
        <time>2012-09-03T14:12:05Z</time>
      </trkpt>
      <trkpt lat="42.90422" lon="-0.68867">
        <ele>1226.298828</ele>
        <time>2012-09-03T14:12:14Z</time>
      </trkpt>
      <trkpt lat="42.90425" lon="-0.68879">
        <ele>1225.337402</ele>
        <time>2012-09-03T14:12:23Z</time>
      </trkpt>
      <trkpt lat="42.90437" lon="-0.68889">
        <ele>1221.9729</ele>
        <time>2012-09-03T14:12:38Z</time>
      </trkpt>
      <trkpt lat="42.90445" lon="-0.68899">
        <ele>1219.089111</ele>
        <time>2012-09-03T14:12:48Z</time>
      </trkpt>
      <trkpt lat="42.90463" lon="-0.6891">
        <ele>1215.243896</ele>
        <time>2012-09-03T14:13:05Z</time>
      </trkpt>
      <trkpt lat="42.90478" lon="-0.68919">
        <ele>1212.359863</ele>
        <time>2012-09-03T14:13:20Z</time>
      </trkpt>
      <trkpt lat="42.90495" lon="-0.68915">
        <ele>1209.956299</ele>
        <time>2012-09-03T14:13:38Z</time>
      </trkpt>
      <trkpt lat="42.90499" lon="-0.68916">
        <ele>1207.553223</ele>
        <time>2012-09-03T14:13:44Z</time>
      </trkpt>
      <trkpt lat="42.90503" lon="-0.6892">
        <ele>1208.033936</ele>
        <time>2012-09-03T14:13:49Z</time>
      </trkpt>
      <trkpt lat="42.90511" lon="-0.68921">
        <ele>1205.630615</ele>
        <time>2012-09-03T14:14:01Z</time>
      </trkpt>
      <trkpt lat="42.90514" lon="-0.68922">
        <ele>1204.669189</ele>
        <time>2012-09-03T14:14:18Z</time>
      </trkpt>
      <trkpt lat="42.90523" lon="-0.68922">
        <ele>1202.746582</ele>
        <time>2012-09-03T14:14:42Z</time>
      </trkpt>
      <trkpt lat="42.90533" lon="-0.68923">
        <ele>1200.343506</ele>
        <time>2012-09-03T14:14:59Z</time>
      </trkpt>
      <trkpt lat="42.9054" lon="-0.68928">
        <ele>1198.901367</ele>
        <time>2012-09-03T14:15:21Z</time>
      </trkpt>
      <trkpt lat="42.90555" lon="-0.68922">
        <ele>1198.901367</ele>
        <time>2012-09-03T14:15:36Z</time>
      </trkpt>
      <trkpt lat="42.90561" lon="-0.68906">
        <ele>1196.498291</ele>
        <time>2012-09-03T14:15:52Z</time>
      </trkpt>
      <trkpt lat="42.90567" lon="-0.68906">
        <ele>1195.055908</ele>
        <time>2012-09-03T14:15:59Z</time>
      </trkpt>
      <trkpt lat="42.90571" lon="-0.68899">
        <ele>1194.094727</ele>
        <time>2012-09-03T14:16:06Z</time>
      </trkpt>
      <trkpt lat="42.90579" lon="-0.68896">
        <ele>1193.133301</ele>
        <time>2012-09-03T14:16:16Z</time>
      </trkpt>
      <trkpt lat="42.90594" lon="-0.68906">
        <ele>1191.210693</ele>
        <time>2012-09-03T14:16:31Z</time>
      </trkpt>
      <trkpt lat="42.90597" lon="-0.68912">
        <ele>1190.249512</ele>
        <time>2012-09-03T14:16:35Z</time>
      </trkpt>
      <trkpt lat="42.90611" lon="-0.68926">
        <ele>1186.404297</ele>
        <time>2012-09-03T14:16:52Z</time>
      </trkpt>
      <trkpt lat="42.90616" lon="-0.68925">
        <ele>1185.923584</ele>
        <time>2012-09-03T14:16:58Z</time>
      </trkpt>
      <trkpt lat="42.90619" lon="-0.68924">
        <ele>1184.962402</ele>
        <time>2012-09-03T14:17:01Z</time>
      </trkpt>
      <trkpt lat="42.90627" lon="-0.6892">
        <ele>1184.481689</ele>
        <time>2012-09-03T14:17:14Z</time>
      </trkpt>
      <trkpt lat="42.90628" lon="-0.68922">
        <ele>1184.481689</ele>
        <time>2012-09-03T14:17:16Z</time>
      </trkpt>
      <trkpt lat="42.9063" lon="-0.68928">
        <ele>1184.000977</ele>
        <time>2012-09-03T14:17:22Z</time>
      </trkpt>
      <trkpt lat="42.90633" lon="-0.68939">
        <ele>1183.039551</ele>
        <time>2012-09-03T14:17:35Z</time>
      </trkpt>
      <trkpt lat="42.90633" lon="-0.68947">
        <ele>1182.078369</ele>
        <time>2012-09-03T14:17:47Z</time>
      </trkpt>
    </trkseg>
  </trk>
</gpx>